[[[{"header":{"parameterUnit":"kt","parameterCategory":2,"dx":1,"dy":1,"la1":29.587661999999998,"la2":31.0,"lo1":-88.76705300000003,"lo2":-86.6583820000003,"nx":115,"ny":88,"refTime":"2022-11-02T06:00:00:Z","depth":0,"parameterNumber":1,"parameterNumberName":"U-component_of_WINDS"},"data":[4.2564,4.2564,4.2774,4.2844,4.3011,4.3891,4.4888,4.5947,4.6807,4.7668,4.8464,4.8553,4.8854,4.9638,4.9584,5.0256,5.1423,5.1444,5.1644,5.2027,5.2534,5.2337,5.2337,5.2817,5.2224,5.2835,5.3752,5.4281,5.5384,5.6243,5.664,5.6794,5.6732,5.6702,5.6702,5.6763,5.6978,5.707,5.7252,5.7375,5.7805,5.7863,5.7486,5.8346,5.9255,5.9963,6.0629,6.1452,6.167,6.1814,6.1876,6.1976,6.2283,6.235,6.2317,6.2183,6.2149,6.1948,6.1948,6.1847,6.1814,6.1814,6.1814,6.1814,6.189,6.189,6.2278,6.2449,6.2817,6.3713,6.372,6.3955,6.3735,6.3811,6.4385,6.4385,6.4278,6.4243,6.403,6.401,6.4308,6.466,6.4726,6.4543,6.4885,6.4839,6.4885,6.4885,6.4741,6.5148,6.5374,6.5328,6.5282,6.5752,6.5643,6.5102,6.5311,6.5456,6.5562,6.5492,6.5965,6.7277,6.8133,6.81,6.8458,6.8849,6.9247,6.9343,6.9327,6.9215,6.929,6.9252,6.9402,6.9402,6.9402,4.053,4.0601,4.1419,4.1793,4.1933,4.2823,4.4199,4.5575,4.601,4.6893,4.7961,4.7338,4.8164,4.902,4.953,5.0333,5.0639,5.017,5.1046,5.1569,5.1671,5.14,5.1428,5.1857,5.1773,5.2293,5.3281,5.4053,5.5112,5.6034,5.6548,5.6548,5.6548,5.6548,5.6579,5.6548,5.6548,5.6548,5.6579,5.6702,5.6995,5.7435,5.8198,5.9559,6.0941,6.1491,6.1531,6.1709,6.1742,6.1814,6.1814,6.1814,6.1814,6.1814,6.1814,6.1713,6.168,6.1651,6.1822,6.1688,6.1554,6.1755,6.1814,6.1852,6.1964,6.221,6.2746,6.31,6.3319,6.3541,6.3232,6.308,6.2541,6.2354,6.3179,6.3788,6.3536,6.3356,6.2852,6.2241,6.2754,6.3331,6.3062,6.2421,6.2409,6.2365,6.2321,6.2394,6.2727,6.353,6.3755,6.3602,6.3441,6.3044,6.2763,6.2851,6.327,6.3615,6.4198,6.3948,6.4171,6.5711,6.6777,6.7173,6.773,6.8135,6.8554,6.8291,6.8876,6.8951,6.8726,6.8329,6.8479,6.8517,6.8914,4.0063,4.0063,4.0577,4.0717,4.0788,4.1232,4.22,4.337,4.3791,4.4587,4.522,4.5364,4.5629,4.6232,4.6917,4.741,4.7999,4.8339,4.9195,4.9569,4.9445,4.9948,4.9864,4.9712,5.0432,5.1197,5.2206,5.3705,5.5268,5.6095,5.6426,5.6548,5.6548,5.6548,5.6548,5.6548,5.6548,5.6487,5.6548,5.595,5.4912,5.5326,5.6326,5.7546,5.852,5.9177,5.9693,6.0473,6.0976,6.1579,6.1613,6.1646,6.1546,6.1512,6.168,6.1512,6.1181,6.112,6.1464,6.1126,6.0275,6.0705,6.1009,6.1052,6.1285,6.1075,6.1671,6.2184,6.2413,6.2517,6.2206,6.2343,6.1911,6.1448,6.2025,6.2385,6.2169,6.2069,6.1672,6.131,6.1708,6.2177,6.1824,6.1216,6.1354,6.1383,6.1758,6.2011,6.2018,6.246,6.1916,6.1512,6.113,6.0726,6.1167,6.1549,6.1669,6.2231,6.3,6.2876,6.3058,6.4384,6.5276,6.5382,6.5801,6.6729,6.6788,6.6186,6.6562,6.7395,6.7355,6.7335,6.7255,6.7218,6.6831,3.9292,3.9354,3.9292,3.9455,3.9642,3.9923,4.062,4.1356,4.1539,4.1734,4.2249,4.3085,4.3759,4.4405,4.5158,4.5978,4.6476,4.702,4.7034,4.7813,4.816,4.8621,4.8409,4.8774,4.8939,4.9749,5.083,5.222,5.3643,5.4787,5.5475,5.5506,5.544,5.5256,5.5287,5.5199,5.5287,5.5164,5.5363,5.4943,5.4517,5.4434,5.4777,5.601,5.6207,5.7049,5.7282,5.856,6.0375,6.1117,6.1184,6.0808,6.0775,6.0674,6.0711,6.0716,5.991,6.0245,6.0504,6.0076,5.9653,6.0018,6.0112,6.0266,6.0176,5.9928,5.9999,6.0523,6.0867,6.0983,6.1076,6.1394,6.1503,6.1107,6.0906,6.0762,6.0574,6.0545,6.0559,6.0703,6.0949,6.0877,6.0552,6.0523,6.0697,6.074,6.0824,6.083,6.0582,6.0603,6.0025,5.9957,5.9358,5.9616,6.0325,6.0731,6.0471,6.0856,6.1186,6.1619,6.2065,6.2473,6.2706,6.3131,6.3983,6.4888,6.5209,6.4533,6.4516,6.5136,6.5417,6.5937,6.5979,6.4905,6.4372,3.7211,3.7235,3.7165,3.7796,3.8637,3.9549,4.043,4.1186,3.9419,3.9134,4.0224,4.1586,4.2809,4.345,4.4395,4.5377,4.5764,4.6002,4.6389,4.8046,4.7512,4.7484,4.7669,4.8207,4.7992,4.8688,4.9719,5.0835,5.1461,5.2641,5.3659,5.3014,5.329,5.3567,5.369,5.3628,5.3467,5.3419,5.3479,5.4012,5.437,5.538,5.6397,5.672,5.6153,5.5387,5.5121,5.682,5.9808,6.0146,5.9741,5.816,5.8227,5.8261,5.8589,5.8482,5.8703,5.9214,5.9509,5.8996,5.9008,5.917,5.9158,5.9076,5.8941,5.8677,5.9099,5.9578,5.9591,5.9648,5.967,5.991,5.9702,5.9312,5.9294,5.9336,5.9077,5.8819,5.8866,5.9024,5.9278,5.9346,5.9056,5.9024,5.9169,5.8259,5.8078,5.8227,5.8277,5.8609,5.8528,5.8593,5.8528,5.8787,5.9468,5.9714,5.9393,5.9194,5.918,5.9649,6.0639,6.0586,6.0249,6.1347,6.2576,6.331,6.3688,6.367,6.3538,6.3592,6.3703,6.4433,6.3788,6.2388,6.1998,3.6908,3.6908,3.6908,3.7141,3.7585,3.7983,3.8359,3.8511,3.78,3.761,3.8324,4.0077,4.12,4.1885,4.3244,4.4206,4.4679,4.4828,4.5157,4.5909,4.5464,4.5948,4.6011,4.5955,4.6581,4.7554,4.8507,4.9598,5.0926,5.1914,5.2615,5.2553,5.2707,5.2737,5.2553,5.2307,5.1969,5.1408,5.1323,5.1951,5.2532,5.3291,5.406,5.4349,5.4406,5.3884,5.366,5.5152,5.7288,5.8361,5.8919,5.7909,5.7876,5.8186,5.8521,5.8246,5.8013,5.8154,5.8847,5.8083,5.8067,5.8223,5.8022,5.7745,5.7499,5.7645,5.8095,5.854,5.8432,5.837,5.8341,5.8224,5.7834,5.7442,5.7713,5.8016,5.768,5.7311,5.7321,5.7475,5.7622,5.784,5.7804,5.7622,5.7442,5.7553,5.7625,5.7625,5.7832,5.8093,5.8248,5.8337,5.8308,5.8271,5.8448,5.8803,5.8962,5.907,5.8813,5.8895,5.9163,5.9505,5.9714,6.0413,6.1206,6.1169,6.1281,6.1675,6.221,6.16,6.1471,6.2074,6.1732,6.0707,6.0859,3.6043,3.6043,3.6043,3.6206,3.6417,3.616,3.6043,3.6089,3.6393,3.6463,3.6612,3.8835,4.0044,4.0256,4.2058,4.2995,4.3359,4.3457,4.3732,4.4021,4.4623,4.4427,4.4515,4.4772,4.5082,4.6007,4.7028,4.8158,4.9415,5.0331,5.0997,5.157,5.1109,5.1202,5.1232,5.1447,5.0473,4.9942,5.016,5.0848,5.151,5.2442,5.2894,5.3309,5.3366,5.3338,5.3184,5.4242,5.4908,5.6043,5.6617,5.6959,5.7054,5.7555,5.7865,5.7726,5.7428,5.7139,5.8239,5.7013,5.645,5.7349,5.7087,5.6475,5.6545,5.6768,5.6883,5.7354,5.7587,5.7839,5.7889,5.795,5.7808,5.7661,5.7841,5.8027,5.794,5.7653,5.7625,5.7731,5.7766,5.7949,5.7912,5.7729,5.7798,5.7997,5.8156,5.8181,5.833,5.8444,5.859,5.8644,5.867,5.8759,5.8747,5.8212,5.8631,5.897,5.9088,5.9152,5.9285,5.9305,5.925,5.959,6.0154,5.9946,5.9522,5.9923,6.0859,6.0204,5.9872,5.9986,6.01,6.0213,6.0365,3.3986,3.3939,3.3939,3.4593,3.5154,3.4453,3.4056,3.4103,3.5038,3.5435,3.5581,3.8022,3.927,4.0122,4.1605,4.2868,4.356,4.3787,4.4082,4.4286,4.4374,4.4374,4.449,4.449,4.4747,4.4982,4.5702,4.6957,4.7019,4.8484,4.8983,4.8974,4.9468,4.9205,4.9252,4.9361,4.9437,4.974,5.011,5.0948,5.1521,5.2337,5.2846,5.3003,5.3065,5.3098,5.3137,5.3299,5.3467,5.3774,5.4032,5.4164,5.4404,5.4599,5.4693,5.5028,5.5735,5.6081,5.6781,5.6934,5.6644,5.6947,5.6573,5.6675,5.6814,5.6978,5.7022,5.7179,5.7256,5.7439,5.7625,5.7692,5.7772,5.7914,5.8014,5.8075,5.8063,5.7954,5.7935,5.8025,5.8025,5.8025,5.8025,5.8057,5.8119,5.8012,5.7609,5.7645,5.7182,5.7529,5.7516,5.7675,5.8005,5.8542,5.8601,5.7922,5.8081,5.8344,5.861,5.8855,5.925,5.9307,5.9327,5.9365,5.9421,5.9494,5.9639,5.9771,5.9796,5.9454,5.9188,5.9075,5.8353,5.8771,5.8809,3.3846,3.3846,3.3846,3.4079,3.4173,3.3285,3.3261,3.3869,3.4196,3.4383,3.4837,3.6379,3.7652,3.8839,4.052,4.2273,4.3221,4.3838,4.4434,4.449,4.4434,4.4262,4.4378,4.449,4.4326,4.53,4.5894,4.6417,4.695,4.7846,4.8145,4.8314,4.8637,4.7977,4.7728,4.8484,4.9123,4.9681,5.0287,5.1293,5.1814,5.2391,5.2897,5.2864,5.2897,5.2992,5.3059,5.3093,5.3147,5.3387,5.3937,5.4658,5.5131,5.5484,5.5776,5.5789,5.5977,5.607,5.6216,5.6225,5.6251,5.6616,5.7137,5.7217,5.7294,5.6968,5.7152,5.7261,5.7516,5.7515,5.7546,5.803,5.8082,5.8103,5.8193,5.8181,5.813,5.7858,5.7787,5.813,5.8234,5.8263,5.83,5.8173,5.7748,5.7338,5.6958,5.6173,5.5522,5.5448,5.5394,5.5452,5.5701,5.6133,5.6378,5.6642,5.7224,5.7674,5.7918,5.8125,5.8426,5.8426,5.9064,5.944,5.9086,5.8954,5.9424,5.9644,5.9454,5.915,5.8391,5.7518,5.6835,5.6531,5.6303,3.2725,3.2817,3.2817,3.2817,3.2632,3.1979,3.2163,3.2655,3.2749,3.3027,3.3586,3.553,3.6658,3.7868,3.9797,4.14,4.2125,4.3139,4.3223,4.3224,4.3111,4.3335,4.316,4.2994,4.3308,4.4008,4.4614,4.5033,4.6181,4.6859,4.7274,4.7454,4.7209,4.7024,4.663,4.7166,4.8393,4.9018,5.0019,5.0692,5.1032,5.1209,5.1389,5.1322,5.1322,5.1373,5.1481,5.1438,5.1532,5.1826,5.2477,5.3176,5.3587,5.4087,5.4533,5.4612,5.5432,5.5583,5.5583,5.5353,5.5461,5.5549,5.5549,5.5548,5.6048,5.6118,5.6222,5.6136,5.5975,5.6067,5.6429,5.6803,5.7072,5.7154,5.7256,5.7274,5.7338,5.7128,5.7145,5.7331,5.6993,5.671,5.6624,5.6128,5.604,5.5837,5.5599,5.4908,5.4053,5.381,5.336,5.3397,5.3416,5.3809,5.4372,5.5121,5.574,5.589,5.6191,5.6509,5.6923,5.7148,5.7594,5.7936,5.8087,5.8201,5.7974,5.7898,5.8391,5.8163,5.691,5.5847,5.562,5.5316,5.4708,3.0814,3.0697,3.0814,3.0814,3.0907,3.0721,3.0791,3.1024,3.1,3.1443,3.253,3.4775,3.6277,3.7285,3.8745,4.0068,4.0721,4.1051,4.1269,4.141,4.1528,4.1122,4.1177,4.1317,4.1779,4.1236,4.2236,4.3229,4.3393,4.5135,4.5369,4.5447,4.5704,4.5581,4.4638,4.5201,4.5571,4.5871,4.732,4.7943,4.8435,4.9046,4.9253,4.9344,4.9377,4.9638,4.9917,4.9993,5.0317,5.0715,5.129,5.1643,5.1872,5.224,5.2378,5.2384,5.3491,5.4034,5.4034,5.3262,5.3256,5.3568,5.4101,5.3944,5.3621,5.3599,5.4026,5.4758,5.4487,5.433,5.4192,5.43,5.4591,5.4815,5.4965,5.5046,5.5188,5.5133,5.532,5.5492,5.486,5.4268,5.4326,5.4326,5.4438,5.3881,5.4013,5.3641,5.2778,5.2233,5.1612,5.1442,5.1233,5.1308,5.1195,5.2769,5.365,5.3988,5.3971,5.3804,5.4067,5.4442,5.524,5.6189,5.6037,5.5392,5.5658,5.5999,5.543,5.4936,5.4253,5.3987,5.4519,5.4405,5.3797,3.0846,3.0697,3.0697,3.0697,3.0697,3.0697,3.0697,3.0697,3.0697,3.0907,3.1251,3.2222,3.3481,3.5074,3.6776,3.8154,3.9412,4.0284,4.0618,4.0667,4.0576,4.0805,4.0783,4.0721,4.0696,4.1618,4.219,4.2605,4.3081,4.428,4.4385,4.4159,4.4014,4.3707,4.3581,4.5012,4.6429,4.6933,4.7755,4.8197,4.8098,4.8326,4.8439,4.8372,4.8361,4.8536,4.8723,4.8916,4.9392,5.0009,5.0519,5.0964,5.138,5.1745,5.1946,5.2205,5.2681,5.3082,5.3154,5.3024,5.3223,5.2928,5.3095,5.3252,5.3629,5.3719,5.3189,5.3562,5.3769,5.4047,5.4075,5.3544,5.3378,5.2517,5.2629,5.2461,5.2648,5.2404,5.2815,5.3003,5.3674,5.3432,5.3302,5.2797,5.173,4.9499,4.9483,4.928,4.922,4.9371,4.907,4.9123,4.9003,4.8461,4.7897,4.8679,4.9498,4.9912,5.0424,5.0507,5.0886,5.1051,5.1671,5.2468,5.2734,5.2582,5.2772,5.3228,5.2658,5.1934,5.1178,5.0684,5.1353,5.239,5.2072,3.0611,3.0697,3.0697,3.0697,3.0697,3.0697,3.0697,3.0697,3.0697,3.0697,3.0807,3.1588,3.2564,3.3857,3.5311,3.6954,3.7895,3.9007,3.9154,3.9352,3.9419,3.9379,3.9387,3.9379,3.9723,4.0215,4.0867,4.1538,4.239,4.3215,4.3362,4.2878,4.211,4.1803,4.2128,4.3246,4.4596,4.547,4.64,4.6863,4.6863,4.6863,4.6951,4.6951,4.7005,4.738,4.7753,4.7966,4.85,4.9,4.9206,4.943,4.9676,4.9865,5.0045,5.0292,5.1226,5.1621,5.1757,5.1606,5.1716,5.1953,5.2062,5.1944,5.1728,5.2011,5.2085,5.216,5.2005,5.1262,5.1524,5.1408,5.1475,5.0664,5.01,4.9806,4.9543,4.9092,4.9092,4.8769,4.9865,5.1185,5.111,5.0845,4.7879,4.5315,4.4967,4.4856,4.5481,4.5792,4.6206,4.6356,4.6445,4.6093,4.6107,4.5709,4.5307,4.5985,4.6651,4.7153,4.7696,4.7951,4.8558,4.8558,4.89,4.9925,5.057,5.0646,5.0748,5.0816,4.9856,4.8668,4.8973,4.9947,5.0242,3.0178,3.0697,3.0697,3.0697,3.0697,3.0697,3.0697,3.0697,3.0697,3.0697,3.0955,3.2258,3.2754,3.3487,3.5255,3.6331,3.6222,3.6836,3.7355,3.7429,3.7186,3.7525,3.7683,3.7785,3.7805,3.831,3.9349,3.9743,4.0127,4.1848,4.1526,4.0636,4.0881,4.0605,4.1017,4.1926,4.2924,4.3582,4.4542,4.4736,4.4703,4.4755,4.4806,4.4755,4.4883,4.5155,4.5627,4.6348,4.7051,4.7592,4.7774,4.7887,4.8313,4.8408,4.857,4.8976,4.9829,5.0358,5.0336,4.9989,4.9302,4.9167,4.9438,4.9932,5.0158,4.9688,4.9498,4.9875,5.0305,4.9435,4.8168,4.7037,4.7479,4.7153,4.7078,4.6976,4.6938,4.6387,4.591,4.4877,4.5281,4.6575,4.6839,4.622,4.3767,4.3344,4.2973,4.2851,4.3167,4.3218,4.3599,4.4036,4.4126,4.4227,4.4303,4.3864,4.3291,4.3495,4.4366,4.4781,4.5202,4.5597,4.6394,4.6546,4.7039,4.7913,4.8669,4.8456,4.854,4.9255,4.9579,4.9008,4.9101,4.9506,4.9598,3.076,3.0697,3.0697,3.0697,3.0697,3.0697,3.0697,3.0697,3.0697,3.0697,3.0869,3.1273,3.2399,3.3732,3.5017,3.6214,3.6735,3.7028,3.713,3.7158,3.7158,3.7158,3.7202,3.7535,3.775,3.7992,3.8965,3.9505,3.9957,4.0499,4.0943,4.0482,4.0579,4.0548,4.0739,4.1511,4.2223,4.2817,4.377,4.425,4.4368,4.4762,4.4967,4.5108,4.5406,4.5878,4.6295,4.653,4.6878,4.7346,4.7448,4.7614,4.7832,4.7977,4.815,4.8445,4.8926,4.9471,4.9456,4.9369,4.9238,4.9223,4.9295,4.9313,4.9365,4.9348,4.9365,4.9376,4.9461,4.8679,4.754,4.709,4.6005,4.5083,4.43,4.4474,4.464,4.4619,4.4244,4.3657,4.3582,4.3894,4.3511,4.2334,4.1794,4.1464,4.1195,4.1074,4.1045,4.0959,4.1503,4.2264,4.2317,4.2398,4.2142,4.1648,4.1231,4.1297,4.2398,4.3164,4.4,4.4458,4.5065,4.5217,4.5445,4.6644,4.8454,4.7135,4.6107,4.7862,4.9196,4.8956,4.9062,4.9353,4.9539,3.0502,3.0697,3.0697,3.0697,3.0697,3.0697,3.0697,3.0697,3.0697,3.0697,3.0784,3.1017,3.1816,3.3006,3.4706,3.581,3.6513,3.6983,3.7158,3.7158,3.7158,3.7158,3.7275,3.7607,3.8104,3.8454,3.9169,3.974,4.0033,4.0292,4.0612,4.0802,4.0864,4.0927,4.1511,4.2249,4.2649,4.3039,4.3718,4.4301,4.4567,4.4967,4.5339,4.5328,4.5878,4.6254,4.6648,4.6877,4.7309,4.7545,4.7832,4.8021,4.8243,4.8379,4.8559,4.8645,4.8916,4.9103,4.9241,4.9297,4.9297,4.9368,4.9435,4.9446,4.9446,4.9492,4.9535,4.9528,4.9616,4.8864,4.7643,4.669,4.5379,4.3958,4.2586,4.2463,4.2198,4.2486,4.291,4.2645,4.2462,4.2804,4.2761,4.233,4.2366,4.2621,4.2951,4.2653,4.2135,4.1496,4.1494,4.1605,4.1572,4.1636,4.1458,4.1496,4.1876,4.2331,4.3394,4.3735,4.3925,4.4051,4.4648,4.4989,4.5348,4.6511,4.806,4.799,4.7654,4.8108,4.8724,4.8974,4.9224,4.9454,4.9376,2.9693,3.0697,3.0697,3.0697,3.0697,3.0697,3.0697,3.0697,3.0697,3.0697,3.0932,3.1395,3.1792,3.2679,3.4314,3.5352,3.6187,3.6808,3.7158,3.7158,3.7158,3.7158,3.7202,3.7679,3.8344,3.8789,3.9475,4.0002,4.0292,4.0357,4.0739,4.1237,4.136,4.1632,4.2106,4.2729,4.3192,4.3407,4.3978,4.4368,4.4582,4.5213,4.553,4.5793,4.6295,4.6875,4.6989,4.7377,4.7734,4.7857,4.8159,4.8379,4.8584,4.8596,4.8788,4.8987,4.9146,4.9297,4.9365,4.9414,4.943,4.9469,4.9549,4.9577,4.9616,4.9674,4.9697,4.9773,4.9773,4.9004,4.7492,4.6191,4.4645,4.3317,4.214,4.1193,4.1002,4.2553,4.1602,4.1337,4.2933,4.2939,4.3014,4.302,4.3182,4.4129,4.4781,4.4592,4.4224,4.3826,4.3719,4.3486,4.344,4.345,4.3357,4.3623,4.3987,4.4257,4.4903,4.5318,4.5599,4.5884,4.5789,4.5897,4.5822,4.6751,4.8156,4.8965,4.9258,4.9226,4.9001,4.9114,4.9355,4.9273,4.9241,2.8545,3.0697,3.0697,3.0697,3.0697,3.0697,3.0674,3.0697,3.0697,3.1017,3.1455,3.1708,3.2539,3.3758,3.4733,3.5685,3.6882,3.6955,3.713,3.7158,3.7158,3.713,3.742,3.8063,3.875,3.9063,3.974,4.0357,4.0451,4.0546,4.0833,4.1299,4.1452,4.1723,4.2364,4.3006,4.3138,4.346,4.3978,4.4452,4.4824,4.5574,4.6213,4.6577,4.7133,4.7484,4.7614,4.7863,4.813,4.8442,4.8621,4.8741,4.8864,4.8901,4.9071,4.9348,4.9436,4.9488,4.9515,4.9528,4.959,4.963,4.9706,4.972,4.9749,4.9756,4.9786,4.9763,4.973,4.9098,4.7937,4.7099,4.6047,4.4534,4.3052,4.2141,4.2475,4.2051,4.1297,4.2192,4.3296,4.4013,4.4351,4.4489,4.4729,4.5594,4.602,4.5884,4.5922,4.5659,4.5697,4.5457,4.539,4.5403,4.5587,4.5891,4.6004,4.6194,4.6535,4.6849,4.7218,4.7513,4.8032,4.8277,4.7912,4.7379,4.8243,4.9204,4.9295,4.9295,4.9204,4.9185,4.924,4.9223,4.9146,2.72,2.9264,2.9288,2.9568,2.9905,2.9952,3.0208,3.0737,3.1017,3.1395,3.1792,3.2457,3.3163,3.3729,3.4629,3.5761,3.6615,3.6836,3.6983,3.7158,3.713,3.7174,3.7607,3.8443,3.8926,3.9438,4.0033,4.0451,4.0451,4.0733,4.1301,4.1787,4.217,4.2543,4.316,4.3452,4.3737,4.4047,4.4533,4.4954,4.5282,4.5836,4.6455,4.6915,4.7414,4.7843,4.8057,4.8187,4.8508,4.8765,4.8949,4.9091,4.9147,4.9235,4.9401,4.959,4.9582,4.9612,4.9649,4.969,4.9673,4.9759,4.9754,4.9768,4.9781,4.9788,4.9777,4.9784,4.9753,4.9503,4.8672,4.7874,4.7113,4.6003,4.4668,4.4165,4.4192,4.3235,4.3605,4.4553,4.4856,4.5024,4.5494,4.6054,4.6332,4.6695,4.7116,4.7277,4.7394,4.7514,4.774,4.7663,4.7729,4.779,4.7903,4.7979,4.8054,4.8017,4.8145,4.8347,4.8618,4.858,4.9119,4.9578,4.9447,4.8678,4.9166,4.9166,4.9166,4.9204,4.9147,4.9128,4.9146,4.9163,4.9163,2.6041,2.7853,2.7853,2.8268,2.8856,2.8903,2.9416,3.0339,3.0869,3.1431,3.1861,3.3031,3.3351,3.3699,3.4838,3.5663,3.6214,3.6615,3.6763,3.7085,3.713,3.7391,3.7821,3.8582,3.9199,3.974,4.039,4.0675,4.0768,4.1269,4.1887,4.2461,4.2859,4.3389,4.3837,4.4148,4.4216,4.4616,4.4967,4.5384,4.5706,4.6178,4.6615,4.7204,4.7679,4.8057,4.8215,4.8547,4.8804,4.8949,4.9201,4.9348,4.945,4.9576,4.9659,4.9727,4.9725,4.9716,4.981,4.9835,4.9805,4.9769,4.9803,4.9801,4.9771,4.9771,4.9735,4.9773,4.9805,4.987,4.9834,4.8724,4.7873,4.74,4.6395,4.5509,4.5789,4.5764,4.6123,4.6726,4.6134,4.5895,4.6776,4.748,4.7667,4.7926,4.8115,4.8185,4.8243,4.8577,4.8813,4.9092,4.9521,4.9596,4.9671,4.9348,4.9176,4.8904,4.8942,4.9129,4.9194,4.9351,4.9372,4.9372,4.9278,4.9035,4.9035,4.9204,4.9128,4.9011,4.9011,4.9069,4.8907,4.8737,4.8819,2.5541,2.7853,2.7853,2.7869,2.801,2.801,2.8329,2.8903,2.9334,3.0612,3.1881,3.2654,3.3418,3.4366,3.5044,3.5329,3.5739,3.6167,3.6661,3.7057,3.713,3.7564,3.8034,3.8691,3.9371,4.0262,4.0864,4.1176,4.1393,4.1917,4.2474,4.2961,4.3137,4.3605,4.4045,4.4199,4.4517,4.5108,4.535,4.5662,4.6137,4.6577,4.7098,4.7611,4.8021,4.8215,4.8547,4.876,4.8916,4.9252,4.9333,4.949,4.9669,4.9829,4.9913,4.9875,4.9504,4.9316,4.9241,4.9507,4.9582,4.9922,4.9808,4.9721,4.9634,4.9547,4.9535,4.9576,4.9636,4.9678,4.964,4.9196,4.9138,4.8843,4.7666,4.7543,4.8422,4.8759,4.8053,4.8341,4.7167,4.6573,4.7468,4.7618,4.8485,4.9071,4.9017,4.8959,4.8923,4.8979,4.8751,4.886,4.9235,4.9385,4.9423,4.9198,4.9269,4.9135,4.9258,4.9306,4.931,4.8735,4.8045,4.8493,4.8548,4.866,4.8529,4.8022,4.8035,4.8811,4.8507,4.7683,4.7768,4.8298,4.8298,2.3183,2.5038,2.5453,2.5996,2.6585,2.6955,2.7482,2.8302,2.9249,3.0152,3.078,3.173,3.2676,3.3837,3.4092,3.454,3.5068,3.5663,3.6214,3.678,3.7391,3.785,3.8384,3.9033,3.9638,4.0421,4.1114,4.136,4.166,4.23,4.2919,4.3138,4.3605,4.4027,4.4465,4.4694,4.5074,4.5618,4.5929,4.6178,4.6615,4.7169,4.7707,4.793,4.8298,4.8534,4.8782,4.8937,4.9201,4.9341,4.9527,4.9697,4.9791,4.9089,4.8671,4.8405,4.7903,4.7292,4.7286,4.7235,4.7284,4.7072,4.7059,4.75,4.8127,4.842,4.8702,4.936,4.9538,4.9576,4.9576,4.9538,4.9602,4.9415,4.8825,4.871,4.898,4.766,4.6456,4.6512,4.6661,4.6661,4.6547,4.5836,4.6287,4.67,4.6752,4.6785,4.6938,4.7539,4.7652,4.7951,4.8512,4.8811,4.8848,4.8755,4.8623,4.8511,4.8471,4.8529,4.8362,4.7558,4.6677,4.6095,4.5698,4.6298,4.6855,4.6117,4.5709,4.618,4.6244,4.5924,4.59,4.639,4.6702,2.1284,2.2579,2.3264,2.428,2.5374,2.5756,2.6448,2.7651,2.894,2.9366,2.9789,3.0668,3.1668,3.265,3.2729,3.3125,3.391,3.4917,3.5558,3.6298,3.7378,3.8297,3.8491,3.8995,3.9763,4.0708,4.1299,4.1692,4.2042,4.2864,4.3404,4.3599,4.4197,4.4619,4.5005,4.5235,4.5671,4.6143,4.6544,4.6808,4.7168,4.7739,4.808,4.8167,4.8522,4.8782,4.8954,4.9252,4.9234,4.8949,4.8712,4.8354,4.8254,4.7446,4.6904,4.6593,4.5625,4.4955,4.4905,4.5024,4.4753,4.499,4.5083,4.5054,4.6425,4.6612,4.7216,4.8033,4.8435,4.8083,4.8032,4.8322,4.8108,4.7992,4.7926,4.7943,4.7702,4.5577,4.4278,4.4055,4.4113,4.3928,4.4043,4.4405,4.4348,4.4121,4.4208,4.4182,4.4765,4.5459,4.5743,4.6026,4.6473,4.6771,4.6791,4.6699,4.6642,4.664,4.6885,4.6997,4.6637,4.5974,4.5263,4.4398,4.3437,4.3746,4.4642,4.4045,4.401,4.3654,4.3566,4.3944,4.4304,4.452,4.4875,2.1764,2.2629,2.3242,2.4035,2.4592,2.4219,2.5147,2.6668,2.7155,2.7963,2.9199,3.0092,3.0722,3.149,3.1561,3.1595,3.1904,3.3947,3.472,3.5508,3.6803,3.7914,3.7606,3.8208,3.9346,4.0734,4.1866,4.2195,4.2482,4.3267,4.4065,4.4126,4.4418,4.4995,4.5019,4.5417,4.6032,4.6227,4.6381,4.6723,4.7183,4.7727,4.7873,4.7952,4.8306,4.8957,4.9044,4.9214,4.877,4.7482,4.6121,4.5824,4.559,4.5345,4.5007,4.4842,4.4448,4.4149,4.4387,4.4021,4.4263,4.4077,4.414,4.468,4.4636,4.472,4.4916,4.5437,4.4934,4.5271,4.5271,4.5084,4.5271,4.5367,4.4887,4.4495,4.4028,4.3568,4.336,4.3529,4.3502,4.3644,4.3843,4.3944,4.3738,4.238,4.2646,4.2616,4.286,4.3592,4.4006,4.4256,4.45,4.4781,4.4744,4.4691,4.4791,4.4991,4.539,4.4976,4.4619,4.3626,4.3308,4.3003,4.2026,4.194,4.2306,4.2574,4.2841,4.248,4.1617,4.2135,4.2697,4.2535,4.2844,2.0789,2.193,2.255,2.3144,2.3687,2.4106,2.4776,2.5634,2.6487,2.7261,2.7697,2.8307,2.9296,3.051,3.0631,3.1046,3.1951,3.3198,3.3761,3.3969,3.5176,3.6173,3.699,3.7599,3.8399,3.9419,4.0022,4.0583,4.1142,4.1629,4.2153,4.2726,4.277,4.3042,4.3685,4.3809,4.4165,4.4637,4.4911,4.5144,4.552,4.654,4.6694,4.6351,4.8118,4.8635,4.807,4.8127,4.7473,4.6089,4.5286,4.4879,4.4716,4.3859,4.3242,4.3109,4.2103,4.1643,4.1556,4.1361,4.1332,4.1421,4.1141,4.1573,4.2429,4.2635,4.3193,4.3692,4.3969,4.3969,4.3969,4.3969,4.4006,4.3635,4.2144,4.0909,4.0698,4.0645,4.0548,4.0559,4.0546,4.0546,4.0593,4.0546,4.0499,4.0621,4.09,4.0865,4.0963,4.1757,4.2356,4.2601,4.2845,4.3225,4.3348,4.3273,4.3316,4.3617,4.3703,4.2734,4.1692,4.0152,4.0053,4.0109,4.0046,3.9893,3.9593,3.9574,4.0272,4.0553,3.9878,3.969,3.9912,3.9939,4.0628,2.0138,2.1366,2.2013,2.2716,2.3454,2.4106,2.48,2.5454,2.6484,2.6867,2.7121,2.7299,2.8526,2.9833,2.9887,3.0478,3.1422,3.2414,3.2805,3.2805,3.3117,3.4169,3.5428,3.6555,3.7475,3.8237,3.8993,3.9249,3.9681,4.0367,4.0822,4.1192,4.1602,4.1859,4.2236,4.2798,4.2979,4.3237,4.3568,4.375,4.4018,4.5194,4.5207,4.4527,4.6673,4.7317,4.6586,4.6515,4.5852,4.4348,4.3823,4.3458,4.3044,4.2038,4.1379,4.1155,4.015,3.942,3.9333,3.9189,3.9011,3.8991,3.9098,3.9152,4.0577,4.0608,4.1155,4.1989,4.2395,4.2284,4.2321,4.227,4.2284,4.2077,4.0262,3.878,3.8623,3.8393,3.832,3.8369,3.8429,3.8563,3.8636,3.8575,3.85,3.8459,3.8535,3.8616,3.9034,3.9706,4.0255,4.0646,4.1082,4.1535,4.1834,4.1756,4.1792,4.2054,4.1462,4.0453,3.9265,3.8101,3.7958,3.7814,3.8604,3.8784,3.8072,3.7668,3.7626,3.8316,3.812,3.8406,3.825,3.8201,3.8985,2.0252,2.1219,2.1888,2.2952,2.4129,2.3897,2.4797,2.6418,2.6334,2.6776,2.7803,2.8047,2.8575,2.9086,2.94,2.9543,2.9839,3.1487,3.2394,3.24,3.2187,3.2403,3.3319,3.4964,3.6608,3.8126,3.8822,3.9445,3.9711,4.0171,4.1076,4.1187,4.1482,4.2246,4.2342,4.3144,4.3103,4.3029,4.3444,4.3536,4.3631,4.4343,4.442,4.4275,4.483,4.5103,4.4797,4.4596,4.3925,4.2399,4.0939,4.0298,3.9902,3.9631,3.961,3.9579,3.9264,3.8993,3.8823,3.8749,3.8729,3.8653,3.8587,3.8763,3.8984,3.9109,3.9256,3.944,3.9388,3.9263,3.9278,3.9351,3.9315,3.8962,3.8586,3.8147,3.7931,3.7948,3.7939,3.8039,3.8117,3.8143,3.8158,3.8205,3.8128,3.8093,3.8078,3.8007,3.8111,3.8205,3.821,3.8453,3.8927,3.9356,3.969,3.9611,3.9582,3.9568,3.8937,3.8209,3.7392,3.7305,3.7291,3.7405,3.7727,3.7668,3.7436,3.7344,3.7309,3.7278,3.738,3.7446,3.7527,3.7475,3.7872,1.9462,2.0238,2.1401,2.25,2.3454,2.3827,2.4632,2.5783,2.6533,2.715,2.778,2.8287,2.8971,2.9564,2.9653,2.9711,2.997,3.1118,3.2051,3.2572,3.2404,3.2686,3.3369,3.4229,3.5434,3.6668,3.7035,3.7461,3.8156,3.8576,3.8963,3.9409,3.9782,4.0146,4.0279,4.058,4.0749,4.0752,4.1017,4.1178,4.1453,4.2415,4.2559,4.2049,4.3591,4.4084,4.3197,4.2094,4.1202,4.0574,3.9846,3.9312,3.9221,3.9094,3.8956,3.8881,3.8701,3.8609,3.8542,3.846,3.8391,3.8474,3.8308,3.8259,3.8393,3.832,3.8307,3.8307,3.8307,3.8307,3.8307,3.8343,3.8169,3.7976,3.7743,3.7597,3.7573,3.7477,3.7471,3.7531,3.7555,3.762,3.7678,3.775,3.7778,3.7785,3.7797,3.7797,3.7792,3.7828,3.7884,3.7903,3.7831,3.7751,3.7707,3.7656,3.759,3.7252,3.6896,3.6662,3.6436,3.6591,3.6729,3.6823,3.6843,3.6779,3.6828,3.6828,3.6893,3.6961,3.6996,3.7032,3.7034,3.6935,3.6801,1.8388,1.9379,2.0826,2.2051,2.2983,2.3968,2.4792,2.561,2.6791,2.7451,2.7861,2.8676,2.9534,3.0172,3.0483,3.0622,3.0819,3.1282,3.1963,3.2611,3.2754,3.3097,3.3653,3.3839,3.4436,3.5387,3.5859,3.6453,3.7157,3.7635,3.7983,3.8296,3.8646,3.8742,3.8951,3.9049,3.921,3.9239,3.9445,3.9547,3.9777,4.0854,4.0939,4.0175,4.1946,4.2665,4.1511,4.0201,3.9556,3.9598,3.9322,3.909,3.8919,3.8709,3.8622,3.8542,3.8427,3.838,3.8369,3.8195,3.8071,3.8071,3.7895,3.7784,3.7895,3.7884,3.79,3.79,3.7872,3.79,3.7892,3.7864,3.775,3.7517,3.7354,3.7322,3.7354,3.7291,3.7157,3.7157,3.7189,3.726,3.7295,3.7235,3.733,3.7389,3.744,3.7475,3.7517,3.7558,3.7606,3.7548,3.7466,3.7382,3.737,3.7283,3.6961,3.6453,3.6238,3.597,3.5913,3.5957,3.6023,3.6104,3.6071,3.6071,3.6064,3.6095,3.6206,3.6312,3.6312,3.6382,3.6487,3.6381,3.6166,1.6915,1.865,2.0397,2.1649,2.2731,2.4303,2.5434,2.6096,2.6893,2.763,2.8176,2.94,3.02,3.0877,3.1311,3.1897,3.2075,3.223,3.2462,3.278,3.279,3.3177,3.381,3.3885,3.4304,3.4983,3.6099,3.6988,3.7535,3.8122,3.8497,3.8674,3.8842,3.8956,3.9064,3.9292,3.9513,3.9598,3.9638,3.9685,3.9667,3.989,3.9964,3.9747,3.9974,4.0044,3.9589,3.9271,3.9131,3.9185,3.9085,3.8893,3.8542,3.8271,3.8173,3.8259,3.8393,3.832,3.8117,3.8012,3.7784,3.7656,3.7415,3.7354,3.7344,3.7385,3.7517,3.7578,3.7482,3.7482,3.7531,3.7446,3.7322,3.7327,3.726,3.7228,3.726,3.7291,3.726,3.7161,3.7093,3.7129,3.7069,3.7006,3.6938,3.7067,3.704,3.7009,3.7099,3.7061,3.709,3.709,3.7058,3.6958,3.6961,3.6863,3.6275,3.5714,3.5519,3.5427,3.5391,3.525,3.5305,3.5299,3.5287,3.5152,3.5145,3.5131,3.5259,3.5299,3.5384,3.5423,3.5485,3.5507,3.5353,1.3717,1.6463,1.9374,2.0926,2.158,2.3908,2.5036,2.5308,2.7111,2.8034,2.8362,2.9829,3.071,3.0988,3.1425,3.2261,3.3433,3.37,3.3885,3.4132,3.419,3.4434,3.4764,3.489,3.5108,3.54,3.6312,3.7083,3.7795,3.846,3.8803,3.8975,3.9135,3.9355,3.9448,3.9509,3.9589,3.9646,3.9748,3.9767,3.9703,3.9788,3.978,3.9653,3.9428,3.9196,3.8936,3.8786,3.8709,3.8685,3.8528,3.8367,3.8198,3.7949,3.7884,3.7895,3.7867,3.7756,3.7714,3.7642,3.7555,3.7385,3.7358,3.7327,3.7291,3.7389,3.7487,3.7482,3.7477,3.7477,3.7446,3.7228,3.7034,3.7034,3.7001,3.6933,3.6901,3.6938,3.6869,3.6765,3.6798,3.6865,3.6866,3.6936,3.6936,3.6831,3.6766,3.6626,3.6592,3.6488,3.6383,3.6558,3.6557,3.6486,3.6381,3.5984,3.5393,3.4992,3.4739,3.4871,3.4851,3.4643,3.4587,3.4578,3.4457,3.4326,3.4217,3.415,3.4105,3.4105,3.4206,3.4359,3.4414,3.4479,3.4313,1.2415,1.4796,1.81,1.9977,2.0928,2.341,2.4987,2.5806,2.7481,2.8264,2.8759,3.0028,3.0959,3.1389,3.195,3.2915,3.4054,3.4425,3.4742,3.496,3.5074,3.52,3.5417,3.5332,3.5427,3.5632,3.6275,3.7118,3.7998,3.8746,3.9131,3.9258,3.9424,3.9572,3.9665,3.9711,3.9705,3.9694,3.9767,3.9786,3.9674,3.9735,3.9588,3.9199,3.884,3.8627,3.8513,3.8161,3.8038,3.8125,3.792,3.7732,3.7684,3.7584,3.7537,3.7441,3.7344,3.7318,3.7354,3.7287,3.722,3.7228,3.7164,3.7097,3.7097,3.7263,3.7327,3.7358,3.7385,3.7256,3.7099,3.6901,3.6662,3.6557,3.6451,3.638,3.6342,3.6306,3.6377,3.6414,3.6487,3.6592,3.6696,3.68,3.6834,3.673,3.6627,3.6522,3.6417,3.6275,3.6202,3.6198,3.608,3.585,3.571,3.5108,3.4556,3.417,3.4041,3.4092,3.3985,3.3764,3.3682,3.367,3.3591,3.3384,3.3289,3.3211,3.3114,3.3066,3.3017,3.3147,3.3352,3.3206,3.309,1.2762,1.3843,1.6504,1.8751,2.0838,2.3023,2.5205,2.7056,2.764,2.8479,2.9458,3.0226,3.1168,3.2291,3.3066,3.3653,3.399,3.4577,3.495,3.5183,3.5286,3.5454,3.5574,3.5275,3.5346,3.5791,3.6345,3.7145,3.8307,3.9044,3.9437,3.9464,3.957,3.9685,3.97,3.9776,3.9744,3.9674,3.9764,3.9733,3.9617,3.9574,3.9104,3.835,3.8035,3.7956,3.793,3.7477,3.7233,3.7441,3.7257,3.7079,3.6926,3.7129,3.7099,3.6901,3.6868,3.6968,3.6961,3.6898,3.6866,3.7034,3.6966,3.6798,3.6831,3.6968,3.7036,3.7102,3.7167,3.7034,3.6662,3.6627,3.638,3.6046,3.5928,3.5859,3.5744,3.5825,3.5821,3.6124,3.6198,3.6271,3.6627,3.6451,3.6522,3.6592,3.6627,3.6522,3.6487,3.6416,3.6269,3.6008,3.5739,3.5279,3.462,3.406,3.3478,3.3034,3.2947,3.3116,3.2966,3.2783,3.276,3.2698,3.2555,3.2411,3.2319,3.2198,3.2014,3.1837,3.1702,3.1889,3.2056,3.1951,3.1844,1.0667,1.2363,1.4165,1.6446,1.9059,2.2435,2.4417,2.5357,2.7067,2.8379,2.9484,3.0866,3.2087,3.3131,3.3847,3.462,3.5393,3.5795,3.6066,3.6244,3.6519,3.6555,3.658,3.6732,3.6757,3.6761,3.7122,3.7676,3.8446,3.9131,3.9549,3.9575,3.9615,3.9694,3.9814,3.9735,3.9689,3.9689,3.9689,3.9512,3.9093,3.8714,3.827,3.7787,3.757,3.737,3.7118,3.7029,3.6896,3.6691,3.6693,3.6592,3.6417,3.6344,3.6306,3.6232,3.6237,3.6168,3.5989,3.6384,3.6694,3.6968,3.7132,3.7099,3.6968,3.7003,3.7003,3.6487,3.7196,3.6874,3.7196,3.7064,3.697,3.6766,3.6696,3.6522,3.638,3.6127,3.6124,3.6342,3.6087,3.5898,3.6195,3.6306,3.6307,3.6487,3.6486,3.638,3.6235,3.5974,3.5782,3.5778,3.542,3.4729,3.3774,3.3051,3.238,3.1911,3.1593,3.15,3.1141,3.1415,3.1544,3.1008,3.1187,3.1049,3.0404,3.0386,3.0367,3.0143,3.0257,3.0596,3.0479,3.0646,3.062,0.9923,1.181,1.3165,1.5929,1.9573,2.2671,2.4886,2.6429,2.7961,2.9286,3.0508,3.1859,3.2937,3.3756,3.4531,3.5338,3.6127,3.6592,3.6811,3.6918,3.7121,3.7196,3.7149,3.7314,3.7353,3.743,3.7656,3.8075,3.8511,3.8333,3.8371,3.8706,3.9433,3.9744,3.9735,3.9712,3.9598,3.945,3.9388,3.9031,3.8459,3.8052,3.7648,3.7212,3.7093,3.6831,3.6558,3.6381,3.6237,3.5912,3.5943,3.5864,3.5632,3.5553,3.544,3.5205,3.5104,3.4989,3.4717,3.5446,3.6069,3.6418,3.7061,3.742,3.7199,3.7231,3.4161,2.8977,2.7459,2.9239,3.194,3.2397,3.3662,3.6345,3.6766,3.6592,3.6483,3.6232,3.62,3.6451,3.6198,3.6158,3.645,3.6449,3.6342,3.6269,3.6378,3.6235,3.5974,3.5898,3.5744,3.5461,3.4824,3.4048,3.2986,3.1902,3.0887,3.0226,2.9939,2.9699,2.9345,2.9531,2.9712,2.9202,2.9287,2.9111,2.8275,2.8641,2.8687,2.8142,2.8379,2.8467,2.8325,2.8586,2.8527,0.9849,1.1884,1.3213,1.657,2.1029,2.3313,2.5983,2.8805,2.9536,3.0561,3.1972,3.2951,3.3664,3.4392,3.5305,3.5991,3.6591,3.7023,3.7291,3.7305,3.7405,3.7535,3.7592,3.7427,3.7456,3.7814,3.7951,3.835,3.8826,3.7289,3.6758,3.744,3.8836,3.9486,3.944,3.9523,3.9451,3.9049,3.8862,3.8438,3.7692,3.7561,3.7224,3.6697,3.6556,3.6378,3.6124,3.571,3.536,3.5082,3.51,3.4965,3.4643,3.4739,3.4511,3.3873,3.3581,3.3333,3.3082,3.3694,3.391,3.4562,3.4891,3.5095,3.4685,3.5445,2.9756,1.8758,1.4396,1.7862,2.3445,2.4407,2.6771,3.195,3.3018,3.4373,3.3239,3.4052,3.4069,3.449,3.2548,3.4309,3.2908,3.2608,3.3398,3.3445,3.5109,3.645,3.6015,3.6161,3.5977,3.3737,3.2527,3.149,3.128,2.9885,2.8087,2.7675,2.7597,2.733,2.706,2.7236,2.7711,2.7242,2.7382,2.7294,2.7117,2.7268,2.6943,2.6328,2.6224,2.6144,2.5906,2.6368,2.6216,0.9372,1.1749,1.3617,1.6258,1.9577,2.3113,2.5675,2.7351,2.8974,3.0917,3.2954,3.3618,3.425,3.5057,3.6033,3.6885,3.7563,3.7998,3.8186,3.8218,3.8511,3.857,3.8453,3.8609,3.859,3.8506,3.8705,3.8937,3.8941,3.7586,3.7005,3.7321,3.7697,3.7823,3.7693,3.8674,3.9111,3.8896,3.8387,3.7831,3.7314,3.7129,3.6868,3.6486,3.6303,3.6042,3.5553,3.5116,3.4663,3.4348,3.4292,3.399,3.348,3.3542,3.3195,3.2268,3.1542,3.0817,2.9956,2.815,2.6485,2.5303,2.3826,2.2109,2.0545,2.3841,2.3306,1.734,1.48,1.5333,1.7183,1.7508,1.8063,1.9545,1.9821,2.0616,1.9875,1.9126,1.888,1.9382,1.8632,1.8598,1.8656,1.8567,2.1125,2.7059,3.2931,3.6557,3.6662,3.6522,3.2954,2.7368,2.2929,2.3269,2.6331,2.4784,2.3169,2.2625,2.3419,2.39,2.3968,2.4765,2.5272,2.4939,2.5087,2.5131,2.4371,2.4591,2.4867,2.4562,2.4813,2.5186,2.4984,2.5243,2.4793,0.8274,1.1822,1.3718,1.5917,1.8512,2.2233,2.5389,2.8184,3.0617,3.2639,3.406,3.4381,3.505,3.5932,3.6698,3.7534,3.8381,3.8598,3.8733,3.8775,3.8978,3.903,3.8991,3.9067,3.9061,3.8975,3.9135,3.9318,3.9121,3.7059,3.6422,3.7167,3.5757,3.5325,3.5931,3.7218,3.777,3.7507,3.6258,3.543,3.5071,3.4897,3.4608,3.4168,3.5432,3.585,3.538,3.5691,3.5379,3.4325,3.4683,3.4341,3.3143,3.2853,3.2322,3.1216,3.0054,2.8994,2.7927,2.5469,2.3328,2.1791,1.8638,1.4107,0.7799,0.8878,0.8787,0.6175,0.5202,0.6217,1.0323,1.0635,1.1945,1.5318,1.597,1.6033,1.582,1.5254,1.5151,1.5356,1.4585,1.4252,1.484,1.4419,1.615,1.9733,2.3646,2.6541,2.6571,2.6761,2.5691,2.3525,2.1602,2.1297,2.1637,2.0441,1.9703,1.9727,2.0412,2.089,2.1286,2.1981,2.2772,2.2852,2.3133,2.3166,2.2756,2.2954,2.2999,2.2871,2.3034,2.3095,2.3095,2.3013,2.2515,0.7211,1.2049,1.3857,1.6156,1.8712,2.1547,2.5402,2.9831,3.1808,3.3632,3.5044,3.5378,3.5998,3.6937,3.7434,3.8146,3.8966,3.9086,3.9149,3.9151,3.9149,3.9213,3.9318,3.9348,3.9369,3.9355,3.9434,3.9539,3.9184,3.6619,3.5744,3.6478,3.3852,3.2936,3.4135,3.5709,3.6307,3.5925,3.4312,3.3419,3.3297,3.3006,3.2464,3.1632,3.4388,3.5648,3.4933,3.6171,3.6043,3.425,3.4676,3.416,3.2437,3.1893,3.1377,3.0487,2.9405,2.8154,2.6656,2.44,2.238,2.0425,1.5631,0.8822,-0.0337,-0.362,-0.5623,-0.6512,-0.668,-0.4731,0.2397,0.361,0.5961,1.195,1.3742,1.4232,1.3178,1.2736,1.2333,1.219,1.2926,1.2053,1.1391,1.1445,1.1592,1.4232,1.6673,1.5815,1.6306,1.4113,1.531,1.9338,2.0682,1.9569,1.6956,1.627,1.6394,1.7271,1.7559,1.8106,1.8775,1.955,2.0249,2.0888,2.1245,2.1394,2.1427,2.1597,2.1535,2.1252,2.1219,2.1145,2.0928,2.0423,2.0102,0.7321,1.1351,1.45,1.8305,2.2403,2.3377,2.6023,2.9386,0.0,0.0,0.0,3.6807,3.7291,3.7883,3.819,3.8733,3.9369,3.9485,3.9545,3.9553,3.9561,3.9561,3.9589,3.9701,3.971,3.9608,3.973,3.981,3.9679,3.7947,3.651,3.5307,3.344,3.2514,3.2775,3.5126,3.618,3.5835,3.64,3.6557,3.6356,3.6093,3.4373,3.1121,3.4118,3.4775,3.2745,3.423,3.4061,3.1831,3.0746,2.9742,2.8803,2.9178,2.9567,2.9978,3.039,2.9353,2.6496,2.4259,2.1254,1.7311,0.9176,0.347,0.1721,-0.078,-0.2949,-0.4776,-0.5903,-0.5801,-0.3971,-0.3719,-0.287,-0.0775,-0.0584,-0.0326,-0.0248,-0.0983,-0.0723,-0.1789,-0.1688,-0.3003,-0.2496,-0.2014,0.0158,0.7904,1.2219,1.56,1.441,0.7145,0.2668,0.5388,0.7612,0.7683,0.8605,1.018,1.1203,1.2516,1.3922,1.5123,1.5843,1.6864,1.7652,1.8056,1.8715,1.9203,1.9284,1.9781,2.0304,2.0271,2.0327,2.0346,2.0159,1.8904,1.7726,0.2826,0.0,1.129,1.4587,0.0,1.6051,1.8486,2.1615,2.0397,2.49,3.2912,3.0067,3.2464,3.8451,3.5629,3.4314,3.4425,3.8161,3.7929,3.4681,3.817,3.9799,3.9748,3.981,3.9795,3.9674,3.975,3.9748,3.9658,3.8183,3.7004,3.6255,3.362,3.1869,3.0987,3.3033,3.5031,3.6922,3.579,3.4999,3.4779,3.4458,3.3615,3.2443,3.5066,0.0,0.0,0.0,0.0,0.0,0.0,0.0,0.0,0.0,0.0,2.7216,2.5625,2.3494,2.0721,1.8548,1.6505,1.4624,0.8519,0.4474,0.3709,0.0084,-0.2472,-0.3436,-0.5169,-0.6082,-0.5834,-0.5477,-0.5122,-0.4867,-0.4526,-0.4352,-0.4517,-0.4776,-0.5122,-0.5295,-0.5817,-0.6254,-0.6162,-0.5812,-0.3372,0.1209,0.4177,0.5623,0.5551,0.1631,-0.1219,-0.0174,0.1909,0.4167,0.5909,0.7443,0.8883,0.9897,1.1478,1.2804,1.3644,1.4789,1.579,1.6264,1.6911,1.7425,1.7463,1.7832,1.8296,1.826,1.839,1.8502,1.8037,1.724,1.6531,-0.2783,-0.338,0.6668,0.9311,0.6748,0.644,0.8648,1.2593,1.3799,1.9197,2.687,2.3527,2.7097,3.5256,3.1936,2.9428,2.8179,3.511,3.5218,2.9909,3.6861,3.9978,3.9885,3.9849,3.981,3.9693,3.9673,3.9683,3.9655,3.843,3.7712,3.7452,3.4633,3.2297,3.0669,0.0,0.0,0.0,3.4918,3.3586,3.3247,3.294,3.2999,3.3493,3.6052,0.0,3.8822,4.0165,4.0085,3.8321,3.7721,0.0,0.0,0.0,0.0,0.0,0.0,0.0,0.0,0.0,0.0,0.0,0.9773,0.7072,0.5657,0.161,-0.1443,-0.2441,-0.4594,-0.5758,-0.5479,-0.483,-0.4539,-0.466,-0.3941,-0.3585,-0.4043,-0.4191,-0.4348,-0.4694,-0.4963,-0.5137,-0.5045,-0.4785,-0.4435,-0.3637,-0.3835,-0.3488,-0.2338,-0.0867,-0.0087,0.0174,0.252,0.4612,0.4963,0.6426,0.7792,0.8466,0.9747,1.1051,1.2052,1.304,1.3975,1.4791,1.5348,1.5753,1.5781,1.6092,1.6435,1.6374,1.6595,1.6546,1.5806,1.5724,1.5828,-0.7108,-0.4656,0.2023,0.555,0.6091,-0.0799,0.037,0.7124,0.7693,1.2241,1.9566,2.5218,2.6316,2.4285,2.8375,2.7578,2.3377,2.9389,3.1742,3.1241,3.7198,4.0053,4.0016,3.9926,3.9856,3.9822,3.9817,3.9818,3.9814,3.9603,3.8832,3.7535,3.6871,3.5675,3.4089,3.5521,3.5606,3.4243,3.604,3.6618,3.6035,3.5967,3.4916,3.3052,3.6319,3.7652,3.6693,3.9554,3.9573,3.619,3.4981,3.3661,3.2084,3.1473,2.9576,0.0,2.6039,0.0,0.0,0.0,0.0,0.0,0.0,0.0,0.0,0.6236,0.3063,-0.211,-0.3917,-0.4477,-0.3528,-0.3083,-0.2473,-0.1643,-0.1158,-0.0974,-0.146,-0.1688,-0.2434,-0.3998,-0.3915,-0.427,-0.5223,-0.453,-0.3835,-0.3665,-0.3061,-0.2279,-0.1398,-0.0786,-0.035,-0.0262,0.2354,0.4274,0.453,0.592,0.7114,0.7357,0.8466,0.9587,1.0765,1.1387,1.1987,1.2731,1.3599,1.4256,1.4598,1.5233,1.5621,1.5621,1.5826,1.5691,1.4967,1.4779,1.474,-1.2161,-1.3062,-0.3031,-0.0059,-0.2222,-0.5291,-0.3834,0.0546,0.0313,0.3454,0.9252,1.5628,2.1577,2.6685,2.5986,2.392,2.1316,2.4587,2.4022,2.0644,2.7057,3.0121,3.0107,3.0083,3.0,3.0037,3.3274,3.4813,3.5062,3.8164,3.9458,3.8794,3.7775,3.5924,3.3534,3.6667,3.7806,3.6785,3.7699,3.7841,3.7224,3.7462,3.7574,3.741,3.9077,4.0095,4.0611,4.1445,4.1053,3.9448,3.7922,3.6743,3.574,3.0516,2.6962,0.0,0.0,0.0,0.0,0.0,0.0,0.0,0.0,0.0,0.0,0.0,0.6091,0.0128,-0.1749,-0.2408,-0.1848,-0.1735,-0.1399,-0.0946,-0.159,-0.1769,-0.1032,-0.1561,-0.2329,-0.3386,-0.3351,-0.3662,-0.4621,-0.4009,-0.3401,-0.3401,-0.2421,-0.1629,-0.1232,-0.1048,-0.0436,0.0785,0.2177,0.3401,0.4526,0.5828,0.6942,0.7278,0.8133,0.9002,0.9632,1.0188,1.0747,1.1322,1.1961,1.2508,1.3028,1.3725,1.4283,1.4399,1.4447,1.4409,1.3982,1.4113,1.4299,-1.6783,-1.9041,-0.7887,-0.5419,-0.8928,-0.7922,-0.632,-0.4556,-0.4999,-0.3031,0.1105,0.6912,1.5809,2.636,2.1971,1.9561,1.8968,2.1046,1.9862,1.6468,2.1701,2.4243,2.4144,2.2859,2.2168,2.2334,2.66,2.9484,3.1074,3.5451,3.7738,3.7969,3.6774,3.5066,3.3074,3.6505,3.8612,3.9212,3.9234,3.8836,3.7892,3.8407,3.947,4.1045,4.1451,4.244,4.4098,4.3291,4.2738,4.2536,4.0291,3.8731,3.7951,2.9219,0.0,0.0,0.0,0.0,0.0,0.0,0.0,0.0,0.0,1.3067,0.8636,0.0,0.7873,0.0,0.0614,0.0389,0.1653,0.0913,0.0,0.0,-0.1122,-0.1847,-0.0801,-0.1234,-0.1909,-0.2659,-0.2756,-0.2996,-0.3665,-0.3251,-0.2839,-0.26,-0.1944,-0.1491,-0.1342,-0.1245,-0.0532,0.1138,0.1583,0.2376,0.4282,0.5345,0.6197,0.7316,0.7948,0.8477,0.9108,0.9616,1.0219,1.0788,1.1166,1.1506,1.2215,1.2753,1.3237,1.3488,1.3622,1.3786,1.3786,1.4077,1.4266,-2.0071,-1.7631,-1.2294,-0.9716,-0.9236,-0.8173,-0.728,-0.6518,-0.5971,-0.4418,-0.1725,0.435,0.9667,1.4144,1.4674,0.0,1.5057,1.968,2.4201,2.9026,2.9801,3.0218,2.9937,2.4731,2.2341,2.2244,2.2806,2.5763,3.0684,3.1419,3.2032,3.2855,3.2867,3.344,3.4526,3.4955,3.6457,3.9044,4.0311,4.0123,3.8283,3.9014,3.9847,4.0841,4.2159,4.336,4.4382,4.4166,4.3751,4.2952,3.8935,3.5961,3.4359,0.0,0.0,0.0,0.0,0.0,0.0,0.0,0.0,0.0,0.0,0.0,0.0,0.0,0.0,0.0,0.2694,0.0,0.8677,0.5913,0.0,0.0,0.0,0.1016,0.0144,0.015,-0.0311,-0.1554,0.0,0.0,-0.2537,-0.2432,-0.196,-0.1256,-0.134,-0.1411,-0.1112,-0.0839,-0.0647,0.0442,0.0271,0.1003,0.3285,0.3869,0.4713,0.6866,0.7057,0.7802,0.9457,1.0035,1.0489,1.1453,1.1752,1.2057,1.2802,1.2998,1.3176,1.3664,1.4332,1.4761,1.4716,1.4956,1.5081,-1.9865,-1.5291,-1.1252,-0.848,-0.6843,-0.746,-0.71,-0.5985,-0.5859,-0.4232,-0.1303,0.3592,0.817,1.2393,1.4553,0.0,0.0,0.0,1.6424,1.9838,2.2607,2.2598,2.0226,1.8447,1.5627,1.2117,1.6507,2.1073,2.5686,2.9802,2.8965,2.3425,0.0,0.0,2.5925,3.0796,3.4404,3.6479,3.898,3.9696,3.8564,3.8843,3.9833,4.1609,4.3426,4.4523,4.498,4.43,4.2472,3.9373,3.7082,3.3958,0.0,0.0,0.0,0.0,0.0,0.0,0.0,0.0,0.0,0.0,0.0,1.4158,1.0782,0.0,0.0,0.0,0.3767,0.4047,0.5957,0.6359,0.0,0.0,0.0,0.0,0.0,0.0,0.0,-0.0,-0.0243,-0.0664,-0.1344,-0.0544,-0.0192,-0.088,0.0404,0.1215,0.0483,0.0,0.2372,0.4033,0.304,0.2287,0.291,0.3646,0.4922,0.6961,0.7606,0.8289,0.9454,0.9606,0.9932,1.0618,1.1027,1.153,1.2191,1.2938,1.3593,1.3775,1.4175,1.4514,1.4514,1.4734,1.4931,-1.8541,0.0,0.0,0.0,0.0,-0.6504,-0.6323,-0.4854,-0.546,-0.3952,-0.0736,0.3531,0.0,0.0,0.0,0.0,0.0,0.0,1.5604,1.8955,2.0874,1.9745,1.6138,1.499,1.143,0.6086,1.2524,1.7342,2.068,2.6188,2.5452,1.8729,0.0,0.0,0.0,0.0,3.2721,3.482,3.8909,4.0328,3.8936,3.8762,3.9852,4.2354,4.4488,4.5626,4.5599,4.3904,4.1206,3.7369,3.4108,0.0,0.0,0.0,0.0,0.0,0.0,0.0,0.0,0.0,0.0,0.0,0.0,0.0,0.0,0.0,0.0,0.0,0.0,0.0,0.4939,0.6793,0.7682,0.0,0.0,0.0,0.0,0.0,0.0,0.0,0.0,0.0,0.1115,0.1892,0.2064,0.0,0.0,0.3297,0.3014,0.3852,0.5105,0.6775,0.4443,0.0,0.3553,0.4849,0.5854,0.6487,0.7397,0.8175,0.859,0.9252,0.9737,1.0099,1.0697,1.1499,1.2213,1.3133,1.3838,1.3983,1.4186,1.4399,1.4422,1.4647,1.5024,0.0,0.0,0.0,0.0,0.0,0.0,0.0,0.0,-0.4756,-0.3763,0.0,0.4215,0.0,0.0,0.0,0.0,0.0,2.2151,0.0,0.0,2.9338,2.6126,2.2599,1.7019,1.2075,0.8257,1.2073,1.4966,1.6588,1.9345,0.0,0.0,0.0,0.0,0.0,0.0,3.1513,3.4611,4.0929,4.2707,3.9547,3.8956,4.0069,4.2872,4.5273,4.6365,4.6089,4.2853,4.0202,3.8156,2.9599,0.0,0.0,0.0,0.0,0.0,0.0,0.0,0.0,0.0,0.0,0.0,0.0,0.0,0.0,0.0,0.0,0.0,0.0,0.0,0.0,0.7944,0.0,0.0,0.0,0.0,0.0,0.0,0.0,0.0,0.0,0.0,0.5135,0.4937,0.4798,0.5315,0.0,0.0,0.0,0.0,0.6924,0.6948,0.3064,0.1537,0.5468,0.7117,0.723,0.5029,0.0,0.0,0.7244,0.8964,1.0187,1.0156,1.1103,1.2242,1.3086,1.3578,1.3914,1.4263,1.4344,1.4752,1.4814,1.5059,1.5649,0.0,0.0,0.0,0.0,0.0,0.0,0.0,0.0,0.0,-0.0627,0.0,0.6089,0.0,0.0,0.0,0.0,0.0,0.0,0.0,0.0,2.7726,2.6298,2.1668,2.1079,1.7267,0.0,1.3478,1.3897,0.0,0.0,0.0,0.0,0.0,0.0,0.0,0.0,2.9387,3.1751,3.9172,4.1898,3.9489,3.9036,4.0177,4.2718,4.3661,4.3419,4.1852,4.0391,3.7941,0.0,0.0,0.0,0.0,0.0,0.0,0.0,0.0,0.0,0.0,0.0,0.0,0.0,0.0,0.0,0.0,0.0,0.0,0.0,0.0,0.0,0.0,0.0,0.9962,0.0,0.0,0.0,0.0,0.0,0.0,0.0,0.0,0.0,0.5279,0.6266,0.6388,0.5291,0.6357,0.6943,0.6407,0.0,0.0,0.0,0.0,0.0,0.0,0.0,0.602,0.5902,0.6215,0.6584,0.6863,0.8193,0.9295,0.9163,0.0,0.0,1.1947,1.2003,1.21,1.2179,1.2294,1.2531,1.3085,1.3437,1.3553,0.0,0.0,0.0,0.0,0.0,0.0,0.0,0.0,0.0,0.3303,0.3362,0.0,0.0,0.0,0.0,0.0,0.0,0.0,0.0,0.0,0.0,0.0,2.1113,2.1552,0.0,0.0,0.0,0.0,0.0,0.0,0.0,0.0,0.0,0.0,0.0,0.0,2.8812,3.0294,3.8643,4.1957,3.9481,3.919,4.0364,4.3023,4.3028,4.1939,3.9845,0.0,0.0,0.0,0.0,0.0,0.0,0.0,0.0,0.0,0.0,0.0,0.0,0.0,0.0,0.0,0.0,0.0,0.0,0.0,0.0,0.0,0.0,0.0,0.0,0.0,1.0945,0.0,0.0,0.0,0.0,0.0,0.0,0.0,0.0,0.0,0.0,0.0,0.7494,0.6567,0.8206,0.8853,0.7211,0.6943,0.6674,0.0,0.0,0.0,0.0,0.0,0.0,0.0,0.0,0.0,0.0,0.0,0.0,0.0,0.0,1.2314,1.1358,1.1304,1.1417,1.1553,0.0,0.0,0.0,0.0,0.0,0.0,0.0,0.0,0.0,0.0,0.0,0.0,0.0,0.0,0.0,0.0,0.0,0.0,0.5366,0.0,0.0,0.0,0.0,0.0,0.0,0.0,0.0,0.0,0.0,0.0,0.0,0.0,0.0,0.0,0.0,0.0,0.0,0.0,0.0,0.0,0.0,2.9958,3.0109,3.9672,4.3049,3.9861,3.9284,4.0578,4.3558,4.3496,4.2462,4.0436,0.0,0.0,0.0,0.0,0.0,0.0,0.0,0.0,0.0,0.0,0.0,0.0,0.0,0.0,0.0,0.0,0.0,0.0,0.0,0.0,0.0,0.0,0.0,0.0,0.0,0.0,1.0651,1.1335,1.25,0.0,0.0,0.0,0.0,0.0,0.0,0.0,0.0,0.0,0.0,0.991,0.9845,0.8939,0.9303,0.8661,0.5867,0.5712,0.647,0.8229,0.8836,0.9196,0.0,0.0,0.0,0.0,0.0,0.0,0.0,0.0,0.0,0.0,0.0,0.0,0.0,0.0,0.0,0.0,0.0,0.0,0.0,0.0,0.0,0.0,0.0,0.0,0.0,0.0,0.0,0.0,0.0,0.0,0.0,0.0,0.0,0.0,0.0,0.0,0.0,0.0,0.0,0.0,0.0,0.0,0.0,0.0,0.0,0.0,0.0,0.0,0.0,0.0,0.0,0.0,0.0,0.0,3.052,3.1714,4.036,4.3729,4.1477,4.0053,4.0732,4.3581,4.3642,4.2574,0.0,0.0,0.0,0.0,0.0,0.0,0.0,0.0,0.0,0.0,0.0,0.0,0.0,0.0,0.0,0.0,0.0,0.0,0.0,0.0,0.0,0.0,0.0,0.0,0.0,0.0,0.0,0.0,1.567,1.4985,1.5419,0.0,0.0,0.0,0.0,0.0,0.0,0.0,0.0,0.0,0.0,1.165,1.0532,0.9734,0.9276,0.9121,0.7602,0.6919,0.8063,0.8554,0.9077,1.0219,0.0,0.0,0.0,0.0,0.0,0.0,0.0,0.0,0.0,0.0,0.0,0.0,0.0,0.0,0.0,0.0,0.0,0.0,0.0,0.0,0.0,0.0,0.0,0.0,0.0,0.0,0.0,0.0,0.0,0.0,0.0,0.0,0.0,0.0,0.0,0.0,0.0,0.0,0.0,0.0,0.0,0.0,0.0,0.0,0.0,0.0,0.0,0.0,0.0,0.0,0.0,0.0,0.0,3.0771,3.2552,4.0587,4.3965,4.2288,4.0452,4.089,4.3918,4.3898,4.1989,0.0,0.0,0.0,0.0,0.0,0.0,0.0,0.0,0.0,0.0,0.0,0.0,0.0,0.0,0.0,0.0,0.0,0.0,0.0,0.0,0.0,0.0,0.0,0.0,0.0,0.0,0.0,0.0,1.678,1.5968,1.5994,0.0,0.0,0.0,0.0,0.0,0.0,0.0,0.0,0.0,0.0,1.3773,1.1637,1.1433,0.0,0.0,1.0675,0.9633,0.9802,1.0685,1.1254,1.1238,1.1292,0.0,0.0,0.0,0.0,0.0,0.0,0.0,0.0,0.0,0.0,0.0,0.0,0.0,0.0,0.0,0.0,0.0,0.0,0.0,0.0,0.0,0.0,0.0,0.0,0.0,0.0,0.0,0.0,0.0,0.0,0.0,0.0,0.0,0.0,0.0,0.0,0.0,0.0,0.0,0.0,0.0,0.0,0.0,0.0,0.0,0.0,0.0,0.0,0.0,0.0,0.0,0.0,0.0,3.2829,4.0739,4.4192,4.2557,4.0626,4.1129,4.4197,4.4219,4.0906,0.0,0.0,0.0,0.0,0.0,0.0,0.0,0.0,0.0,0.0,0.0,0.0,0.0,0.0,0.0,0.0,0.0,0.0,0.0,0.0,0.0,0.0,0.0,0.0,0.0,0.0,0.0,0.0,0.0,0.0,0.0,0.0,0.0,0.0,0.0,0.0,0.0,0.0,0.0,0.0,0.0,1.6114,1.2802,1.4164,1.5369,0.0,0.0,1.3824,1.2898,1.4522,1.4998,1.2635,0.0,0.0,0.0,0.0,0.0,0.0,0.0,0.0,0.0,0.0,0.0,0.0,0.0,0.0,0.0,0.0,0.0,0.0,0.0,0.0,0.0,0.0,0.0,0.0,0.0,0.0,0.0,0.0,0.0,0.0,0.0,0.0,0.0,0.0,0.0,0.0,0.0,0.0,0.0,0.0,0.0,0.0,0.0,0.0,0.0,0.0,0.0,0.0,0.0,0.0,0.0,0.0,0.0,0.0,3.4465,4.255,4.5894,4.4129,4.2295,4.2246,4.4087,4.3969,0.0,0.0,0.0,0.0,0.0,0.0,0.0,0.0,0.0,0.0,0.0,0.0,0.0,0.0,0.0,0.0,0.0,0.0,0.0,0.0,0.0,0.0,0.0,0.0,0.0,0.0,0.0,1.5861,0.0,0.0,0.0,0.0,0.0,0.0,0.0,0.0,0.0,0.0,0.0,0.0,0.0,0.0,1.8083,1.7006,1.6814,1.7644,0.0,0.0,1.6187,1.6114,1.6526,1.653,0.0,0.0,0.0,0.0,0.0,0.0,0.0,0.0,0.0,0.0,0.0,0.0,0.0,0.0,0.0,0.0,0.0,0.0,0.0,0.0,0.0,0.0,0.0,0.0,0.0,0.0,0.0,0.0,0.0,0.0,0.0,0.0,0.0,0.0,0.0,0.0,0.0,0.0,0.0,0.0,0.0,0.0,0.0,0.0,0.0,0.0,0.0,0.0,0.0,0.0,0.0,0.0,0.0,0.0,3.1117,3.5039,4.106,4.4661,4.5669,4.4015,4.3745,4.5188,4.5009,4.1469,0.0,0.0,0.0,0.0,0.0,0.0,0.0,0.0,0.0,0.0,0.0,0.0,0.0,0.0,0.0,0.0,0.0,0.0,0.0,0.0,0.0,0.0,0.0,0.0,0.0,0.0,0.0,0.0,0.0,0.0,0.0,0.0,0.0,0.0,0.0,0.0,0.0,0.0,0.0,0.0,0.0,0.0,2.0331,1.9712,0.0,0.0,0.0,1.9857,1.9464,0.0,0.0,0.0,0.0,0.0,0.0,0.0,0.0,0.0,0.0,0.0,0.0,0.0,0.0,0.0,0.0,0.0,0.0,0.0,0.0,0.0,0.0,0.0,0.0,0.0,0.0,0.0,0.0,0.0,0.0,0.0,0.0,0.0,0.0,0.0,0.0,0.0,0.0,0.0,0.0,0.0,0.0,0.0,0.0,0.0,0.0,0.0,0.0,0.0,0.0,0.0,0.0,0.0,0.0,0.0,0.0,0.0,3.485,3.8935,4.3037,4.6911,4.5645,4.5395,4.6569,4.65,4.2436,0.0,0.0,0.0,0.0,0.0,0.0,0.0,0.0,0.0,0.0,0.0,0.0,0.0,0.0,0.0,0.0,0.0,0.0,0.0,0.0,0.0,0.0,0.0,0.0,0.0,0.0,0.0,0.0,0.0,0.0,0.0,0.0,0.0,0.0,0.0,0.0,0.0,0.0,0.0,0.0,0.0,2.7888,2.3708,2.2935,2.3155,0.0,0.0,2.394,2.2807,2.361,0.0,0.0,0.0,0.0,0.0,0.0,0.0,0.0,0.0,0.0,0.0,0.0,0.0,0.0,0.0,0.0,0.0,0.0,0.0,0.0,0.0,0.0,0.0,0.0,0.0,0.0,0.0,0.0,0.0,0.0,0.0,0.0,0.0,0.0,0.0,0.0,0.0,0.0,0.0,0.0,0.0,0.0,0.0,0.0,0.0,0.0,0.0,0.0,0.0,0.0,0.0,0.0,0.0,0.0,0.0,0.0,3.5072,4.338,4.7603,4.7224,4.6801,4.6551,4.6642,4.6347,4.2276,0.0,0.0,0.0,0.0,0.0,0.0,0.0,0.0,0.0,0.0,0.0,0.0,0.0,0.0,0.0,0.0,0.0,0.0,0.0,0.0,0.0,0.0,0.0,0.0,0.0,0.0,0.0,0.0,0.0,0.0,0.0,0.0,0.0,0.0,0.0,0.0,0.0,0.0,0.0,0.0,0.0,2.9049,2.9445,2.8009,0.0,0.0,0.0,0.0,2.5367,2.5402,0.0,0.0,0.0,0.0,0.0,0.0,0.0,0.0,0.0,0.0,0.0,0.0,0.0,0.0,0.0,0.0,0.0,0.0,0.0,0.0,0.0,0.0,0.0,0.0,0.0,0.0,0.0,0.0,0.0,0.0,0.0,0.0,0.0,0.0,0.0,0.0,0.0,0.0,0.0,0.0,0.0,0.0,0.0,0.0,0.0,0.0,0.0,0.0,0.0,0.0,0.0,0.0,0.0,0.0,0.0,0.0,3.8333,4.3463,4.6849,4.8288,4.8258,4.7984,4.7608,4.74,4.3003,0.0,0.0,0.0,0.0,0.0,0.0,0.0,0.0,0.0,0.0,0.0,0.0,0.0,0.0,0.0,0.0,0.0,0.0,0.0,0.0,0.0,0.0,0.0,0.0,0.0,0.0,0.0,0.0,0.0,0.0,0.0,0.0,0.0,0.0,0.0,0.0,0.0,0.0,0.0,0.0,3.2068,3.2089,3.2057,0.0,0.0,0.0,0.0,0.0,0.0,2.79,2.7176,0.0,0.0,0.0,0.0,0.0,0.0,0.0,0.0,0.0,0.0,0.0,0.0,0.0,0.0,0.0,0.0,0.0,0.0,0.0,0.0,0.0,0.0,0.0,0.0,0.0,0.0,0.0,0.0,0.0,0.0,0.0,0.0,0.0,0.0,0.0,0.0,0.0,0.0,0.0,0.0,0.0,0.0,0.0,0.0,0.0,0.0,0.0,0.0,0.0,0.0,0.0,0.0,0.0,0.0,0.0,4.125,4.2203,4.4836,4.9387,4.944,4.9129,4.8608,4.8571,4.3997,3.4713,0.0,0.0,0.0,0.0,0.0,0.0,0.0,0.0,0.0,0.0,0.0,0.0,0.0,0.0,0.0,0.0,0.0,0.0,0.0,0.0,0.0,0.0,0.0,0.0,0.0,0.0,0.0,0.0,0.0,0.0,0.0,0.0,0.0,0.0,0.0,0.0,0.0,0.0,0.0,3.4115,3.5148,0.0,0.0,0.0,0.0,0.0,0.0,0.0,0.0,2.9637,0.0,0.0,0.0,0.0,0.0,0.0,0.0,0.0,0.0,0.0,0.0,0.0,0.0,0.0,0.0,0.0,0.0,0.0,0.0,0.0,0.0,0.0,0.0,0.0,0.0,0.0,0.0,0.0,0.0,0.0,0.0,0.0,0.0,0.0,0.0,0.0,0.0,0.0,0.0,0.0,0.0,0.0,0.0,0.0,0.0,0.0,0.0,0.0,0.0,0.0,0.0,0.0,0.0,0.0,0.0,0.0,4.2193,4.6014,4.9387,4.944,4.911,4.8608,4.8582,4.4438,3.5895,0.0,0.0,0.0,0.0,0.0,0.0,0.0,0.0,0.0,0.0,0.0,0.0,0.0,0.0,0.0,0.0,0.0,0.0,0.0,0.0,0.0,0.0,0.0,0.0,0.0,0.0,0.0,0.0,0.0,0.0,0.0,0.0,0.0,0.0,0.0,0.0,0.0,0.0,2.986,3.3117,0.0,0.0,0.0,0.0,0.0,0.0,0.0,0.0,3.0632,0.0,0.0,0.0,0.0,0.0,0.0,0.0,0.0,0.0,0.0,0.0,0.0,0.0,0.0,0.0,0.0,0.0,0.0,0.0,0.0,0.0,0.0,0.0,0.0,0.0,0.0,0.0,0.0,0.0,0.0,0.0,0.0,0.0,0.0,0.0,0.0,0.0,0.0,0.0,0.0,0.0,0.0,0.0,0.0,0.0,0.0,0.0,0.0,0.0,0.0,0.0,0.0,0.0,0.0,0.0,0.0,0.0,0.0,4.6203,4.9403,4.937,4.9034,4.8457,4.6883,4.3176,0.0,0.0,0.0,0.0,0.0,0.0,0.0,0.0,0.0,0.0,0.0,0.0,0.0,0.0,0.0,0.0,0.0,0.0,0.0,0.0,0.0,0.0,0.0,0.0,0.0,0.0,0.0,0.0,0.0,0.0,0.0,0.0,0.0,0.0,0.0,0.0,0.0,0.0,0.0,0.0,0.0,0.0,0.0,0.0,0.0,0.0,0.0,0.0,0.0,0.0,0.0,0.0,0.0,0.0,0.0,0.0,0.0,0.0,0.0,0.0,0.0,0.0,0.0,0.0,0.0,0.0,0.0,0.0,0.0,0.0,0.0,0.0,0.0,0.0,0.0,0.0,0.0,0.0,0.0,0.0,0.0,0.0,0.0,0.0,0.0,0.0,0.0,0.0,0.0,0.0,0.0,0.0,0.0,0.0,0.0,0.0,0.0,0.0,0.0,0.0,0.0,0.0,0.0,0.0,0.0,0.0,0.0,0.0,4.5855,4.9427,4.9317,4.8954,4.8415,4.5384,4.1977,0.0,0.0,0.0,0.0,0.0,0.0,0.0,0.0,0.0,0.0,0.0,0.0,0.0,0.0,0.0,0.0,0.0,0.0,0.0,0.0,0.0,0.0,0.0,0.0,0.0,0.0,0.0,0.0,0.0,0.0,0.0,0.0,0.0,0.0,0.0,0.0,0.0,0.0,0.0,0.0,0.0,0.0,0.0,0.0,0.0,0.0,0.0,0.0,3.3502,0.0,0.0,0.0,0.0,0.0,0.0,0.0,0.0,0.0,0.0,0.0,0.0,0.0,0.0,0.0,0.0,0.0,0.0,0.0,0.0,0.0,0.0,0.0,0.0,0.0,0.0,0.0,0.0,0.0,0.0,0.0,0.0,0.0,0.0,0.0,0.0,0.0,0.0,0.0,0.0,0.0,0.0,0.0,0.0,0.0,0.0,0.0,0.0,0.0,0.0,0.0,0.0,0.0,0.0,0.0,0.0,0.0,0.0,0.0,4.4892,4.9458,4.9344,4.9019,4.8508,4.5444,4.2025,0.0,0.0,0.0,0.0,0.0,0.0,0.0,0.0,0.0,0.0,0.0,0.0,0.0,0.0,0.0,0.0,0.0,0.0,0.0,0.0,0.0,0.0,0.0,0.0,0.0,0.0,0.0,0.0,0.0,0.0,0.0,0.0,0.0,0.0,0.0,0.0,0.0,0.0,0.0,0.0,0.0,0.0,0.0,0.0,0.0,0.0,0.0,0.0,0.0,0.0,0.0,0.0,0.0,0.0,0.0,0.0,0.0,0.0,0.0,0.0,0.0,0.0,0.0,0.0,0.0,0.0,0.0,0.0,0.0,0.0,0.0,0.0,0.0,0.0,0.0,0.0,0.0,0.0,0.0,0.0,0.0,0.0,0.0,0.0,0.0,0.0,0.0,0.0,0.0,0.0,0.0,0.0,0.0,0.0,0.0,0.0,0.0,0.0,0.0,0.0,0.0,0.0,0.0,0.0,0.0,0.0,0.0,0.0,4.2758,4.6558,4.8386,4.8623,4.7277,4.3082,4.0042,0.0,0.0,0.0,0.0,0.0,0.0,0.0,0.0,0.0,0.0,0.0,0.0,0.0,0.0,0.0,0.0,0.0,0.0,0.0,0.0,0.0,0.0,0.0,0.0,0.0,0.0,0.0,0.0,0.0,0.0,0.0,0.0,0.0,0.0,0.0,0.0,0.0,0.0,0.0,0.0,0.0,0.0,0.0,0.0,0.0,0.0,0.0,0.0,0.0,0.0,0.0,0.0,0.0,0.0,0.0,0.0,0.0,0.0,0.0,0.0,0.0,0.0,0.0,0.0,0.0,0.0,0.0,0.0,0.0,0.0,0.0,0.0,0.0,0.0,0.0,0.0,0.0,0.0,0.0,0.0,0.0,0.0,0.0,0.0,0.0,0.0,0.0,0.0,0.0,0.0,0.0,0.0,0.0,0.0,0.0,0.0,0.0,0.0,0.0,0.0,0.0,0.0,0.0,0.0,0.0,0.0,0.0,0.0,0.0,4.3932,4.7451,4.8156,4.5665,4.1125,3.808,0.0,0.0,0.0,0.0,0.0,0.0,0.0,0.0,0.0,0.0,0.0,0.0,0.0,0.0,0.0,0.0,0.0,0.0,0.0,0.0,0.0,0.0,0.0,0.0,0.0,0.0,0.0,0.0,0.0,0.0,0.0,0.0,0.0,0.0,0.0,0.0,0.0,0.0,0.0,0.0,0.0,0.0,0.0,0.0,0.0,0.0,0.0,0.0,0.0,0.0,0.0,0.0,0.0,0.0,0.0,0.0,0.0,0.0,0.0,0.0,0.0,0.0,0.0,0.0,0.0,0.0,0.0,0.0,0.0,0.0,0.0,0.0,0.0,0.0,0.0,0.0,0.0,0.0,0.0,0.0,0.0,0.0,0.0,0.0,0.0,0.0,0.0,0.0,0.0,0.0,0.0,0.0,0.0,0.0,0.0,0.0,0.0,0.0,0.0,0.0,0.0,0.0,0.0,0.0,0.0,0.0,0.0,0.0,0.0,4.2313,4.6786,4.7447,4.4113,4.0634,3.658,0.0,0.0,0.0,0.0,0.0,0.0,0.0,0.0,0.0,0.0,0.0,0.0,0.0,0.0,0.0,0.0,0.0,0.0,0.0,0.0,0.0,0.0,0.0,0.0,0.0,0.0,0.0,0.0,0.0,0.0,0.0,0.0,0.0,0.0,0.0,0.0,0.0,0.0,0.0,0.0,0.0,0.0,0.0,0.0,0.0,0.0,0.0,0.0,0.0,0.0,0.0,0.0,0.0,0.0,0.0,0.0,0.0,0.0,0.0,0.0,0.0,0.0,0.0,0.0,0.0,0.0,0.0,0.0,0.0,0.0,0.0,0.0,0.0,0.0,0.0,0.0,0.0,0.0,0.0,0.0,0.0,0.0,0.0,0.0,0.0,0.0,0.0,0.0,0.0,0.0,0.0,0.0,0.0,0.0,0.0,0.0,0.0,0.0,0.0,0.0,0.0,0.0,0.0,0.0,0.0,0.0,0.0,0.0,0.0,3.6178,4.0573,4.2338,4.0774,3.7546,3.4941,3.3044,0.0,0.0,0.0,0.0,0.0,0.0,0.0,0.0,0.0,0.0,0.0,0.0,0.0,0.0,0.0,0.0,0.0,0.0,0.0,0.0,0.0,0.0,0.0,0.0,0.0,0.0,0.0,0.0,0.0,0.0,0.0,0.0,0.0,0.0,0.0,0.0,0.0,0.0,0.0,0.0,0.0,0.0,0.0,0.0,0.0,0.0,0.0,0.0,0.0,0.0,0.0,0.0,0.0,0.0,0.0,0.0,0.0,0.0,0.0,0.0,0.0,0.0,0.0,0.0,0.0,0.0,0.0,0.0,0.0,0.0,0.0,0.0,0.0,0.0,0.0,0.0,0.0,0.0,0.0,0.0,0.0,0.0,0.0,0.0,0.0,0.0,0.0,0.0,0.0,0.0,0.0,0.0,0.0,0.0,0.0,0.0,0.0,0.0,0.0,0.0,0.0,0.0,0.0,0.0,0.0,0.0,0.0,0.0,3.4412,3.8634,4.0293,3.9009,3.6804,3.4434,0.0,0.0,0.0,0.0,0.0,0.0,0.0,0.0,0.0,0.0,0.0,0.0,0.0,0.0,0.0,0.0,0.0,0.0,0.0,0.0,0.0,0.0,0.0,0.0,0.0,0.0,0.0,0.0,0.0,0.0,0.0,0.0,0.0,0.0,0.0,0.0,0.0,0.0,0.0,0.0,0.0,0.0,0.0,0.0,0.0,0.0,0.0,0.0,0.0,0.0,0.0,0.0,0.0,0.0,0.0,0.0,0.0,0.0,0.0,0.0,0.0,0.0,0.0,0.0,0.0,0.0,0.0,0.0,0.0,0.0,0.0,0.0,0.0,0.0,0.0,0.0,0.0,0.0,0.0,0.0,0.0,0.0,0.0,0.0,0.0,0.0,0.0,0.0,0.0,0.0,0.0,0.0,0.0,0.0,0.0,0.0,0.0,0.0,0.0,0.0,0.0,0.0,0.0,0.0,0.0,0.0,0.0,0.0,3.2926,3.886,4.2077,4.2113,3.9423,3.8974,3.5311,0.0,0.0,0.0,0.0,0.0,0.0,0.0,0.0,0.0,0.0,0.0,0.0,0.0,0.0,0.0,0.0,0.0,0.0,0.0,0.0,0.0,0.0,0.0,0.0,0.0,0.0,0.0,0.0,0.0,0.0,0.0,0.0,0.0,0.0,0.0,0.0,0.0,0.0,0.0,0.0,0.0,0.0,0.0,0.0,0.0,0.0,0.0,0.0,0.0,0.0,0.0,0.0,0.0,0.0,0.0,0.0,0.0,0.0,0.0,0.0,0.0,0.0,0.0,0.0,0.0,0.0,0.0,0.0,0.0,0.0,0.0,0.0,0.0,0.0,0.0,0.0,0.0,0.0,0.0,0.0,0.0,0.0,0.0,0.0,0.0,0.0,0.0,0.0,0.0,0.0,0.0,0.0,0.0,0.0,0.0,0.0,0.0,0.0,0.0,0.0,0.0,0.0,0.0,0.0,0.0,0.0,0.0,0.0,0.0,3.4469,3.5501,3.7657,4.0713,3.6758,3.3783,0.0,0.0,0.0,0.0,0.0,0.0,0.0,0.0,0.0,0.0,0.0,0.0,0.0,0.0,0.0,0.0,0.0,0.0,0.0,0.0,0.0,0.0,0.0,0.0,0.0,0.0,0.0,0.0,0.0,0.0,0.0,0.0,0.0,0.0,0.0,0.0,0.0,0.0,0.0,0.0,0.0,0.0,0.0,0.0,0.0,0.0,0.0,0.0,0.0,0.0,0.0,0.0,0.0,0.0,0.0,0.0,0.0,0.0,0.0,0.0,0.0,0.0,0.0,0.0,0.0,0.0,0.0,0.0,0.0,0.0,0.0,0.0,0.0,0.0,0.0,0.0,0.0,0.0,0.0,0.0,0.0,0.0,0.0,0.0,0.0,0.0,0.0,0.0,0.0,0.0,0.0,0.0,0.0,0.0,0.0,0.0,0.0,0.0,0.0,0.0,0.0,0.0,0.0,0.0,0.0,0.0,0.0,0.0,0.0,3.4834,3.4187,3.5893,3.9888,3.6741,3.4503,0.0,0.0,0.0,0.0,0.0,0.0,0.0,0.0,0.0,0.0,0.0,0.0,0.0,0.0,0.0,0.0,0.0,0.0,0.0,0.0,0.0,0.0,0.0,0.0,0.0,0.0,0.0,0.0,0.0,0.0,0.0,0.0,0.0,0.0,0.0,0.0,0.0,0.0,0.0,0.0,0.0,0.0,0.0,0.0,0.0,0.0,0.0,0.0,0.0,0.0,0.0,0.0,0.0,0.0,0.0,0.0,0.0,0.0,0.0,0.0,0.0,0.0,0.0,0.0,0.0,0.0,0.0,0.0,0.0,0.0,0.0,0.0,0.0,0.0,0.0,0.0,0.0,0.0,0.0,0.0,0.0,0.0,0.0,0.0,0.0,0.0,0.0,0.0,0.0,0.0,0.0,0.0,0.0,0.0,0.0,0.0,0.0,0.0,0.0,0.0,0.0,0.0,0.0,0.0,0.0,0.0,0.0,0.0,0.0,3.924,3.7849,3.7011,3.7071,3.8487,3.7211,0.0,0.0,0.0,0.0,0.0,0.0,0.0,0.0,0.0,0.0,0.0,0.0,0.0,0.0,0.0,0.0,0.0,0.0,0.0,0.0,0.0,0.0,0.0,0.0,0.0,0.0,0.0,0.0,0.0,0.0,0.0,0.0,0.0,0.0,0.0,0.0,0.0,0.0,0.0,0.0,0.0,0.0,0.0,0.0,0.0,0.0,0.0,0.0,0.0,0.0,0.0,0.0,0.0,0.0,0.0,0.0,0.0,0.0,0.0,0.0,0.0,0.0,0.0,0.0,0.0,0.0,0.0,0.0,0.0,0.0,0.0,0.0,0.0,0.0,0.0,0.0,0.0,0.0,0.0,0.0,0.0,0.0,0.0,0.0,0.0,0.0,0.0,0.0,0.0,0.0,0.0,0.0,0.0,0.0,0.0,0.0,0.0,0.0,0.0,0.0,0.0,0.0,0.0,0.0,0.0,0.0,0.0,0.0,0.0,0.0,3.8522,3.7694,3.5296,3.451,3.4183,3.4167,0.0,0.0,0.0,0.0,0.0,0.0,0.0,0.0,0.0,0.0,0.0,0.0,0.0,0.0,0.0,0.0,0.0,0.0,0.0,0.0,0.0,0.0,0.0,0.0,0.0,0.0,0.0,0.0,0.0,0.0,0.0,0.0,0.0,0.0,0.0,0.0,0.0,0.0,0.0,0.0,0.0,0.0,0.0,0.0,0.0,0.0,0.0,0.0,0.0,0.0,0.0,0.0,0.0,0.0,0.0,0.0,0.0,0.0,0.0,0.0,0.0,0.0,0.0,0.0,0.0,0.0,0.0,0.0,0.0,0.0,0.0,0.0,0.0,0.0,0.0,0.0,0.0,0.0,0.0,0.0,0.0,0.0,0.0,0.0,0.0,0.0,0.0,0.0,0.0,0.0,0.0,0.0,0.0,0.0,0.0,0.0,0.0,0.0,0.0,0.0,0.0,0.0,0.0,0.0,0.0,0.0,0.0,0.0,0.0,0.0,3.7608,3.5506,3.3924,3.3338,0.0,0.0,0.0,0.0,0.0,0.0,0.0,0.0,0.0,0.0,0.0,0.0,0.0,0.0,0.0,0.0,0.0,0.0,0.0,0.0,0.0,0.0,0.0,0.0,0.0,0.0,0.0,0.0,0.0,0.0,0.0,0.0,0.0,0.0,0.0,0.0,0.0,0.0,0.0,0.0,0.0,0.0,0.0,0.0,0.0,0.0,0.0,0.0,0.0,0.0,0.0,0.0,0.0,0.0,0.0,0.0,0.0,0.0,0.0,0.0,0.0,0.0,0.0,0.0,0.0,0.0,0.0,0.0,0.0,0.0,0.0,0.0,0.0,0.0,0.0,0.0,0.0,0.0,0.0,0.0,0.0,0.0,0.0,0.0,0.0,0.0,0.0,0.0,0.0,0.0,0.0,0.0,0.0,0.0,0.0,0.0,0.0,0.0,0.0,0.0,0.0,0.0,0.0,0.0,0.0,0.0,0.0,0.0,0.0,0.0,0.0,3.7186,3.6919,3.5523,0.0,3.2462,0.0,0.0,0.0,0.0,0.0,0.0,0.0,0.0,0.0,0.0,0.0,0.0,0.0,0.0,0.0,0.0,0.0,0.0,0.0,0.0,0.0,0.0,0.0,0.0,0.0,0.0,0.0,0.0,0.0,0.0,0.0,0.0,0.0,0.0,0.0,0.0,0.0,0.0,0.0,0.0,0.0,0.0,0.0,0.0,0.0,0.0,0.0,0.0,0.0,0.0,0.0,0.0,0.0,0.0,0.0,0.0,0.0,0.0,0.0,0.0,0.0,0.0,0.0,0.0,0.0,0.0,0.0,0.0,0.0,0.0,0.0,0.0,0.0,0.0,0.0,0.0,0.0,0.0,0.0,0.0,0.0,0.0,0.0,0.0,0.0,0.0,0.0,0.0,0.0,0.0,0.0,0.0,0.0,0.0,0.0,0.0,0.0,0.0,0.0,0.0,0.0,0.0,0.0,0.0,0.0,0.0,0.0,0.0,0.0,0.0,0.0,0.0,3.6621,3.5061,3.2244,0.0,0.0,0.0,0.0,0.0,0.0,0.0,0.0,0.0,0.0,0.0,0.0,0.0,0.0,0.0,0.0,0.0,0.0,0.0,0.0,0.0,0.0,0.0,0.0,0.0,0.0,0.0,0.0,0.0,0.0,0.0,0.0,0.0,0.0,0.0,0.0,0.0,0.0,0.0,0.0,0.0,0.0,0.0,0.0,0.0,0.0,0.0,0.0,0.0,0.0,0.0,0.0,0.0,0.0,0.0,0.0,0.0,0.0,0.0,0.0,0.0,0.0,0.0,0.0,0.0,0.0,0.0,0.0,0.0,0.0,0.0,0.0,0.0,0.0,0.0,0.0,0.0,0.0,0.0,0.0,0.0,0.0,0.0,0.0,0.0,0.0,0.0,0.0,0.0,0.0,0.0,0.0,0.0,0.0,0.0,0.0,0.0,0.0,0.0,0.0,0.0,0.0,0.0,0.0,0.0,0.0,0.0,0.0,0.0,0.0,3.8675,3.6992,3.6233,3.4661,3.208,0.0,0.0,0.0,0.0,0.0,0.0,0.0,0.0,0.0,0.0,0.0,0.0,0.0,0.0,0.0,0.0,0.0,0.0,0.0,0.0,0.0,0.0,0.0,0.0,0.0,0.0,0.0,0.0,0.0,0.0,0.0,0.0,0.0,0.0,0.0,0.0,0.0,0.0,0.0,0.0,0.0,0.0,0.0,0.0,0.0,0.0,0.0,0.0,0.0,0.0,0.0,0.0,0.0,0.0,0.0,0.0,0.0,0.0,0.0,0.0,0.0,0.0,0.0,0.0,0.0,0.0,0.0,0.0,0.0,0.0,0.0,0.0,0.0,0.0,0.0,0.0,0.0,0.0,0.0,0.0,0.0,0.0,0.0,0.0,0.0,0.0,0.0,0.0,0.0,0.0,0.0,0.0,0.0,0.0,0.0,0.0,0.0,0.0,0.0,0.0,0.0,0.0,0.0,0.0,0.0,0.0,0.0,0.0,0.0,0.0,3.875,0.0,0.0,0.0,3.1693,0.0,0.0,0.0,0.0,0.0,0.0,0.0,0.0,0.0,0.0,0.0,0.0,0.0,0.0,0.0,0.0,0.0,0.0,0.0,0.0,0.0,0.0,0.0,0.0,0.0,0.0,0.0,0.0,0.0,0.0,0.0,0.0,0.0,0.0,0.0,0.0,0.0,0.0,0.0,0.0,0.0,0.0,0.0,0.0,0.0,0.0,0.0,0.0,0.0,0.0,0.0,0.0,0.0,0.0,0.0,0.0,0.0,0.0,0.0,0.0,0.0,0.0,0.0,0.0,0.0,0.0,0.0,0.0,0.0,0.0,0.0,0.0,0.0,0.0,0.0,0.0,0.0,0.0,0.0,0.0,0.0,0.0,0.0,0.0,0.0,0.0,0.0,0.0,0.0,0.0,0.0,0.0,0.0,0.0,0.0,0.0,0.0,0.0,0.0,0.0,0.0,0.0,0.0,0.0,0.0,0.0,0.0,0.0,0.0,0.0,0.0,0.0,0.0,0.0,0.0,0.0,0.0,0.0,0.0,0.0,0.0,0.0,0.0,0.0,0.0,0.0,0.0,0.0,0.0,0.0,0.0,0.0,0.0,0.0,0.0,0.0,0.0,0.0,0.0,0.0,0.0,0.0,0.0,0.0,0.0,0.0,0.0,0.0,0.0,0.0,0.0,0.0,0.0,0.0,0.0,0.0,0.0,0.0,0.0,0.0,0.0,0.0,0.0,0.0,0.0,0.0,0.0,0.0,0.0,0.0,0.0,0.0,0.0,0.0,0.0,0.0,0.0,0.0,0.0,0.0,0.0,0.0,0.0,0.0,0.0,0.0,0.0,0.0,0.0,0.0,0.0,0.0,0.0,0.0,0.0,0.0,0.0,0.0,0.0,0.0,0.0,0.0,0.0,0.0,0.0,0.0,0.0,0.0,0.0,0.0,0.0,0.0,0.0,0.0,0.0,0.0,0.0,0.0,0.0,0.0,0.0,0.0,0.0,0.0,0.0,0.0,0.0,0.0,0.0,0.0,0.0,0.0,0.0,0.0,0.0,0.0,0.0,0.0,0.0,0.0,0.0,0.0,0.0,0.0,0.0,0.0,0.0,0.0,0.0,0.0,0.0,0.0,0.0,0.0,0.0,0.0,0.0,0.0,0.0,0.0,0.0,0.0,0.0,0.0,0.0,0.0,0.0,0.0,0.0,0.0,0.0,0.0,0.0,0.0,0.0,0.0,0.0,0.0,0.0,0.0,0.0,0.0,0.0,0.0,0.0,0.0,0.0,0.0,0.0,0.0,0.0,0.0,0.0,0.0,0.0,0.0,0.0,0.0,0.0,0.0,0.0,0.0,0.0,0.0,0.0,0.0,0.0,0.0,0.0,0.0,0.0,0.0,0.0,0.0,0.0,0.0,0.0,0.0,0.0,0.0,0.0,0.0,0.0,0.0,0.0,0.0,0.0,0.0,0.0,0.0,0.0,0.0,0.0,0.0,0.0,0.0,0.0,0.0,0.0,0.0,0.0,0.0,0.0,0.0,0.0,0.0,0.0,0.0,0.0,0.0,0.0,0.0,0.0,0.0,0.0,0.0,0.0,0.0,0.0,0.0,0.0,0.0,0.0,0.0,0.0,0.0,0.0,0.0,0.0,0.0,0.0,0.0,0.0,0.0,0.0,0.0,0.0,0.0,0.0,0.0,0.0,0.0,0.0,0.0,0.0,0.0,0.0,0.0,0.0,0.0,0.0,0.0,0.0,0.0,0.0,0.0,0.0,0.0,0.0,0.0,0.0,0.0,0.0,0.0,0.0,0.0,0.0,0.0,0.0,0.0,0.0,0.0,0.0,0.0,0.0,0.0,0.0,0.0,0.0,0.0,0.0,0.0,0.0,0.0,0.0,0.0,0.0,0.0,0.0,0.0,0.0,0.0,0.0,0.0,0.0,0.0,0.0,0.0,0.0,0.0,0.0,0.0,0.0,0.0,0.0,0.0,0.0,0.0,0.0,0.0,0.0,0.0,0.0,0.0,0.0,0.0,0.0,0.0,0.0,0.0,0.0,0.0,0.0,0.0,0.0,0.0,0.0,0.0,0.0,0.0,0.0,0.0,0.0,0.0,0.0,0.0,0.0,0.0,0.0,0.0,0.0,0.0,0.0,0.0,0.0,0.0,0.0,0.0,0.0,0.0,0.0,0.0,0.0,0.0,0.0,0.0,0.0,0.0,0.0,0.0,0.0,0.0,0.0,0.0,0.0,0.0,0.0,0.0,0.0,0.0,0.0,0.0,0.0,0.0,0.0,0.0,0.0,0.0,0.0,0.0,0.0,0.0,0.0,0.0,0.0,0.0,0.0,0.0,0.0,0.0,0.0,0.0,0.0,0.0,0.0,0.0,0.0,0.0,0.0,0.0,0.0,0.0,0.0,0.0,0.0,0.0,0.0,0.0,0.0,0.0,0.0,0.0,0.0,0.0,0.0,0.0,0.0,0.0,0.0,0.0,0.0,0.0,0.0,0.0,0.0,0.0,0.0,0.0,0.0,0.0,0.0,0.0,0.0,0.0,0.0,0.0,0.0,0.0,0.0,0.0,0.0,0.0,0.0,0.0,0.0,0.0,0.0,0.0,0.0,0.0,0.0,0.0,0.0,0.0,0.0,0.0,0.0,0.0,0.0,0.0,0.0,0.0,0.0,0.0,0.0,0.0,0.0,0.0,0.0,0.0,0.0,0.0,0.0,0.0,0.0,0.0,0.0,0.0,0.0,0.0,0.0,0.0,0.0,0.0,0.0,0.0,0.0,0.0,0.0,0.0,0.0,0.0,0.0,0.0,0.0,0.0,0.0,0.0,0.0,0.0,0.0,0.0,0.0,0.0,0.0,0.0,0.0,0.0,0.0,0.0,0.0,0.0,0.0,0.0,0.0,0.0,0.0,0.0,0.0,0.0,0.0,0.0,0.0,0.0,0.0,0.0,0.0,0.0,0.0,0.0,0.0,0.0,0.0,0.0,0.0,0.0,0.0,0.0,0.0,0.0,0.0,0.0,0.0,0.0,0.0,0.0,0.0,0.0,0.0,0.0,0.0,0.0,0.0,0.0,0.0,0.0,0.0,0.0,0.0,0.0,0.0,0.0,0.0,0.0,0.0,0.0,0.0,0.0,0.0,0.0,0.0,0.0,0.0,0.0,0.0,0.0,0.0,0.0,0.0,0.0,0.0,0.0,0.0,0.0,0.0,0.0,0.0,0.0,0.0,0.0,0.0,0.0,0.0,0.0,0.0,0.0,0.0,0.0,0.0,0.0,0.0,0.0,0.0,0.0,0.0,0.0,0.0,0.0,0.0,0.0,0.0,0.0,0.0,0.0,0.0,0.0,0.0,0.0,0.0,0.0,0.0,0.0,0.0,0.0,0.0,0.0,0.0,0.0,0.0,0.0,0.0,0.0,0.0,0.0,0.0,0.0,0.0,0.0,0.0,0.0,0.0,0.0,0.0,0.0,0.0,0.0,0.0,0.0,0.0,0.0,0.0,0.0,0.0,0.0,0.0,0.0,0.0,0.0,0.0,0.0,0.0,0.0,0.0,0.0,0.0,0.0,0.0,0.0,0.0,0.0,0.0,0.0,0.0,0.0,0.0,0.0,0.0,0.0,0.0,0.0,0.0,0.0,0.0,0.0,0.0,0.0,0.0,0.0,0.0,0.0,0.0,0.0,0.0,0.0,0.0,0.0,0.0,0.0,0.0,0.0,0.0,0.0,0.0,0.0,0.0,0.0,0.0,0.0,0.0,0.0,0.0,0.0,0.0,0.0,0.0,0.0,0.0,0.0,0.0,0.0,0.0,0.0,0.0,0.0,0.0,0.0,0.0,0.0,0.0,0.0,0.0,0.0,0.0,0.0,0.0,0.0,0.0,0.0,0.0,0.0,0.0,0.0,0.0,0.0,0.0,0.0,0.0,0.0,0.0,0.0,0.0,0.0,0.0,0.0,0.0,0.0,0.0,0.0,0.0,0.0,0.0,0.0,0.0,0.0,0.0,0.0,0.0,0.0,0.0,0.0,0.0,0.0,0.0,0.0,0.0,0.0,0.0,0.0,0.0,0.0,0.0,0.0,0.0,0.0,0.0,0.0,0.0,0.0,0.0,0.0,0.0,0.0,0.0,0.0,0.0,0.0,0.0,0.0,0.0,0.0,0.0,0.0,0.0,0.0,0.0,0.0,0.0,0.0,0.0,0.0,0.0,0.0,0.0,0.0,0.0,0.0,0.0,0.0,0.0,0.0,0.0,0.0,0.0,0.0,0.0,0.0,0.0,0.0,0.0,0.0,0.0,0.0,0.0,0.0,0.0,0.0,0.0,0.0,0.0,0.0,0.0,0.0,0.0,0.0,0.0,0.0,0.0,0.0]}],[{"header":{"parameterUnit":"kt","parameterCategory":2,"dx":1,"dy":1,"la1":29.587661999999998,"la2":31.0,"lo1":-88.76705300000003,"lo2":-86.6583820000003,"nx":115,"ny":88,"refTime":"2022-11-02T06:00:00:Z","depth":0,"parameterNumber":2,"parameterNumberName":"V-component_of_WINDS"},"data":[5.4479,5.4479,5.4749,5.4838,5.4805,5.4444,5.3971,5.3324,5.2213,5.1118,5.0627,5.0278,4.9932,4.9638,4.9584,4.8957,4.7953,4.7763,4.7323,4.6845,4.7302,4.7124,4.7124,4.7556,4.7023,4.6335,4.5504,4.4152,4.4054,4.2575,4.1341,4.1453,4.1408,4.1385,4.1385,4.143,4.1587,4.1654,4.1596,4.1686,4.1998,4.1464,4.0815,3.917,3.7568,3.6208,3.5004,3.3539,3.3136,3.2867,3.3073,3.3127,3.3117,3.3152,3.3134,3.3063,3.3045,3.2938,3.2938,3.2885,3.2867,3.2867,3.2867,3.2867,3.2562,3.2562,3.1561,3.1136,3.0299,2.8367,2.7212,2.6655,2.5589,2.5297,2.4554,2.4554,2.4513,2.45,2.4419,2.3933,2.3565,2.3375,2.308,2.2224,2.1082,2.1224,2.1082,2.1082,2.1036,2.1011,2.0926,2.1069,2.1211,2.1364,2.1329,2.1153,2.0749,2.0795,2.0201,1.7855,1.5533,1.323,1.2167,1.1243,1.069,1.0136,1.004,0.99,0.9743,0.9727,0.9738,0.9733,0.9754,0.9754,0.9754,5.1877,5.1966,5.3013,5.3492,5.3672,5.4566,5.4097,5.2892,5.2464,5.1625,5.032,4.9234,4.9226,4.9449,4.953,4.8606,4.7845,4.7402,4.7187,4.6842,4.6729,4.6689,4.6714,4.6692,4.6616,4.5859,4.4708,4.3771,4.2865,4.1842,4.1273,4.1273,4.1273,4.1273,4.1296,4.1273,4.1273,4.1273,4.1296,4.1385,4.0654,4.003,3.8156,3.6141,3.4304,3.3387,3.3235,3.2984,3.3002,3.2867,3.2867,3.2867,3.2867,3.2867,3.2867,3.2814,3.2796,3.2608,3.2526,3.2456,3.2385,3.2491,3.2867,3.2714,3.2256,3.1527,3.0097,2.9257,2.8689,2.7628,2.6515,2.5486,2.4164,2.3158,2.2218,2.1498,2.1413,2.1352,2.1183,2.0977,2.0997,2.119,2.0795,2.0433,1.9977,2.0113,2.0249,2.0273,2.023,2.0336,2.0255,2.0359,2.0613,2.0484,2.0242,1.9968,1.9646,1.9297,1.8257,1.5796,1.364,1.2327,1.1324,1.0789,1.0425,1.0031,0.9787,0.975,0.968,0.969,0.9659,0.9755,0.9776,0.9782,0.9685,5.1278,5.1278,5.1936,5.2116,5.2206,5.2774,5.2345,5.1231,5.0821,5.0175,4.9348,4.8647,4.8293,4.8506,4.8162,4.741,4.6758,4.668,4.6278,4.5821,4.5507,4.597,4.5893,4.5553,4.5609,4.5495,4.4392,4.3296,4.2601,4.1697,4.1184,4.1273,4.1273,4.1273,4.1273,4.1273,4.1273,4.1229,4.1273,4.0093,3.8272,3.767,3.623,3.4406,3.3109,3.2634,3.2242,3.2154,3.2421,3.2742,3.276,3.2778,3.2724,3.2707,3.2796,3.2707,3.2359,3.1986,3.1487,3.081,3.0052,2.9608,2.9591,3.0108,2.9891,2.848,2.6976,2.6556,2.6012,2.5259,2.419,2.362,2.2381,2.176,2.0904,2.0421,2.035,2.0167,2.0038,1.9921,2.005,2.0203,1.9939,1.9595,1.9787,1.9944,1.9769,1.985,1.9703,1.9693,1.9522,1.9542,1.9862,1.9878,1.8993,1.8524,1.8121,1.7258,1.6293,1.4227,1.2257,1.1353,1.0631,1.0209,0.9981,0.9675,0.9535,0.9449,0.9503,0.9022,0.9316,0.9463,0.9752,0.9746,0.8354,5.0291,5.0145,5.0291,5.05,5.074,5.1099,5.0838,4.9946,4.8851,4.8434,4.8389,4.7851,4.7546,4.7827,4.7379,4.6584,4.5871,4.5805,4.5025,4.4197,4.4324,4.4945,4.534,4.4498,4.4259,4.4208,4.3605,4.2476,4.1722,4.0911,4.049,4.0512,4.028,4.0146,4.0168,4.0289,4.0168,4.0079,3.9673,3.8293,3.6427,3.5519,3.4562,3.2828,3.18,3.146,3.1589,3.1465,3.1933,3.2155,3.219,3.2332,3.2315,3.2261,3.2111,3.1775,3.1021,3.0366,2.9673,2.8816,2.8293,2.751,2.7395,2.7148,2.6321,2.467,2.3786,2.3384,2.2909,2.2045,2.1329,2.099,2.043,2.0298,1.9937,1.9889,1.9974,1.9818,1.9531,1.9577,1.9804,1.978,1.9675,1.9519,1.9722,1.9589,1.9324,1.918,1.8956,1.824,1.7923,1.7618,1.8289,1.8226,1.744,1.67,1.6062,1.5173,1.4126,1.2677,1.0944,1.0595,1.0353,0.9858,0.9562,0.9408,0.931,0.9213,0.878,0.8142,0.8032,0.7513,0.7809,0.6822,0.5632,4.7628,4.7658,4.7569,4.8376,4.9453,5.062,5.0601,4.9741,4.7607,4.7054,4.7725,4.6798,4.6717,4.7004,4.6376,4.5576,4.4972,4.4618,4.383,4.195,4.278,4.3321,4.3681,4.3597,4.3212,4.2887,4.2277,4.135,4.0568,3.9848,3.8985,3.8517,3.8718,3.8918,3.9008,3.8963,3.8668,3.828,3.7273,3.6089,3.4637,3.344,3.2234,3.0797,3.033,3.0229,3.0554,3.0851,3.1134,3.0811,3.0769,3.0762,3.0635,3.0653,2.9853,2.9477,2.8949,2.8244,2.7434,2.6731,2.6427,2.6344,2.6649,2.5994,2.4867,2.341,2.2538,2.2127,2.1984,2.1269,2.04,2.0046,1.9831,1.9558,1.9123,1.8994,1.9053,1.9111,1.8843,1.8469,1.8548,1.8712,1.862,1.8469,1.8514,1.8369,1.8312,1.8219,1.7539,1.6254,1.5683,1.529,1.5683,1.589,1.5241,1.4888,1.4122,1.3123,1.1906,1.0652,1.0283,1.0139,1.0082,0.9716,0.9213,0.918,0.8951,0.8807,0.8365,0.6964,0.5433,0.5354,0.4321,0.286,0.0,4.7239,4.7239,4.7239,4.7539,4.8107,4.8616,4.8658,4.8198,4.7309,4.7071,4.7326,4.5901,4.5358,4.571,4.4585,4.3631,4.3146,4.3102,4.248,4.1156,4.1478,4.1736,4.1611,4.156,4.1942,4.1704,4.1064,4.0163,4.0327,3.9298,3.8227,3.8182,3.8294,3.8316,3.8182,3.8004,3.724,3.5996,3.4781,3.3416,3.235,3.1234,3.0275,2.9356,2.8928,2.9257,2.9744,2.9945,3.03,3.0543,2.9537,2.9347,2.933,2.8537,2.7756,2.7626,2.7052,2.6197,2.5283,2.4655,2.3904,2.3523,2.3002,2.3184,2.236,2.1983,2.1432,2.0874,2.0836,2.067,1.9946,1.934,1.9071,1.8803,1.8335,1.7876,1.8186,1.8345,1.7936,1.7435,1.7342,1.7408,1.7397,1.7342,1.7151,1.6775,1.6524,1.6388,1.5496,1.4484,1.385,1.3468,1.3595,1.3587,1.3494,1.3306,1.2398,1.1482,1.037,1.012,0.99,0.9691,0.9591,0.9298,0.8874,0.8597,0.834,0.8257,0.6676,0.4037,0.2012,0.0,0.0,0.0,0.0,4.6133,4.6133,4.6133,4.6342,4.6611,4.6282,4.6133,4.6192,4.6581,4.6671,4.6651,4.5269,4.4866,4.4318,4.2612,4.1884,4.1507,4.1239,4.0781,4.0693,4.0711,4.0532,4.0434,4.049,4.077,4.0704,4.0166,3.9346,3.9482,3.862,3.7736,3.7468,3.7133,3.72,3.7222,3.7379,3.6002,3.4646,3.3516,3.2393,3.1257,2.9973,2.9169,2.8644,2.8375,2.851,2.8876,2.8993,2.9195,2.9486,2.8537,2.7935,2.7827,2.6686,2.5914,2.5852,2.5119,2.4254,2.3382,2.2458,2.1811,2.1585,2.1202,2.0555,2.0024,1.9963,1.9864,1.919,1.885,1.8933,1.8531,1.7441,1.6576,1.6398,1.6041,1.6502,1.7991,1.7764,1.6388,1.601,1.5884,1.5935,1.5924,1.5874,1.5622,1.4864,1.4231,1.3968,1.3332,1.2823,1.232,1.2064,1.1937,1.1688,1.1552,1.1711,1.0734,1.0133,0.9888,0.9501,0.939,0.926,0.9119,0.8906,0.8722,0.8292,0.744,0.5506,0.3722,0.1051,0.0,0.0,0.0,0.0,0.0,4.35,4.344,4.344,4.4278,4.4996,4.4098,4.359,4.3649,4.4846,4.5355,4.5337,4.5113,4.4386,4.3978,4.2896,4.1579,4.0798,4.0832,4.0571,4.0404,4.0307,4.0307,4.0235,4.0235,4.0291,3.9972,3.9379,3.8536,3.7737,3.7035,3.6245,3.5745,3.5776,3.575,3.562,3.5535,3.5101,3.3867,3.2697,3.1374,3.05,2.931,2.8544,2.8331,2.8215,2.8233,2.8402,2.834,2.8429,2.7844,2.7087,2.6564,2.5804,2.5026,2.4637,2.407,2.3086,2.2232,2.1371,2.1287,2.0757,2.0026,2.0172,1.9653,1.901,1.8513,1.8253,1.7754,1.7505,1.7424,1.7069,1.5864,1.4672,1.4574,1.433,1.5019,1.6787,1.6755,1.5253,1.4602,1.4602,1.4602,1.4602,1.4475,1.4222,1.3526,1.2904,1.2384,1.1634,1.1052,1.092,1.0689,1.0358,0.9928,0.9807,0.9953,0.9459,0.9502,0.9283,0.919,0.9119,0.8996,0.8866,0.8608,0.8483,0.7042,0.4825,0.274,0.0,0.0,0.0,0.0,0.0,0.0,0.0,4.332,4.332,4.332,4.3619,4.3739,4.2602,4.2572,4.335,4.3769,4.4008,4.3796,4.2972,4.2371,4.1649,4.0875,4.0115,3.9431,3.9994,4.0184,4.0235,4.0184,4.0205,4.0134,4.0235,3.9737,3.9206,3.8509,3.7756,3.6846,3.6055,3.5463,3.5102,3.5175,3.4857,3.4359,3.3949,3.3761,3.2728,3.1575,3.0214,2.9465,2.8743,2.8126,2.8108,2.8126,2.8028,2.8064,2.8081,2.7814,2.6763,2.5726,2.4622,2.3544,2.2699,2.1971,2.1835,2.1348,2.1103,2.06,2.0464,1.9369,1.8396,1.8015,1.763,1.738,1.7145,1.6658,1.6555,1.6628,1.6357,1.5824,1.4738,1.4213,1.4756,1.424,1.3299,1.4493,1.5098,1.414,1.3688,1.3578,1.3451,1.346,1.3163,1.2802,1.2188,1.1588,1.0665,0.979,0.9777,0.9643,0.9528,0.9196,0.9142,0.9055,0.8845,0.8808,0.8877,0.8785,0.8687,0.8732,0.8732,0.8564,0.8354,0.7255,0.5677,0.2854,0.0,0.0,0.0,0.0,0.0,0.0,0.0,0.0,4.2075,4.2004,4.2004,4.2004,4.1956,4.1116,4.1166,4.1986,4.2105,4.2273,4.2413,4.1601,4.0713,3.9904,3.9451,3.8606,3.8096,3.8843,3.9089,3.8919,3.8817,3.9362,3.9722,3.9397,3.8654,3.8088,3.7435,3.663,3.5919,3.5471,3.4981,3.4478,3.4299,3.4165,3.3414,3.272,3.2335,3.1379,2.9906,2.8826,2.8142,2.766,2.7324,2.7288,2.7288,2.7029,2.6657,2.6492,2.5974,2.4859,2.3639,2.2709,2.1923,2.0762,2.0118,2.0012,2.0313,2.0231,2.0231,1.906,1.802,1.6983,1.6323,1.6191,1.5543,1.5431,1.5196,1.478,1.4346,1.3979,1.3939,1.2853,1.2522,1.3195,1.3087,1.2305,1.2188,1.2796,1.3062,1.2579,1.1984,1.1667,1.152,1.1292,1.1147,1.0601,1.043,0.9558,0.8924,0.8763,0.869,0.8457,0.8341,0.8282,0.8369,0.8238,0.8206,0.8228,0.8272,0.8193,0.8253,0.8286,0.0,0.0,0.0,0.0,0.0,0.0,0.0,0.0,0.0,0.0,0.0,0.0,0.0,3.9618,3.9468,3.9618,3.9618,3.9738,3.9498,3.9588,3.9888,3.9858,4.0427,4.1264,4.0897,4.029,3.9463,3.8409,3.7528,3.6988,3.6963,3.6834,3.696,3.7228,3.8347,3.8566,3.8193,3.7289,3.6643,3.6073,3.5477,3.4672,3.4477,3.3725,3.3171,3.3206,3.3116,3.2283,3.1357,3.0883,3.0505,2.8574,2.782,2.7264,2.663,2.6326,2.6237,2.6254,2.584,2.5297,2.5062,2.4405,2.3112,2.1904,2.1259,2.0695,1.9532,1.8935,1.8808,1.9205,1.9267,1.9267,1.6921,1.5775,1.5108,1.475,1.4454,1.3743,1.3364,1.322,1.2768,1.2079,1.1548,1.0902,1.0555,1.0241,1.0283,1.0311,1.0078,1.0353,1.0842,1.0878,1.0787,1.0044,0.9691,0.9579,0.9579,0.9599,0.9258,0.916,0.8856,0.8241,0.8039,0.7829,0.7688,0.7543,0.7554,0.7537,0.7534,0.754,0.7588,0.7705,0.7801,0.7839,0.6444,0.0,0.0,0.0,0.0,0.0,0.0,0.0,0.0,0.0,0.0,0.0,0.0,0.0,3.9304,3.9468,3.9468,3.9468,3.9468,3.9468,3.9468,3.9468,3.9468,3.9738,3.9999,3.9614,3.8857,3.7943,3.7423,3.7006,3.6114,3.6113,3.5621,3.5508,3.5899,3.7065,3.7371,3.6988,3.6164,3.586,3.5245,3.4501,3.3659,3.3216,3.2693,3.2231,3.1978,3.1755,3.1086,3.0218,2.9295,2.848,2.7156,2.6442,2.6387,2.5966,2.5755,2.572,2.5579,2.4997,2.4292,2.3726,2.2901,2.1615,2.0797,2.0204,1.9338,1.8451,1.776,1.7468,1.7117,1.6737,1.6378,1.5079,1.3764,1.3074,1.287,1.2539,1.2258,1.2032,1.1792,1.1141,1.0695,1.0261,0.99,0.9201,0.8813,0.8435,0.8453,0.8544,0.881,0.8887,0.8957,0.8989,0.9343,0.9181,0.9039,0.8835,0.8309,0.7067,0.7175,0.7255,0.7137,0.7158,0.7115,0.7013,0.6778,0.6811,0.6732,0.6625,0.6516,0.6571,0.675,0.6986,0.5461,0.3011,0.0,0.0,0.0,0.0,0.0,0.0,0.0,-0.0567,0.0,0.0,-0.1233,-0.2058,-0.2387,3.9535,3.9468,3.9468,3.9468,3.9468,3.9468,3.9468,3.9468,3.9468,3.9468,3.9431,3.8661,3.7793,3.6948,3.6887,3.5843,3.5183,3.5431,3.4641,3.4359,3.457,3.5302,3.5464,3.5302,3.5144,3.4347,3.3688,3.3041,3.238,3.1977,3.1649,3.1153,3.0595,3.0372,3.005,2.9307,2.8002,2.6784,2.5456,2.4918,2.4918,2.4918,2.4833,2.4833,2.4731,2.3752,2.2905,2.2367,2.1088,1.9797,1.9383,1.8481,1.7469,1.6806,1.6261,1.5736,1.5539,1.5413,1.5086,1.3346,1.1939,1.1043,1.071,1.0332,1.0055,0.9992,1.0007,1.0021,0.9404,0.8808,0.8391,0.7912,0.7463,0.7233,0.7153,0.7332,0.7294,0.7227,0.7227,0.7071,0.7452,0.8107,0.8095,0.7826,0.6303,0.5063,0.5422,0.5706,0.619,0.6436,0.6494,0.6515,0.6424,0.6478,0.6377,0.5916,0.5463,0.5544,0.5728,0.4644,0.3126,0.0,0.0,0.0,0.0,0.0,0.0,0.0,-0.1107,-0.1442,-0.1741,-0.2019,-0.2781,-0.3602,-0.3734,3.9867,3.9468,3.9468,3.9468,3.9468,3.9468,3.9468,3.9468,3.9468,3.9468,3.9266,3.8104,3.7679,3.7028,3.5564,3.4628,3.4523,3.3754,3.3635,3.3553,3.3482,3.3787,3.3781,3.3724,3.3301,3.2719,3.2006,3.1331,3.0652,3.0825,3.0171,2.9524,2.9702,2.9501,2.9123,2.8412,2.6952,2.58,2.4184,2.3662,2.3644,2.3298,2.32,2.305,2.2378,2.1296,2.0076,1.9554,1.8534,1.7322,1.7153,1.6606,1.5815,1.5147,1.4618,1.4044,1.3819,1.3611,1.3252,1.1656,1.0367,0.9892,0.9498,0.8917,0.8506,0.8092,0.784,0.8123,0.808,0.7498,0.6984,0.6297,0.6145,0.5999,0.5989,0.6184,0.618,0.6004,0.5535,0.5212,0.5359,0.6028,0.6062,0.5164,0.3733,0.3316,0.3665,0.3749,0.4442,0.502,0.5353,0.5212,0.5418,0.5528,0.5538,0.4707,0.3502,0.3328,0.3394,0.2249,0.1184,0.0,0.0,0.0,0.0,0.0,-0.0531,-0.1586,-0.2332,-0.2474,-0.2815,-0.3427,-0.4188,-0.4767,-0.4994,3.9371,3.9468,3.9468,3.9468,3.9468,3.9468,3.9468,3.9468,3.9468,3.9468,3.9334,3.8965,3.7934,3.6651,3.5478,3.4366,3.3809,3.3487,3.3432,3.3457,3.3457,3.3457,3.3351,3.2918,3.2671,3.2448,3.1273,3.0588,3.0247,2.9967,2.9747,2.9412,2.9213,2.9191,2.8925,2.7737,2.6641,2.56,2.4013,2.3281,2.2973,2.2196,2.169,2.1395,2.0573,1.9592,1.8587,1.8095,1.7062,1.5957,1.5531,1.5013,1.4169,1.3531,1.2902,1.2529,1.1859,1.1535,1.0738,1.0044,0.9126,0.8569,0.8139,0.8031,0.7708,0.7816,0.7708,0.7379,0.7061,0.6625,0.6259,0.5574,0.5038,0.4738,0.4558,0.5067,0.5283,0.4788,0.4358,0.4108,0.4101,0.442,0.3615,0.2497,0.1916,0.1629,0.1709,0.1883,0.2421,0.3134,0.2993,0.24,0.2774,0.3244,0.0,0.0,0.0,0.0901,0.0925,0.0471,0.0384,0.0,0.0,0.0,0.0,-0.224,-0.2539,-0.2986,-0.3528,-0.3977,-0.4412,-0.493,-0.5373,-0.5841,-0.6192,3.9572,3.9468,3.9468,3.9468,3.9468,3.9468,3.9468,3.9468,3.9468,3.9468,3.9401,3.9169,3.8425,3.7306,3.5783,3.4733,3.4049,3.3593,3.3457,3.3457,3.3457,3.3457,3.3269,3.2836,3.2258,3.184,3.1017,3.0219,2.9894,2.9543,2.9102,2.8836,2.8747,2.8657,2.7737,2.6528,2.588,2.5226,2.4109,2.3184,2.2585,2.169,2.0902,2.1016,1.9592,1.8688,1.779,1.7178,1.5829,1.5105,1.4169,1.3656,1.2701,1.2174,1.1434,1.1231,1.0175,0.9433,0.8683,0.8582,0.836,0.793,0.7498,0.7169,0.7169,0.6846,0.6521,0.5972,0.5543,0.4705,0.3854,0.3367,0.3074,0.2689,0.2046,0.2225,0.2211,0.2506,0.3001,0.2982,0.2876,0.2243,0.1493,0.0369,-0.0555,-0.1116,-0.15,-0.1303,-0.0735,-0.0181,-0.0453,-0.0635,0.0091,0.0999,0.0,0.0,0.0,-0.0185,-0.0284,-0.0286,-0.0383,-0.1538,0.0,0.0,-0.3967,-0.4171,-0.4733,-0.5044,-0.5324,-0.5694,-0.5983,-0.6122,-0.6262,-0.684,-0.7379,3.9946,3.9468,3.9468,3.9468,3.9468,3.9468,3.9468,3.9468,3.9468,3.9468,3.9237,3.8769,3.8395,3.7593,3.6159,3.5198,3.434,3.3729,3.3457,3.3457,3.3457,3.3457,3.3351,3.2754,3.2032,3.1551,3.0565,2.9871,2.9543,2.9455,2.8925,2.8209,2.8029,2.7555,2.6825,2.5674,2.4811,2.4433,2.363,2.2973,2.2471,2.1083,2.039,1.9792,1.8587,1.7293,1.6755,1.5623,1.4366,1.3949,1.3017,1.2174,1.1328,1.1108,1.0593,0.9633,0.8998,0.836,0.7708,0.7385,0.7277,0.6732,0.6413,0.6197,0.5543,0.5002,0.4348,0.3371,0.3371,0.289,0.197,0.1109,0.0487,0.0378,0.0368,0.009,-0.0268,0.0743,0.0817,0.0812,0.0749,0.0094,-0.0282,-0.169,-0.2925,-0.3958,-0.4707,-0.4687,-0.4551,-0.4703,-0.4981,-0.39,-0.3038,-0.1328,0.0,0.0,-0.1152,-0.0966,-0.098,-0.1088,-0.1792,-0.2907,-0.4914,-0.5941,-0.5626,-0.5533,-0.6233,-0.6773,-0.7142,-0.7357,-0.7323,-0.734,-0.7266,-0.7804,-0.8461,3.947,3.9468,3.9468,3.9468,3.9468,3.9468,3.9438,3.9468,3.9468,3.9169,3.8671,3.8465,3.7764,3.6679,3.581,3.4915,3.3648,3.3568,3.3432,3.3457,3.3457,3.3432,3.3106,3.2365,3.166,3.1211,3.0219,2.9455,2.939,2.9324,2.8858,2.8119,2.796,2.7485,2.6344,2.5206,2.4905,2.4339,2.363,2.2894,2.1983,2.0291,1.8789,1.7763,1.6575,1.5543,1.5013,1.4064,1.3122,1.2078,1.1337,1.0806,1.0052,1.006,0.8984,0.7045,0.6399,0.6296,0.608,0.5972,0.5431,0.467,0.4239,0.3586,0.3152,0.3043,0.25,0.2173,0.2063,0.1715,0.1151,0.1233,0.0703,0.0097,-0.0282,-0.0276,-0.0834,-0.1101,-0.0901,-0.1473,-0.1417,-0.1537,-0.1646,-0.2721,-0.3618,-0.4591,-0.5243,-0.5431,-0.6046,-0.6824,-0.6829,-0.6085,-0.5071,-0.3274,-0.2788,-0.2807,-0.2814,-0.2825,-0.2846,-0.3276,-0.3924,-0.447,-0.6004,-0.7538,-0.716,-0.687,-0.7749,-0.8455,-0.8139,-0.8139,-0.8455,-0.8562,-0.824,-0.8569,-0.8998,3.7958,3.7456,3.7486,3.7845,3.8449,3.8509,3.8839,3.9341,3.9169,3.8769,3.8395,3.7835,3.7319,3.6808,3.6016,3.4837,3.3995,3.3754,3.3593,3.3457,3.3432,3.3325,3.2836,3.1972,3.1382,3.0674,2.9894,2.939,2.939,2.9324,2.8518,2.7527,2.6865,2.6198,2.517,2.4584,2.3995,2.342,2.2568,2.1804,2.1115,1.9693,1.8182,1.696,1.5635,1.4399,1.3667,1.2912,1.1646,1.0699,0.9626,0.8877,0.8335,0.7798,0.6943,0.5431,0.4774,0.445,0.4016,0.3475,0.3147,0.2281,0.239,0.2064,0.1738,0.1521,0.1847,0.163,0.1411,0.0648,-0.0,-0.0209,-0.0514,-0.1004,-0.1267,-0.1542,-0.1833,-0.1982,-0.2858,-0.3898,-0.3924,-0.3741,-0.358,-0.3726,-0.4461,-0.5011,-0.5681,-0.6224,-0.6766,-0.6995,-0.7028,-0.6487,-0.6284,-0.5128,-0.5141,-0.5149,-0.5157,-0.5153,-0.5379,-0.5936,-0.6509,-0.6504,-0.756,-0.8519,-0.8608,-0.8146,-0.8669,-0.8669,-0.8669,-0.8676,-0.8777,-0.8884,-0.8998,-0.9112,-0.9112,3.6173,3.5331,3.5331,3.6019,3.7101,3.7161,3.782,3.8833,3.8462,3.8299,3.814,3.7335,3.7202,3.6938,3.5919,3.5046,3.4366,3.3995,3.3835,3.3538,3.3432,3.3081,3.2589,3.1804,3.1041,3.0219,2.9345,2.9014,2.908,2.8897,2.7856,2.6404,2.5752,2.4925,2.405,2.3474,2.3263,2.2488,2.169,2.0803,1.9992,1.8775,1.7661,1.6139,1.4805,1.3667,1.2807,1.1319,1.0151,0.9626,0.8013,0.7045,0.6291,0.5211,0.4345,0.3477,0.2932,0.2388,0.1957,0.1196,0.0761,0.0652,0.0869,0.0978,0.0434,0.0434,-0.0109,-0.0109,-0.0761,-0.1306,-0.2285,-0.2447,-0.2718,-0.3003,-0.3244,-0.3382,-0.3704,-0.4004,-0.4644,-0.5737,-0.6176,-0.6246,-0.5951,-0.583,-0.617,-0.6522,-0.7084,-0.7632,-0.7749,-0.7585,-0.7295,-0.7227,-0.718,-0.7191,-0.7202,-0.7045,-0.6911,-0.6656,-0.6661,-0.7233,-0.7572,-0.8037,-0.8373,-0.8595,-0.8689,-0.8757,-0.8757,-0.8676,-0.8884,-0.9305,-0.9305,-0.9205,-0.9839,-1.0471,-1.0266,3.5316,3.5331,3.5331,3.5511,3.569,3.569,3.626,3.7161,3.7546,3.7301,3.7328,3.7564,3.6629,3.6214,3.5505,3.5329,3.4968,3.4471,3.3889,3.3513,3.3432,3.2943,3.2341,3.1612,3.076,2.9521,2.8747,2.8299,2.8183,2.7744,2.667,2.5433,2.5283,2.4545,2.3666,2.3378,2.2683,2.1395,2.0787,2.0092,1.8875,1.7763,1.6332,1.4897,1.3656,1.2807,1.1319,1.0364,0.9398,0.7691,0.7153,0.5967,0.4236,0.2393,0.1089,0.1088,0.054,0.0323,0.0215,0.0,-0.0325,-0.0545,-0.0543,-0.1193,-0.2493,-0.2705,-0.2921,-0.3467,-0.3689,-0.4128,-0.4561,-0.4412,-0.4623,-0.4918,-0.522,-0.5627,-0.5945,-0.6311,-0.6433,-0.7117,-0.726,-0.7376,-0.7306,-0.7329,-0.7679,-0.8102,-0.8643,-0.8964,-0.8737,-0.8416,-0.794,-0.7739,-0.7798,-0.7822,-0.7828,-0.7792,-0.7583,-0.7453,-0.7142,-0.7589,-0.781,-0.8265,-0.8688,-0.8769,-0.8888,-0.8909,-0.8994,-0.9226,-0.9555,-0.9931,-1.0089,-1.0135,-1.0809,-1.1707,-1.1707,3.4371,3.3992,3.3777,3.4032,3.449,3.4346,3.4704,3.5264,3.5325,3.546,3.5722,3.5085,3.5041,3.5039,3.4844,3.5149,3.5375,3.5046,3.4366,3.3703,3.3081,3.2614,3.1924,3.1188,3.0415,2.9367,2.8389,2.8029,2.7444,2.6304,2.5281,2.4905,2.4545,2.378,2.2534,2.2162,2.1379,2.0191,1.9377,1.8775,1.7661,1.6242,1.4585,1.397,1.2491,1.154,1.0258,0.9291,0.8013,0.6825,0.5315,0.3366,0.1413,0.0321,-0.0212,-0.0317,-0.0941,-0.1135,-0.1341,-0.1753,-0.2375,-0.2776,-0.2981,-0.3738,-0.4422,-0.4556,-0.4797,-0.5079,-0.5207,-0.5211,-0.5211,-0.5207,-0.5323,-0.563,-0.5779,-0.6089,-0.6666,-0.7549,-0.8296,-0.8201,-0.8228,-0.8228,-0.7998,-0.7876,-0.8162,-0.8655,-0.9193,-0.9412,-0.923,-0.8918,-0.851,-0.8347,-0.8445,-0.8497,-0.8503,-0.8378,-0.8246,-0.8227,-0.8003,-0.8121,-0.8419,-0.8814,-0.9179,-0.9378,-0.9609,-0.9525,-0.9639,-1.0013,-1.0448,-1.0768,-1.0995,-1.1025,-1.1444,-1.243,-1.2732,3.3571,3.2853,3.2465,3.2663,3.3218,3.3115,3.3101,3.3099,3.3146,3.3782,3.3967,3.3176,3.3226,3.381,3.3892,3.4302,3.4809,3.4613,3.4338,3.3554,3.2636,3.1851,3.0893,3.0193,2.9557,2.8903,2.8119,2.7464,2.6784,2.4998,2.3812,2.4167,2.3624,2.2734,2.1346,2.0854,1.9977,1.876,1.7634,1.6921,1.6126,1.4481,1.3447,1.3132,1.1425,1.0258,0.9405,0.7691,0.6482,0.5361,0.33,0.1161,-0.0211,-0.1035,-0.1433,-0.1627,-0.2092,-0.2553,-0.2747,-0.3741,-0.4605,-0.453,-0.4738,-0.5333,-0.57,-0.5414,-0.5484,-0.5685,-0.584,-0.5904,-0.6004,-0.5826,-0.6013,-0.6318,-0.6522,-0.6951,-0.7769,-0.9066,-0.9715,-0.9666,-0.9578,-0.9538,-0.9362,-0.8732,-0.8821,-0.9177,-0.9498,-0.9795,-0.9617,-0.9455,-0.9203,-0.8947,-0.9033,-0.9091,-0.8989,-0.8866,-0.8961,-0.9171,-0.8901,-0.8923,-0.9382,-0.9772,-0.9828,-1.0046,-1.0328,-1.0503,-1.0512,-1.088,-1.1177,-1.1493,-1.1674,-1.1878,-1.2287,-1.3187,-1.372,3.3353,3.2772,3.2434,3.2041,3.1904,3.214,3.1614,3.0543,3.2077,3.2885,3.2715,3.2983,3.2658,3.2608,3.254,3.2718,3.2894,3.2782,3.2519,3.2395,3.1851,3.0702,2.9381,2.8531,2.8066,2.7735,2.7058,2.6111,2.4899,2.3983,2.3061,2.2362,2.2877,2.2067,2.0044,1.9513,1.8832,1.7399,1.6197,1.5181,1.4088,1.3012,1.2158,1.1845,1.0488,0.9184,0.7549,0.6043,0.4481,0.2904,0.0805,-0.03,-0.0796,-0.2376,-0.295,-0.3136,-0.3791,-0.4543,-0.5155,-0.5016,-0.5239,-0.551,-0.5615,-0.5882,-0.6472,-0.6684,-0.6913,-0.7502,-0.7519,-0.7576,-0.7576,-0.7544,-0.7576,-0.7694,-0.8016,-0.9053,-1.0469,-1.1369,-1.1416,-1.0752,-1.0544,-1.0277,-0.9921,-0.9642,-0.9696,-1.0175,-1.0042,-1.033,-1.029,-1.0164,-1.0059,-0.9811,-0.9764,-0.9723,-0.9715,-0.9601,-1.0032,-1.018,-0.9959,-1.0074,-1.0609,-1.0675,-1.0698,-1.0822,-1.1261,-1.1434,-1.1534,-1.1707,-1.1881,-1.2181,-1.2426,-1.2681,-1.3054,-1.382,-1.4336,3.3925,3.329,3.2965,3.2597,3.2158,3.1845,3.1712,3.1514,3.115,3.0678,3.0492,3.0757,3.0872,3.0912,3.0899,3.1182,3.1673,3.1367,3.1209,3.1264,3.0713,2.9292,2.7496,2.6327,2.5901,2.5599,2.4646,2.3786,2.2805,2.1326,2.0446,2.0037,1.9944,1.9164,1.765,1.6817,1.5857,1.4719,1.3731,1.2945,1.2304,1.1388,1.0566,0.9641,0.8918,0.7703,0.6009,0.4422,0.2384,0.0302,-0.079,-0.1763,-0.2735,-0.3548,-0.4069,-0.4626,-0.5076,-0.539,-0.5748,-0.6551,-0.6731,-0.6653,-0.7811,-0.8175,-0.8151,-0.8481,-0.8788,-0.9187,-0.9346,-0.9346,-0.9346,-0.9346,-0.9354,-0.9275,-0.9343,-0.9633,-1.0336,-1.0986,-1.1055,-1.0868,-1.077,-1.077,-1.0593,-1.077,-1.0946,-1.1075,-1.0768,-1.1045,-1.0976,-1.1091,-1.1053,-1.1017,-1.0981,-1.1179,-1.1311,-1.1595,-1.2013,-1.1483,-1.1302,-1.1551,-1.1758,-1.1893,-1.1959,-1.2167,-1.2243,-1.2483,-1.2674,-1.2858,-1.2794,-1.2786,-1.315,-1.3473,-1.3645,-1.4143,-1.4587,3.4359,3.37,3.3417,3.2897,3.2281,3.1845,3.1886,3.2,3.02,2.9449,2.8957,2.8893,2.9029,2.9062,2.9115,2.9432,2.9819,2.9702,2.9667,2.9667,2.8915,2.7179,2.5387,2.4425,2.3989,2.3777,2.2969,2.1756,2.0877,1.9254,1.8175,1.7804,1.7126,1.6068,1.5164,1.4113,1.3038,1.2296,1.1369,1.0807,1.0669,0.9606,0.8583,0.7651,0.6975,0.5915,0.4588,0.3151,0.1,-0.1742,-0.2393,-0.3325,-0.4524,-0.4976,-0.5356,-0.5876,-0.618,-0.642,-0.6935,-0.7706,-0.8203,-0.811,-0.9206,-0.9943,-0.9555,-0.9749,-1.0071,-1.0178,-1.0276,-1.0249,-1.0258,-1.0148,-1.0249,-1.0296,-1.0506,-1.0755,-1.0893,-1.1009,-1.126,-1.1093,-1.1292,-1.124,-1.1261,-1.1335,-1.1587,-1.185,-1.2243,-1.2734,-1.1655,-1.1386,-1.0975,-1.1272,-1.1683,-1.2303,-1.289,-1.3266,-1.3277,-1.2557,-1.2676,-1.2852,-1.3424,-1.3305,-1.3255,-1.3205,-1.301,-1.3071,-1.3389,-1.3617,-1.3509,-1.3381,-1.3593,-1.3695,-1.4016,-1.4473,-1.4868,3.4381,3.3792,3.3544,3.2779,3.1732,3.2002,3.1455,3.0257,3.0028,2.9738,2.9043,2.8541,2.7959,2.7482,2.7536,2.755,2.7342,2.7492,2.7545,2.6947,2.5949,2.4752,2.3766,2.3252,2.2875,2.257,2.1742,2.0753,1.9476,1.7676,1.6909,1.6328,1.4791,1.3726,1.3046,1.2066,1.1348,1.1028,1.013,0.9552,0.9473,0.7819,0.6639,0.6321,0.5604,0.4542,0.3231,0.2142,0.0287,-0.2686,-0.4213,-0.5127,-0.5786,-0.6543,-0.6895,-0.7068,-0.7721,-0.8466,-0.9052,-0.9035,-0.9119,-0.9906,-1.0159,-0.9935,-0.9991,-1.0114,-1.0152,-1.02,-1.0095,-0.9972,-1.0067,-1.0085,-1.0076,-1.0076,-1.143,-1.2211,-1.2508,-1.2697,-1.2602,-1.2176,-1.1927,-1.1844,-1.1666,-1.1772,-1.2022,-1.2377,-1.3484,-1.3459,-1.2567,-1.1772,-1.0957,-1.0936,-1.1346,-1.2032,-1.2992,-1.335,-1.3436,-1.3239,-1.3788,-1.4667,-1.5584,-1.4789,-1.4408,-1.3892,-1.3453,-1.3617,-1.3811,-1.4055,-1.4042,-1.4123,-1.4069,-1.4001,-1.4218,-1.4668,-1.511,3.3039,3.2704,3.3272,3.3045,3.2281,3.2054,3.1246,3.0054,2.9598,2.95,2.9274,2.8411,2.7493,2.6854,2.67,2.6635,2.6515,2.5995,2.5267,2.4212,2.3543,2.2887,2.2086,2.1806,2.1081,1.9909,1.9382,1.8372,1.6789,1.5293,1.4278,1.3473,1.2068,1.1228,1.0887,1.0024,0.9314,0.9128,0.8438,0.7818,0.7589,0.7384,0.5981,0.3771,0.4005,0.3083,0.0848,-0.0918,-0.234,-0.3639,-0.5069,-0.6138,-0.6916,-0.7599,-0.828,-0.8798,-0.956,-1.0075,-1.0327,-1.0485,-1.0737,-1.0579,-1.1166,-1.1333,-1.1009,-1.126,-1.1438,-1.1438,-1.1438,-1.1438,-1.1438,-1.1449,-1.1761,-1.2248,-1.318,-1.3591,-1.3768,-1.3919,-1.3824,-1.366,-1.3484,-1.3414,-1.325,-1.3275,-1.3193,-1.3288,-1.4038,-1.4038,-1.3383,-1.2933,-1.2768,-1.259,-1.2201,-1.2448,-1.3168,-1.3427,-1.3496,-1.43,-1.5094,-1.6132,-1.7087,-1.6291,-1.5496,-1.4971,-1.4513,-1.4673,-1.516,-1.516,-1.5,-1.4933,-1.4948,-1.4962,-1.5057,-1.5299,-1.5716,3.1688,3.1316,3.2378,3.2386,3.1779,3.1663,3.1168,3.0252,2.9365,2.8801,2.8352,2.7692,2.6944,2.6228,2.5806,2.5582,2.5405,2.4771,2.3759,2.2729,2.2722,2.2219,2.1439,2.1145,2.0082,1.8519,1.7587,1.6135,1.4543,1.3143,1.1976,1.1072,1.0084,0.9391,0.9172,0.8389,0.7799,0.745,0.6955,0.6352,0.559,0.556,0.4213,0.1578,0.1923,0.0838,-0.2266,-0.3959,-0.4944,-0.5213,-0.6316,-0.7421,-0.845,-0.9204,-0.9719,-1.0327,-1.0747,-1.0915,-1.1093,-1.1677,-1.1821,-1.1821,-1.2496,-1.2826,-1.2496,-1.2768,-1.2958,-1.2958,-1.304,-1.2958,-1.2863,-1.2945,-1.3275,-1.4027,-1.4245,-1.4327,-1.4245,-1.4408,-1.4543,-1.4543,-1.4462,-1.4489,-1.4503,-1.4761,-1.4517,-1.4259,-1.4654,-1.4668,-1.4027,-1.4136,-1.4436,-1.3945,-1.3729,-1.3514,-1.3879,-1.4218,-1.4933,-1.604,-1.661,-1.7447,-1.7906,-1.7732,-1.6894,-1.6264,-1.5872,-1.5966,-1.6626,-1.6831,-1.65,-1.6357,-1.6357,-1.6294,-1.615,-1.6388,-1.6768,3.0516,2.9846,3.0526,3.0632,3.0029,3.0829,3.0991,3.0286,2.9477,2.7994,2.6621,2.6356,2.6137,2.5453,2.4795,2.4036,2.3735,2.3524,2.2942,2.2215,2.2536,2.2168,2.1333,2.1071,2.0307,1.9192,1.6642,1.4663,1.32,1.1655,1.0495,0.9822,0.8967,0.828,0.7948,0.7371,0.679,0.6272,0.6012,0.5137,0.3558,0.2003,0.1046,0.052,-0.0523,-0.2625,-0.5828,-0.6396,-0.6988,-0.7528,-0.8219,-0.9248,-1.0327,-1.1155,-1.1489,-1.1333,-1.1009,-1.126,-1.1927,-1.2259,-1.2826,-1.3427,-1.4082,-1.4245,-1.4055,-1.4164,-1.4027,-1.3863,-1.4014,-1.4014,-1.366,-1.4001,-1.4327,-1.4422,-1.4489,-1.4571,-1.4489,-1.4408,-1.4489,-1.4638,-1.4705,-1.4719,-1.5071,-1.5423,-1.5489,-1.4976,-1.5342,-1.5614,-1.4895,-1.4786,-1.461,-1.461,-1.4691,-1.4838,-1.4933,-1.5175,-1.6531,-1.7709,-1.8098,-1.8442,-1.8917,-1.894,-1.8183,-1.8278,-1.7883,-1.7814,-1.8491,-1.8679,-1.8355,-1.8278,-1.8029,-1.7952,-1.8081,-1.8287,-1.8502,2.9084,2.9247,3.0557,3.0165,2.8899,3.0464,3.0237,2.8605,2.8444,2.7912,2.7032,2.6159,2.5655,2.5318,2.4774,2.3546,2.1711,2.1366,2.1071,2.0814,2.0645,2.0385,1.997,1.9439,1.8963,1.833,1.6357,1.4421,1.2555,1.0485,0.9137,0.8373,0.7784,0.7028,0.6248,0.6346,0.5564,0.4167,0.3915,0.2781,0.0866,0.0,-0.0781,-0.2165,-0.4057,-0.6383,-0.89,-0.9044,-0.9204,-0.9466,-1.0234,-1.0821,-1.1405,-1.233,-1.2768,-1.2496,-1.2578,-1.2908,-1.3263,-1.3237,-1.3484,-1.4164,-1.434,-1.4422,-1.4408,-1.4259,-1.4109,-1.4014,-1.3919,-1.3919,-1.4001,-1.4571,-1.5057,-1.5057,-1.5138,-1.5204,-1.5379,-1.5489,-1.5555,-1.5606,-1.543,-1.527,-1.5365,-1.5394,-1.5394,-1.535,-1.5796,-1.6211,-1.6006,-1.596,-1.6104,-1.5991,-1.6181,-1.634,-1.6388,-1.7067,-1.8425,-1.9098,-1.9554,-1.9629,-1.9818,-1.98,-1.9668,-2.0064,-2.0196,-2.0119,-2.0155,-2.0418,-2.0492,-2.0492,-2.0249,-1.9837,-1.9969,-2.031,-2.0515,2.7885,2.8122,2.9249,2.9067,2.8154,2.9696,2.9386,2.7795,2.8087,2.7896,2.7054,2.6103,2.5294,2.4635,2.3967,2.2622,2.0869,2.0177,1.9856,1.9779,1.9342,1.9112,1.903,1.8786,1.8442,1.796,1.6531,1.4434,1.1799,0.9213,0.7606,0.6922,0.6156,0.5122,0.4344,0.4612,0.3561,0.1213,0.1302,0.0347,-0.1732,-0.2691,-0.3986,-0.6121,-0.7902,-0.9541,-1.0862,-1.1394,-1.1539,-1.1384,-1.2047,-1.2625,-1.2884,-1.3402,-1.3755,-1.3906,-1.4055,-1.4232,-1.4245,-1.4313,-1.4381,-1.4571,-1.4733,-1.48,-1.48,-1.4585,-1.4422,-1.434,-1.4164,-1.4394,-1.4895,-1.5379,-1.5941,-1.6181,-1.6325,-1.6483,-1.6658,-1.6737,-1.6674,-1.6499,-1.6245,-1.5911,-1.5766,-1.5621,-1.554,-1.5591,-1.6021,-1.626,-1.6309,-1.6531,-1.6689,-1.6879,-1.7306,-1.7777,-1.7804,-1.8963,-1.9951,-2.0531,-2.0963,-2.1097,-2.134,-2.1406,-2.1252,-2.1554,-2.1606,-2.1577,-2.1515,-2.1774,-2.2126,-2.2198,-2.227,-2.1939,-2.1556,-2.2398,-2.2636,2.7059,2.6735,2.6933,2.7284,2.7652,2.8304,2.824,2.7653,2.825,2.7622,2.6292,2.5816,2.4792,2.3246,2.2198,2.1439,2.0829,1.9762,1.9174,1.8904,1.8467,1.8555,1.8816,1.9053,1.8597,1.7553,1.6468,1.4259,1.0894,0.7855,0.607,0.5634,0.4159,0.2862,0.1994,0.1998,0.0694,-0.1732,-0.1389,-0.2082,-0.4077,-0.6179,-0.8312,-1.0455,-1.181,-1.2059,-1.2142,-1.3363,-1.3921,-1.3351,-1.3745,-1.4326,-1.4919,-1.4719,-1.4895,-1.5379,-1.546,-1.5218,-1.4933,-1.5189,-1.5365,-1.5057,-1.5123,-1.543,-1.535,-1.5218,-1.5152,-1.499,-1.4828,-1.5057,-1.5846,-1.5926,-1.6483,-1.729,-1.762,-1.7587,-1.7821,-1.757,-1.7665,-1.7037,-1.6879,-1.6721,-1.6116,-1.6325,-1.6165,-1.5911,-1.6021,-1.626,-1.6245,-1.6404,-1.6816,-1.7368,-1.7916,-1.8561,-1.9687,-2.0567,-2.1431,-2.2177,-2.2644,-2.2867,-2.3083,-2.3276,-2.3045,-2.3002,-2.3007,-2.3012,-2.2946,-2.318,-2.3689,-2.3991,-2.4106,-2.3921,-2.3505,-2.4406,-2.4545,2.7788,2.7285,2.6781,2.594,2.4951,2.5923,2.6184,2.5916,2.6024,2.6348,2.6547,2.5107,2.3527,2.2033,2.0843,1.9687,1.8425,1.7459,1.6531,1.5759,1.5407,1.6371,1.7841,1.6067,1.5132,1.5321,1.4529,1.2789,1.0392,0.7606,0.5295,0.3724,0.277,0.1213,-0.0956,-0.2691,-0.3298,-0.3298,-0.3734,-0.4677,-0.6542,-0.8849,-1.0884,-1.246,-1.3212,-1.3879,-1.4434,-1.4867,-1.5094,-1.5292,-1.5386,-1.5721,-1.6309,-1.6563,-1.6737,-1.6895,-1.6705,-1.6674,-1.6878,-1.6009,-1.5481,-1.5218,-1.4814,-1.4895,-1.5218,-1.5233,-1.5233,-1.5676,-1.4652,-1.4432,-1.4652,-1.4881,-1.5313,-1.6177,-1.6147,-1.6165,-1.6483,-1.6942,-1.7037,-1.6658,-1.7116,-1.7508,-1.6974,-1.6737,-1.6642,-1.6245,-1.634,-1.6483,-1.68,-1.7352,-1.7743,-1.7838,-1.8537,-1.9649,-2.1105,-2.2084,-2.299,-2.3829,-2.4683,-2.5168,-2.5671,-2.5213,-2.4868,-2.4444,-2.4585,-2.4698,-2.4952,-2.5272,-2.5708,-2.6087,-2.6071,-2.5673,-2.5575,-2.5375,-2.5466,2.8022,2.7487,2.6695,2.5368,2.4063,2.485,2.4886,2.4431,2.5287,2.5683,2.56,2.3898,2.2321,2.0991,1.9536,1.82,1.6942,1.5911,1.4593,1.3346,1.3787,1.4652,1.5769,1.4137,1.3595,1.3716,1.2966,1.155,0.9691,0.7538,0.5222,0.2707,0.1033,-0.0694,-0.2691,-0.4261,-0.5213,-0.5457,-0.5887,-0.7322,-0.9589,-1.1362,-1.2872,-1.4191,-1.4705,-1.535,-1.5991,-1.6388,-1.6705,-1.7129,-1.724,-1.7492,-1.796,-1.8115,-1.8253,-1.862,-1.8567,-1.8702,-1.9046,-1.748,-1.6342,-1.6119,-1.4786,-1.4177,-1.4747,-1.4666,-1.6477,-1.9637,-1.995,-1.8898,-1.8255,-1.759,-1.7059,-1.6468,-1.5987,-1.6006,-1.653,-1.6895,-1.6784,-1.6325,-1.6879,-1.7053,-1.642,-1.6515,-1.6658,-1.6816,-1.6579,-1.68,-1.7352,-1.7508,-1.7821,-1.846,-1.9402,-2.0661,-2.2249,-2.3714,-2.49,-2.5816,-2.6722,-2.7214,-2.7484,-2.706,-2.6519,-2.5836,-2.6255,-2.6675,-2.7068,-2.7179,-2.7461,-2.8019,-2.7888,-2.7852,-2.7835,-2.7127,-2.7189,2.8008,2.7331,2.6502,2.5273,2.3874,2.4353,2.4019,2.343,2.5338,2.5418,2.3874,2.2436,2.1138,1.9856,1.8183,1.6783,1.5626,1.4677,1.3205,1.1852,1.288,1.32,1.3036,1.3162,1.308,1.2378,1.1694,1.0455,0.8696,0.7333,0.5248,0.229,-0.0508,-0.2415,-0.3537,-0.4241,-0.572,-0.8389,-0.8172,-0.9673,-1.2978,-1.3578,-1.4476,-1.5956,-1.6276,-1.6579,-1.7037,-1.7804,-1.8407,-1.885,-1.9058,-1.9382,-1.98,-1.9554,-1.9725,-2.0656,-2.0984,-2.1235,-2.1484,-1.9847,-1.87,-1.7801,-1.6177,-1.526,-1.5624,-1.5504,-1.8865,-2.4893,-2.7218,-2.5868,-2.4385,-2.276,-2.1294,-1.9868,-1.8586,-1.742,-1.8425,-1.8201,-1.7925,-1.7102,-1.8415,-1.7293,-1.7682,-1.8075,-1.8134,-1.8444,-1.7219,-1.642,-1.7178,-1.6958,-1.7257,-2.0072,-2.1224,-2.2669,-2.4219,-2.5979,-2.7481,-2.8162,-2.9081,-2.9436,-2.9273,-2.8953,-2.8446,-2.7843,-2.7864,-2.8636,-2.87,-2.8609,-2.9019,-2.9628,-2.9771,-2.9943,-3.0199,-2.9542,-2.9373,2.8011,2.7183,2.6297,2.4797,2.2922,2.2029,2.2025,2.2747,2.3462,2.3192,2.2228,2.1211,1.9874,1.8249,1.6421,1.4716,1.3118,1.1799,1.104,1.0509,0.9691,1.0515,1.2124,1.0075,0.9532,1.0318,0.9382,0.8365,0.7393,0.5869,0.4216,0.2364,-0.0493,-0.2811,-0.4545,-0.6039,-0.7514,-0.9069,-1.0465,-1.2201,-1.4137,-1.4719,-1.546,-1.634,-1.6832,-1.7385,-1.8115,-1.8868,-1.9611,-2.0232,-2.0402,-2.0829,-2.1638,-2.1472,-2.1867,-2.3017,-2.3877,-2.4623,-2.5136,-2.4905,-2.4483,-2.3802,-2.3312,-2.3298,-2.3843,-2.3945,-2.4883,-2.6448,-2.7259,-2.6963,-2.646,-2.5834,-2.6282,-2.7656,-2.6184,-2.4032,-2.2564,-2.4371,-2.5749,-2.5373,-2.5882,-2.5953,-2.5678,-2.5555,-2.4194,-2.1236,-1.788,-1.5801,-1.5941,-1.626,-1.9606,-2.4642,-2.7447,-2.7855,-2.9116,-3.0199,-3.0887,-3.1428,-3.1506,-3.1572,-3.1663,-3.0995,-3.0386,-3.066,-3.098,-3.0896,-3.0776,-3.0503,-3.0572,-3.1157,-3.1055,-3.1242,-3.256,-3.2456,-3.2753,2.8157,2.7027,2.6073,2.4746,2.3065,2.0915,2.0286,2.076,2.1538,2.1399,2.0567,1.995,1.8343,1.6092,1.4363,1.2377,1.0195,0.9178,0.8233,0.7449,0.74,0.8474,1.0265,0.8304,0.777,0.8551,0.7784,0.7021,0.6371,0.4715,0.3186,0.1704,-0.0702,-0.3091,-0.513,-0.6898,-0.8373,-0.9787,-1.1258,-1.2546,-1.3727,-1.4366,-1.5048,-1.5933,-1.69,-1.7777,-1.8614,-1.948,-2.0118,-2.0421,-2.115,-2.1772,-2.2355,-2.2579,-2.3268,-2.4609,-2.5783,-2.6802,-2.7805,-2.8411,-2.8299,-2.7151,-2.6251,-2.7539,-3.2174,-3.2563,-3.2509,-3.2525,-3.2387,-3.2362,-3.2493,-3.0669,-3.0917,-3.4406,-3.0035,-2.7084,-2.6857,-2.766,-2.776,-2.756,-2.8018,-2.8275,-2.8057,-2.8147,-2.7146,-2.5486,-2.3441,-2.1879,-2.1903,-2.1671,-2.3439,-2.8036,-2.9732,-3.0415,-3.1335,-3.2398,-3.3117,-3.3324,-3.331,-3.3595,-3.4064,-3.321,-3.2673,-3.2941,-3.2884,-3.2628,-3.2499,-3.2033,-3.2095,-3.2511,-3.2442,-3.2679,-3.3604,-3.4119,-3.4178,2.8134,2.6593,2.5654,2.4409,2.2903,2.0093,1.8711,1.846,1.818,1.8261,1.8437,1.8123,1.6405,1.3627,1.2073,1.0043,0.7662,0.6804,0.5415,0.377,0.5415,0.6738,0.7643,0.685,0.65,0.6586,0.6334,0.5909,0.5159,0.3526,0.203,0.0716,-0.096,-0.2954,-0.533,-0.7103,-0.88,-1.0386,-1.148,-1.2412,-1.2948,-1.3672,-1.4454,-1.5342,-1.7052,-1.8262,-1.8967,-2.0569,-2.102,-2.0175,-2.1668,-2.261,-2.2713,-2.3278,-2.4404,-2.6153,-2.742,-2.865,-2.9997,-3.1091,-3.1231,-3.014,-2.8492,-3.0765,-3.8648,-3.9394,-3.9389,-3.9444,-3.8877,-3.9238,-3.9183,-3.5848,-3.5148,-3.819,-3.2771,-2.9343,-3.1814,-3.0558,-2.941,-2.9428,-2.8863,-2.9279,-2.9869,-3.0011,-3.0198,-2.9343,-2.8733,-2.9128,-2.8243,-2.8937,-2.9567,-3.0355,-3.1247,-3.209,-3.3459,-3.4303,-3.4958,-3.483,-3.5026,-3.5344,-3.6067,-3.5089,-3.4206,-3.4087,-3.4,-3.3907,-3.3796,-3.3416,-3.3321,-3.3682,-3.3792,-3.3839,-3.4151,-3.45,-3.4644,2.7321,2.4909,2.4373,2.2304,1.9134,1.7616,1.7635,1.8096,0.0,0.0,0.0,1.4499,1.3205,1.1132,0.9877,0.8233,0.65,0.5198,0.3634,0.19,0.3461,0.4245,0.4336,0.3998,0.3911,0.4163,0.4088,0.3658,0.2949,0.2072,0.0956,-0.0231,-0.073,-0.1989,-0.4097,-0.7306,-0.961,-1.0956,-1.2533,-1.3668,-1.4505,-1.495,-1.5484,-1.5942,-1.8718,-1.9875,-1.9288,-2.3525,-2.4296,-2.0969,-2.2338,-2.3658,-2.4383,-2.4053,-2.5476,-2.9076,-3.0657,-3.1754,-3.2575,-3.3854,-3.5198,-3.6498,-3.6801,-3.7769,-3.9409,-3.9704,-3.9679,-3.9615,-3.9501,-3.9401,-3.9437,-3.8622,-3.8618,-3.9477,-3.8265,-3.7395,-3.7889,-3.7535,-3.682,-3.7239,-3.6826,-3.7123,-3.6856,-3.6886,-3.6219,-3.3242,-3.2681,-3.1633,-2.9383,-3.3258,-3.6996,-3.7159,-3.7001,-3.7762,-3.8029,-3.7992,-3.7822,-3.7408,-3.6989,-3.6966,-3.7324,-3.6581,-3.5404,-3.4686,-3.5198,-3.5367,-3.5149,-3.4435,-3.4129,-3.4413,-3.4336,-3.4369,-3.4567,-3.5183,-3.5748,2.111,0.0,1.6426,1.3134,0.0,0.5961,0.5083,0.4398,-0.165,-0.0543,0.5286,0.2168,0.3484,0.791,0.3509,0.0674,-0.0826,0.1583,-0.1656,-0.8888,-0.1333,0.287,0.3915,0.3221,0.3394,0.4257,0.4266,0.3915,0.3208,0.1918,0.0969,0.0395,-0.1101,-0.2508,-0.4011,-0.6346,-0.8897,-1.1553,-1.2323,-1.3173,-1.4052,-1.4627,-1.5408,-1.6441,-1.904,0.0,0.0,0.0,0.0,0.0,0.0,0.0,0.0,0.0,0.0,-2.7335,-2.76,-2.7266,-2.6642,-2.8561,-3.1041,-3.3633,-3.4812,-3.5789,-3.683,-3.8687,-3.9026,-3.739,-3.8608,-3.9513,-3.9627,-3.9601,-3.9572,-3.9642,-3.9721,-3.974,-3.9645,-3.9615,-3.9572,-3.9549,-3.9514,-3.9486,-3.9462,-3.9476,-3.854,-3.6921,-3.6665,-3.6011,-3.4561,-3.7361,-3.9883,-3.9864,-3.9742,-3.9646,-3.9539,-3.9202,-3.8862,-3.8616,-3.8136,-3.7992,-3.8263,-3.7305,-3.6314,-3.5687,-3.6267,-3.6738,-3.6004,-3.5186,-3.4775,-3.5265,-3.5326,-3.5353,-3.5592,-3.5943,-3.6275,1.2954,0.6458,0.6966,0.3161,-0.3645,-0.8169,-1.0584,-1.1489,-1.2981,-1.0315,-0.5223,-0.8621,-0.5821,0.1,-0.3427,-0.7201,-0.9703,-0.7383,-1.1273,-1.933,-0.5591,0.1745,0.3227,0.2699,0.3221,0.4435,0.4608,0.4521,0.408,0.2266,0.1399,0.1226,-0.1436,-0.3252,-0.4378,0.0,0.0,0.0,-1.1938,-1.2725,-1.3686,-1.4408,-1.5475,-1.6973,-1.9372,0.0,-2.1742,-2.3896,-2.4324,-2.2912,-2.5683,0.0,0.0,0.0,0.0,0.0,0.0,0.0,0.0,0.0,0.0,0.0,-2.9638,-3.1253,-3.4736,-3.6867,-3.6722,-3.3853,-3.7419,-3.9714,-3.8987,-3.9341,-3.9834,-4.0126,-4.0012,-3.9969,-4.0154,-3.9872,-3.9702,-3.9663,-3.9707,-3.9685,-3.9658,-3.969,-3.9693,-3.9583,-3.9832,-3.9863,-3.9643,-3.9741,-3.9978,-3.9939,-3.9784,-3.9711,-3.9707,-3.9458,-3.9172,-3.8993,-3.8732,-3.8539,-3.8516,-3.7872,-3.7131,-3.6609,-3.7284,-3.7568,-3.6731,-3.5932,-3.565,-3.6138,-3.6204,-3.6518,-3.7463,-3.7498,-3.7289,0.4529,0.1637,-0.033,-0.2737,-0.6363,-2.0334,-2.4219,-2.0836,-2.128,-1.885,-1.4085,-0.7231,-0.767,-1.3117,-0.8473,-1.0037,-1.7298,-2.9134,-2.9086,-1.8772,-0.5642,0.0262,-0.0087,0.1046,0.1914,0.2523,0.3134,0.3571,0.4009,0.2943,0.1865,0.0983,-0.1529,-0.3435,-0.4867,-0.5309,-0.6841,-0.9497,-1.2059,-1.4148,-1.5575,-1.5919,-1.6748,-1.8133,-2.1074,-2.2624,-2.2375,-2.6429,-2.6944,-2.339,-2.4837,-2.6536,-2.8137,-2.7968,-2.7459,0.0,-2.7681,0.0,0.0,0.0,0.0,0.0,0.0,0.0,0.0,-3.4483,-3.1095,-2.8396,-3.6503,-4.007,-3.5818,-3.8107,-4.0434,-4.1806,-4.0835,-4.0574,-4.1813,-4.0702,-3.979,-3.9701,-3.9748,-3.9787,-3.9673,-3.9759,-3.9832,-3.9886,-4.0013,-4.0141,-4.0029,-4.0046,-4.0052,-4.0015,-3.9908,-3.9825,-3.9759,-3.9614,-3.934,-3.9218,-3.8993,-3.8811,-3.8817,-3.8441,-3.8019,-3.7776,-3.7876,-3.7877,-3.7299,-3.7003,-3.68,-3.68,-3.6836,-3.7882,-4.057,-4.0881,-4.0774,-0.3315,-0.881,-0.9991,-1.3516,-1.8776,-2.6005,-2.8636,-2.7823,-2.87,-2.8646,-2.7451,-2.0645,-1.532,-1.1465,-1.2187,-1.4444,-1.8126,-2.5129,-2.5094,-1.9167,-1.5779,-0.8994,0.0,-0.6738,-0.8461,-0.5432,-0.4381,-0.3275,-0.1991,0.1499,0.2846,0.1863,-0.0247,-0.2197,-0.3821,-0.5072,-0.6411,-0.7903,-1.0101,-1.2295,-1.4476,-1.6386,-1.7521,-1.8044,-2.1438,-2.3266,-2.2976,-2.6024,-2.6915,-2.5131,-2.6925,-2.845,-2.9462,-2.641,-2.5252,0.0,0.0,0.0,0.0,0.0,0.0,0.0,0.0,0.0,0.0,0.0,-2.5868,-2.9309,-3.6405,-3.8003,-3.1343,-3.4543,-3.7712,-3.9397,-3.6412,-3.6822,-4.3003,-3.9719,-3.8084,-4.0749,-4.0332,-3.9848,-3.9786,-3.9814,-3.9871,-3.9871,-4.1045,-4.1464,-4.0339,-4.004,-4.0013,-3.997,-3.988,-3.9871,-3.9721,-3.9589,-3.937,-3.9271,-3.9103,-3.899,-3.8996,-3.8697,-3.8427,-3.8222,-3.8226,-3.8211,-3.7836,-3.771,-3.7948,-3.8513,-3.9426,-4.0691,-4.2402,-4.2798,-4.2736,-1.1642,-1.7991,-1.8924,-2.2789,-2.8315,-2.881,-3.0057,-3.1909,-3.2957,-3.4644,-3.6164,-3.0861,-2.1268,-0.927,-1.4474,-1.708,-1.7457,-1.7975,-1.828,-1.8532,-2.0593,-1.5222,-0.4312,-1.4214,-1.701,-1.3025,-1.1566,-0.9509,-0.6463,-0.0774,0.2391,0.2905,0.1043,-0.0995,-0.3112,-0.4563,-0.5943,-0.7179,-0.8608,-1.0406,-1.2863,-1.5811,-1.7573,-1.7953,-2.1007,-2.2804,-2.3324,-2.4868,-2.5806,-2.6066,-2.7305,-2.8399,-2.9121,-2.4301,0.0,0.0,0.0,0.0,0.0,0.0,0.0,0.0,0.0,-2.071,-1.9511,0.0,-2.178,0.0,-3.5189,-3.5648,-2.9111,-3.2182,0.0,0.0,-3.2137,-3.2522,-4.0767,-3.768,-3.6435,-4.0574,-4.0682,-4.0322,-3.9886,-4.0188,-4.06,-4.1035,-4.2401,-4.2685,-4.0981,-4.0756,-4.062,-4.0114,-4.0288,-4.0287,-3.9901,-3.9925,-4.0263,-4.0461,-4.0419,-4.0311,-4.0251,-4.0055,-3.9513,-3.8574,-3.894,-3.9474,-3.934,-3.9249,-3.9849,-4.1205,-4.2877,-4.406,-4.406,-4.4645,-4.4904,-2.115,-2.2165,-2.5346,-2.7249,-2.8216,-2.8739,-3.0034,-3.1683,-3.1829,-3.3001,-3.4354,-2.8678,-2.1712,-1.4205,-1.4802,0.0,-1.7245,-1.5936,-1.5642,-1.5842,-1.0921,-1.1751,-1.7547,-1.8721,-1.8499,-1.7223,-1.5748,-1.1673,-0.548,-0.3927,-0.0839,0.3743,0.1794,-0.073,-0.3477,-0.3751,-0.5205,-0.7855,-0.866,-0.9818,-1.1249,-1.3912,-1.6403,-1.8505,-1.9547,-2.0914,-2.2614,-2.336,-2.4127,-2.4923,-2.351,-2.3465,-2.5308,0.0,0.0,0.0,0.0,0.0,0.0,0.0,0.0,0.0,0.0,0.0,0.0,0.0,0.0,0.0,-3.1587,0.0,-3.1555,-3.3114,0.0,0.0,0.0,-2.9102,-3.2992,-3.4321,-3.5686,-3.7478,0.0,0.0,-4.0049,-4.1235,-4.2742,-4.4288,-4.3868,-4.3106,-4.2469,-4.2703,-4.2365,-4.0507,-4.1344,-4.1788,-4.0604,-4.1125,-4.2183,-4.3348,-4.3933,-4.3691,-4.3557,-4.3466,-4.2069,-3.9292,-4.0984,-4.2752,-4.2535,-4.2515,-4.3096,-4.4694,-4.6156,-4.7176,-4.7031,-4.7075,-4.7114,-2.1396,-2.1736,-2.3993,-2.5907,-2.7444,-2.7362,-2.8476,-3.0435,-3.1232,-3.1609,-3.1409,-2.7749,-2.2601,-1.6522,-1.4115,0.0,0.0,0.0,-1.9573,-1.8418,-1.4611,-1.6045,-2.1785,-2.3505,-2.653,-3.0564,-2.5178,-1.8809,-1.1842,-0.743,-0.2598,0.2307,0.0,0.0,-0.2496,-0.3373,-0.4224,-0.5046,-0.6523,-0.8076,-0.9794,-1.123,-1.3522,-1.6706,-1.979,-2.1475,-2.1575,-2.2939,-2.3301,-2.2618,-2.2613,-2.2158,0.0,0.0,0.0,0.0,0.0,0.0,0.0,0.0,0.0,0.0,0.0,-1.5451,-1.3738,0.0,0.0,0.0,-1.9379,-1.9672,-2.112,-2.6234,0.0,0.0,0.0,0.0,0.0,0.0,0.0,-3.527,-3.7054,-3.8036,-3.8474,-4.1569,-4.404,-4.4791,-4.624,-4.6416,-4.4265,0.0,-4.1771,-4.2864,-4.3478,-4.3639,-4.2955,-4.1679,-4.1586,-4.3948,-4.4265,-4.4721,-4.6467,-4.5194,-4.3451,-4.2193,-4.2637,-4.3408,-4.3227,-4.4751,-4.6261,-4.688,-4.7474,-4.7848,-4.7848,-4.782,-4.7719,-2.0956,0.0,0.0,0.0,0.0,-2.5846,-2.6594,-2.825,-2.9105,-2.9042,-2.8123,-2.4731,0.0,0.0,0.0,0.0,0.0,0.0,-1.6229,-1.2906,-1.3234,-1.5427,-1.9318,-2.4343,-3.1192,-3.8974,-2.9865,-2.2296,-1.6449,-1.0382,-0.4545,0.0982,0.0,0.0,0.0,0.0,-0.3583,-0.3583,-0.5209,-0.6749,-0.8187,-0.9306,-1.1428,-1.4481,-1.8884,-2.0913,-2.0421,-2.1532,-2.1565,-2.029,-2.0191,0.0,0.0,0.0,0.0,0.0,0.0,0.0,0.0,0.0,0.0,0.0,0.0,0.0,0.0,0.0,0.0,0.0,0.0,0.0,-1.5201,-2.1544,-2.5323,0.0,0.0,0.0,0.0,0.0,0.0,0.0,0.0,0.0,-3.6506,-4.1263,-4.5018,0.0,0.0,-4.8674,-4.5992,-4.4024,-4.3132,-4.4015,-4.4121,0.0,-4.2754,-4.1747,-4.1657,-4.3406,-4.48,-4.6362,-4.8718,-4.705,-4.5322,-4.5087,-4.4988,-4.4868,-4.4797,-4.5801,-4.6346,-4.6461,-4.64,-4.6374,-4.6446,-4.7172,-4.765,0.0,0.0,0.0,0.0,0.0,0.0,0.0,0.0,-2.4756,-2.4811,0.0,-1.882,0.0,0.0,0.0,0.0,0.0,-0.3064,0.0,0.0,-0.2696,-0.6635,-0.9131,-1.9664,-2.9886,-3.8029,-2.6957,-1.986,-1.6807,-1.2384,0.0,0.0,0.0,0.0,0.0,0.0,-0.3451,-0.4403,-0.557,-0.6287,-0.6352,-0.8636,-1.0643,-1.2192,-1.6255,-1.8615,-1.9091,-1.8744,-1.8533,-1.8507,-1.5082,0.0,0.0,0.0,0.0,0.0,0.0,0.0,0.0,0.0,0.0,0.0,0.0,0.0,0.0,0.0,0.0,0.0,0.0,0.0,0.0,-2.139,0.0,0.0,0.0,0.0,0.0,0.0,0.0,0.0,0.0,0.0,-3.4357,-4.0207,-4.5649,-4.8534,0.0,0.0,0.0,0.0,-4.7755,-4.3258,-4.2487,-4.143,-3.8299,-4.1421,-4.3789,-4.2491,0.0,0.0,-4.9205,-4.8959,-4.8448,-4.8299,-4.809,-4.8205,-4.7589,-4.476,-4.2823,-4.2628,-4.2561,-4.2542,-4.2721,-4.4684,-4.6769,0.0,0.0,0.0,0.0,0.0,0.0,0.0,0.0,0.0,-2.3948,0.0,-1.5759,0.0,0.0,0.0,0.0,0.0,0.0,0.0,0.0,0.1211,-0.0803,-0.6111,-0.922,-1.5547,0.0,-2.0853,-1.6934,0.0,0.0,0.0,0.0,0.0,0.0,0.0,0.0,-0.2571,-0.2987,-0.3944,-0.4866,-0.5726,-0.75,-0.9091,-1.0552,-1.3662,-1.5911,-1.7016,-1.7458,-1.6992,0.0,0.0,0.0,0.0,0.0,0.0,0.0,0.0,0.0,0.0,0.0,0.0,0.0,0.0,0.0,0.0,0.0,0.0,0.0,0.0,0.0,0.0,0.0,-2.1243,0.0,0.0,0.0,0.0,0.0,0.0,0.0,0.0,0.0,-3.2413,-3.7445,-4.2116,-4.5556,-4.7489,-4.8634,-4.867,0.0,0.0,0.0,0.0,0.0,0.0,0.0,-4.1518,-4.1995,-3.9799,-3.8315,-3.9423,-4.215,-4.5182,-4.8265,0.0,0.0,-3.9383,-3.7217,-3.6426,-3.64,-3.7282,-3.8003,-3.7735,-3.9301,-4.0504,0.0,0.0,0.0,0.0,0.0,0.0,0.0,0.0,0.0,-1.8732,-1.8142,0.0,0.0,0.0,0.0,0.0,0.0,0.0,0.0,0.0,0.0,0.0,-0.4391,-0.3703,0.0,0.0,0.0,0.0,0.0,0.0,0.0,0.0,0.0,0.0,0.0,0.0,-0.2141,-0.2185,-0.3041,-0.3948,-0.4935,-0.6646,-0.8029,-0.9047,-1.163,-1.3931,-1.5695,0.0,0.0,0.0,0.0,0.0,0.0,0.0,0.0,0.0,0.0,0.0,0.0,0.0,0.0,0.0,0.0,0.0,0.0,0.0,0.0,0.0,0.0,0.0,0.0,0.0,-1.9848,0.0,0.0,0.0,0.0,0.0,0.0,0.0,0.0,0.0,0.0,0.0,-3.8109,-4.2665,-4.4273,-4.6083,-4.8979,-4.8634,-4.8251,0.0,0.0,0.0,0.0,0.0,0.0,0.0,0.0,0.0,0.0,0.0,0.0,0.0,0.0,-4.1571,-3.4192,-3.1923,-3.1156,-3.1106,0.0,0.0,0.0,0.0,0.0,0.0,0.0,0.0,0.0,0.0,0.0,0.0,0.0,0.0,0.0,0.0,0.0,0.0,-0.9831,0.0,0.0,0.0,0.0,0.0,0.0,0.0,0.0,0.0,0.0,0.0,0.0,0.0,0.0,0.0,0.0,0.0,0.0,0.0,0.0,0.0,0.0,-0.2095,-0.2105,-0.3035,-0.3672,-0.3926,-0.631,-0.7521,-0.768,-1.0242,-1.278,-1.5219,0.0,0.0,0.0,0.0,0.0,0.0,0.0,0.0,0.0,0.0,0.0,0.0,0.0,0.0,0.0,0.0,0.0,0.0,0.0,0.0,0.0,0.0,0.0,0.0,0.0,0.0,-1.7295,-1.9934,-2.1542,0.0,0.0,0.0,0.0,0.0,0.0,0.0,0.0,0.0,0.0,-3.9748,-4.1405,-4.823,-4.6769,-4.5617,-4.694,-4.5697,-4.3946,-4.2337,-4.4423,-4.4699,0.0,0.0,0.0,0.0,0.0,0.0,0.0,0.0,0.0,0.0,0.0,0.0,0.0,0.0,0.0,0.0,0.0,0.0,0.0,0.0,0.0,0.0,0.0,0.0,0.0,0.0,0.0,0.0,0.0,0.0,0.0,0.0,0.0,0.0,0.0,0.0,0.0,0.0,0.0,0.0,0.0,0.0,0.0,0.0,0.0,0.0,0.0,0.0,0.0,0.0,0.0,0.0,0.0,0.0,-0.16,-0.2009,-0.2999,-0.373,-0.4176,-0.5807,-0.7091,-0.7979,-0.9775,-1.1707,0.0,0.0,0.0,0.0,0.0,0.0,0.0,0.0,0.0,0.0,0.0,0.0,0.0,0.0,0.0,0.0,0.0,0.0,0.0,0.0,0.0,0.0,0.0,0.0,0.0,0.0,0.0,0.0,-2.1371,-2.1302,-1.9559,0.0,0.0,0.0,0.0,0.0,0.0,0.0,0.0,0.0,0.0,-4.3101,-4.6546,-4.7844,-4.8283,-4.8042,-4.7998,-4.7717,-4.6921,-4.5599,-4.3638,-4.061,0.0,0.0,0.0,0.0,0.0,0.0,0.0,0.0,0.0,0.0,0.0,0.0,0.0,0.0,0.0,0.0,0.0,0.0,0.0,0.0,0.0,0.0,0.0,0.0,0.0,0.0,0.0,0.0,0.0,0.0,0.0,0.0,0.0,0.0,0.0,0.0,0.0,0.0,0.0,0.0,0.0,0.0,0.0,0.0,0.0,0.0,0.0,0.0,0.0,0.0,0.0,0.0,0.0,-0.1075,-0.1991,-0.3016,-0.3653,-0.4072,-0.5415,-0.6843,-0.8041,-0.9131,-1.0178,0.0,0.0,0.0,0.0,0.0,0.0,0.0,0.0,0.0,0.0,0.0,0.0,0.0,0.0,0.0,0.0,0.0,0.0,0.0,0.0,0.0,0.0,0.0,0.0,0.0,0.0,0.0,0.0,-1.9218,-1.9458,-1.8893,0.0,0.0,0.0,0.0,0.0,0.0,0.0,0.0,0.0,0.0,-4.239,-4.4597,-4.7622,0.0,0.0,-4.8654,-4.8987,-4.8721,-4.6745,-4.3912,-4.0182,-3.6367,0.0,0.0,0.0,0.0,0.0,0.0,0.0,0.0,0.0,0.0,0.0,0.0,0.0,0.0,0.0,0.0,0.0,0.0,0.0,0.0,0.0,0.0,0.0,0.0,0.0,0.0,0.0,0.0,0.0,0.0,0.0,0.0,0.0,0.0,0.0,0.0,0.0,0.0,0.0,0.0,0.0,0.0,0.0,0.0,0.0,0.0,0.0,0.0,0.0,0.0,0.0,0.0,0.0,-0.1792,-0.3027,-0.3672,-0.363,-0.5258,-0.6791,-0.7992,-0.8495,-0.8602,0.0,0.0,0.0,0.0,0.0,0.0,0.0,0.0,0.0,0.0,0.0,0.0,0.0,0.0,0.0,0.0,0.0,0.0,0.0,0.0,0.0,0.0,0.0,0.0,0.0,0.0,0.0,0.0,0.0,0.0,0.0,0.0,0.0,0.0,0.0,0.0,0.0,0.0,0.0,0.0,0.0,-3.9145,-4.2535,-4.6327,-4.8377,0.0,0.0,-4.7815,-4.7719,-4.7131,-4.4825,-3.8888,0.0,0.0,0.0,0.0,0.0,0.0,0.0,0.0,0.0,0.0,0.0,0.0,0.0,0.0,0.0,0.0,0.0,0.0,0.0,0.0,0.0,0.0,0.0,0.0,0.0,0.0,0.0,0.0,0.0,0.0,0.0,0.0,0.0,0.0,0.0,0.0,0.0,0.0,0.0,0.0,0.0,0.0,0.0,0.0,0.0,0.0,0.0,0.0,0.0,0.0,0.0,0.0,0.0,0.0,-0.0752,-0.2696,-0.3814,-0.3958,-0.5381,-0.6786,-0.8171,-0.9346,0.0,0.0,0.0,0.0,0.0,0.0,0.0,0.0,0.0,0.0,0.0,0.0,0.0,0.0,0.0,0.0,0.0,0.0,0.0,0.0,0.0,0.0,0.0,0.0,0.0,0.0,0.0,-1.0498,0.0,0.0,0.0,0.0,0.0,0.0,0.0,0.0,0.0,0.0,0.0,0.0,0.0,0.0,-3.0547,-4.1569,-4.4379,-4.4791,0.0,0.0,-4.1895,-4.2533,-4.2496,-4.1434,0.0,0.0,0.0,0.0,0.0,0.0,0.0,0.0,0.0,0.0,0.0,0.0,0.0,0.0,0.0,0.0,0.0,0.0,0.0,0.0,0.0,0.0,0.0,0.0,0.0,0.0,0.0,0.0,0.0,0.0,0.0,0.0,0.0,0.0,0.0,0.0,0.0,0.0,0.0,0.0,0.0,0.0,0.0,0.0,0.0,0.0,0.0,0.0,0.0,0.0,0.0,0.0,0.0,0.0,0.0951,-0.0459,-0.2152,-0.3515,-0.4599,-0.5697,-0.7026,-0.8477,-0.9567,-0.9574,0.0,0.0,0.0,0.0,0.0,0.0,0.0,0.0,0.0,0.0,0.0,0.0,0.0,0.0,0.0,0.0,0.0,0.0,0.0,0.0,0.0,0.0,0.0,0.0,0.0,0.0,0.0,0.0,0.0,0.0,0.0,0.0,0.0,0.0,0.0,0.0,0.0,0.0,0.0,0.0,0.0,0.0,-3.8036,-4.1326,0.0,0.0,0.0,-3.6955,-3.8827,0.0,0.0,0.0,0.0,0.0,0.0,0.0,0.0,0.0,0.0,0.0,0.0,0.0,0.0,0.0,0.0,0.0,0.0,0.0,0.0,0.0,0.0,0.0,0.0,0.0,0.0,0.0,0.0,0.0,0.0,0.0,0.0,0.0,0.0,0.0,0.0,0.0,0.0,0.0,0.0,0.0,0.0,0.0,0.0,0.0,0.0,0.0,0.0,0.0,0.0,0.0,0.0,0.0,0.0,0.0,0.0,0.0,-0.038,-0.119,-0.2821,-0.5138,-0.6111,-0.7291,-0.8736,-0.9672,-0.9602,0.0,0.0,0.0,0.0,0.0,0.0,0.0,0.0,0.0,0.0,0.0,0.0,0.0,0.0,0.0,0.0,0.0,0.0,0.0,0.0,0.0,0.0,0.0,0.0,0.0,0.0,0.0,0.0,0.0,0.0,0.0,0.0,0.0,0.0,0.0,0.0,0.0,0.0,0.0,0.0,0.0,-2.3818,-3.3547,-3.7062,-3.7417,0.0,0.0,-3.2206,-3.512,-3.5502,0.0,0.0,0.0,0.0,0.0,0.0,0.0,0.0,0.0,0.0,0.0,0.0,0.0,0.0,0.0,0.0,0.0,0.0,0.0,0.0,0.0,0.0,0.0,0.0,0.0,0.0,0.0,0.0,0.0,0.0,0.0,0.0,0.0,0.0,0.0,0.0,0.0,0.0,0.0,0.0,0.0,0.0,0.0,0.0,0.0,0.0,0.0,0.0,0.0,0.0,0.0,0.0,0.0,0.0,0.0,0.0,0.0765,0.1136,-0.0727,-0.5068,-0.6058,-0.7269,-0.8961,-1.0381,-1.0443,0.0,0.0,0.0,0.0,0.0,0.0,0.0,0.0,0.0,0.0,0.0,0.0,0.0,0.0,0.0,0.0,0.0,0.0,0.0,0.0,0.0,0.0,0.0,0.0,0.0,0.0,0.0,0.0,0.0,0.0,0.0,0.0,0.0,0.0,0.0,0.0,0.0,0.0,0.0,0.0,0.0,-2.3004,-3.2134,-3.0566,0.0,0.0,0.0,0.0,-2.7322,-2.76,0.0,0.0,0.0,0.0,0.0,0.0,0.0,0.0,0.0,0.0,0.0,0.0,0.0,0.0,0.0,0.0,0.0,0.0,0.0,0.0,0.0,0.0,0.0,0.0,0.0,0.0,0.0,0.0,0.0,0.0,0.0,0.0,0.0,0.0,0.0,0.0,0.0,0.0,0.0,0.0,0.0,0.0,0.0,0.0,0.0,0.0,0.0,0.0,0.0,0.0,0.0,0.0,0.0,0.0,0.0,0.0,0.2597,0.1993,-0.0307,-0.4331,-0.6032,-0.7922,-1.0119,-1.1052,-1.0822,0.0,0.0,0.0,0.0,0.0,0.0,0.0,0.0,0.0,0.0,0.0,0.0,0.0,0.0,0.0,0.0,0.0,0.0,0.0,0.0,0.0,0.0,0.0,0.0,0.0,0.0,0.0,0.0,0.0,0.0,0.0,0.0,0.0,0.0,0.0,0.0,0.0,0.0,0.0,0.0,-2.1024,-2.1746,-2.8738,0.0,0.0,0.0,0.0,0.0,0.0,-2.2192,-2.2303,0.0,0.0,0.0,0.0,0.0,0.0,0.0,0.0,0.0,0.0,0.0,0.0,0.0,0.0,0.0,0.0,0.0,0.0,0.0,0.0,0.0,0.0,0.0,0.0,0.0,0.0,0.0,0.0,0.0,0.0,0.0,0.0,0.0,0.0,0.0,0.0,0.0,0.0,0.0,0.0,0.0,0.0,0.0,0.0,0.0,0.0,0.0,0.0,0.0,0.0,0.0,0.0,0.0,0.0,0.0,0.4154,0.2119,-0.0391,-0.3453,-0.607,-0.8663,-1.1222,-1.1549,-1.1072,-0.979,0.0,0.0,0.0,0.0,0.0,0.0,0.0,0.0,0.0,0.0,0.0,0.0,0.0,0.0,0.0,0.0,0.0,0.0,0.0,0.0,0.0,0.0,0.0,0.0,0.0,0.0,0.0,0.0,0.0,0.0,0.0,0.0,0.0,0.0,0.0,0.0,0.0,0.0,0.0,-1.9499,-2.0293,0.0,0.0,0.0,0.0,0.0,0.0,0.0,0.0,-1.834,0.0,0.0,0.0,0.0,0.0,0.0,0.0,0.0,0.0,0.0,0.0,0.0,0.0,0.0,0.0,0.0,0.0,0.0,0.0,0.0,0.0,0.0,0.0,0.0,0.0,0.0,0.0,0.0,0.0,0.0,0.0,0.0,0.0,0.0,0.0,0.0,0.0,0.0,0.0,0.0,0.0,0.0,0.0,0.0,0.0,0.0,0.0,0.0,0.0,0.0,0.0,0.0,0.0,0.0,0.0,0.0,0.2304,-0.01,-0.3453,-0.607,-0.877,-1.1558,-1.1664,-1.1493,-1.1146,0.0,0.0,0.0,0.0,0.0,0.0,0.0,0.0,0.0,0.0,0.0,0.0,0.0,0.0,0.0,0.0,0.0,0.0,0.0,0.0,0.0,0.0,0.0,0.0,0.0,0.0,0.0,0.0,0.0,0.0,0.0,0.0,0.0,0.0,0.0,0.0,0.0,0.0,-1.4644,-1.6874,0.0,0.0,0.0,0.0,0.0,0.0,0.0,0.0,-1.4529,0.0,0.0,0.0,0.0,0.0,0.0,0.0,0.0,0.0,0.0,0.0,0.0,0.0,0.0,0.0,0.0,0.0,0.0,0.0,0.0,0.0,0.0,0.0,0.0,0.0,0.0,0.0,0.0,0.0,0.0,0.0,0.0,0.0,0.0,0.0,0.0,0.0,0.0,0.0,0.0,0.0,0.0,0.0,0.0,0.0,0.0,0.0,0.0,0.0,0.0,0.0,0.0,0.0,0.0,0.0,0.0,0.0,0.0,-0.0302,-0.4648,-0.6609,-0.8977,-1.1857,-1.1581,-1.1367,0.0,0.0,0.0,0.0,0.0,0.0,0.0,0.0,0.0,0.0,0.0,0.0,0.0,0.0,0.0,0.0,0.0,0.0,0.0,0.0,0.0,0.0,0.0,0.0,0.0,0.0,0.0,0.0,0.0,0.0,0.0,0.0,0.0,0.0,0.0,0.0,0.0,0.0,0.0,0.0,0.0,0.0,0.0,0.0,0.0,0.0,0.0,0.0,0.0,0.0,0.0,0.0,0.0,0.0,0.0,0.0,0.0,0.0,0.0,0.0,0.0,0.0,0.0,0.0,0.0,0.0,0.0,0.0,0.0,0.0,0.0,0.0,0.0,0.0,0.0,0.0,0.0,0.0,0.0,0.0,0.0,0.0,0.0,0.0,0.0,0.0,0.0,0.0,0.0,0.0,0.0,0.0,0.0,0.0,0.0,0.0,0.0,0.0,0.0,0.0,0.0,0.0,0.0,0.0,0.0,0.0,0.0,0.0,-0.08,-0.5522,-0.7261,-0.9405,-1.2184,-1.1316,-1.115,0.0,0.0,0.0,0.0,0.0,0.0,0.0,0.0,0.0,0.0,0.0,0.0,0.0,0.0,0.0,0.0,0.0,0.0,0.0,0.0,0.0,0.0,0.0,0.0,0.0,0.0,0.0,0.0,0.0,0.0,0.0,0.0,0.0,0.0,0.0,0.0,0.0,0.0,0.0,0.0,0.0,0.0,0.0,0.0,0.0,0.0,0.0,0.0,-1.0403,0.0,0.0,0.0,0.0,0.0,0.0,0.0,0.0,0.0,0.0,0.0,0.0,0.0,0.0,0.0,0.0,0.0,0.0,0.0,0.0,0.0,0.0,0.0,0.0,0.0,0.0,0.0,0.0,0.0,0.0,0.0,0.0,0.0,0.0,0.0,0.0,0.0,0.0,0.0,0.0,0.0,0.0,0.0,0.0,0.0,0.0,0.0,0.0,0.0,0.0,0.0,0.0,0.0,0.0,0.0,0.0,0.0,0.0,0.0,-0.1372,-0.4871,-0.7595,-0.9862,-1.1646,-1.091,-1.0966,0.0,0.0,0.0,0.0,0.0,0.0,0.0,0.0,0.0,0.0,0.0,0.0,0.0,0.0,0.0,0.0,0.0,0.0,0.0,0.0,0.0,0.0,0.0,0.0,0.0,0.0,0.0,0.0,0.0,0.0,0.0,0.0,0.0,0.0,0.0,0.0,0.0,0.0,0.0,0.0,0.0,0.0,0.0,0.0,0.0,0.0,0.0,0.0,0.0,0.0,0.0,0.0,0.0,0.0,0.0,0.0,0.0,0.0,0.0,0.0,0.0,0.0,0.0,0.0,0.0,0.0,0.0,0.0,0.0,0.0,0.0,0.0,0.0,0.0,0.0,0.0,0.0,0.0,0.0,0.0,0.0,0.0,0.0,0.0,0.0,0.0,0.0,0.0,0.0,0.0,0.0,0.0,0.0,0.0,0.0,0.0,0.0,0.0,0.0,0.0,0.0,0.0,0.0,0.0,0.0,0.0,0.0,0.0,-0.1587,-0.4483,-0.68,-0.8902,-1.0915,-1.0343,-1.0449,0.0,0.0,0.0,0.0,0.0,0.0,0.0,0.0,0.0,0.0,0.0,0.0,0.0,0.0,0.0,0.0,0.0,0.0,0.0,0.0,0.0,0.0,0.0,0.0,0.0,0.0,0.0,0.0,0.0,0.0,0.0,0.0,0.0,0.0,0.0,0.0,0.0,0.0,0.0,0.0,0.0,0.0,0.0,0.0,0.0,0.0,0.0,0.0,0.0,0.0,0.0,0.0,0.0,0.0,0.0,0.0,0.0,0.0,0.0,0.0,0.0,0.0,0.0,0.0,0.0,0.0,0.0,0.0,0.0,0.0,0.0,0.0,0.0,0.0,0.0,0.0,0.0,0.0,0.0,0.0,0.0,0.0,0.0,0.0,0.0,0.0,0.0,0.0,0.0,0.0,0.0,0.0,0.0,0.0,0.0,0.0,0.0,0.0,0.0,0.0,0.0,0.0,0.0,0.0,0.0,0.0,0.0,0.0,0.0,-0.4424,-0.6352,-0.8275,-1.0124,-0.9873,-0.9848,0.0,0.0,0.0,0.0,0.0,0.0,0.0,0.0,0.0,0.0,0.0,0.0,0.0,0.0,0.0,0.0,0.0,0.0,0.0,0.0,0.0,0.0,0.0,0.0,0.0,0.0,0.0,0.0,0.0,0.0,0.0,0.0,0.0,0.0,0.0,0.0,0.0,0.0,0.0,0.0,0.0,0.0,0.0,0.0,0.0,0.0,0.0,0.0,0.0,0.0,0.0,0.0,0.0,0.0,0.0,0.0,0.0,0.0,0.0,0.0,0.0,0.0,0.0,0.0,0.0,0.0,0.0,0.0,0.0,0.0,0.0,0.0,0.0,0.0,0.0,0.0,0.0,0.0,0.0,0.0,0.0,0.0,0.0,0.0,0.0,0.0,0.0,0.0,0.0,0.0,0.0,0.0,0.0,0.0,0.0,0.0,0.0,0.0,0.0,0.0,0.0,0.0,0.0,0.0,0.0,0.0,0.0,0.0,0.0,-0.4914,-0.6992,-0.858,-0.9578,-0.9475,-0.912,0.0,0.0,0.0,0.0,0.0,0.0,0.0,0.0,0.0,0.0,0.0,0.0,0.0,0.0,0.0,0.0,0.0,0.0,0.0,0.0,0.0,0.0,0.0,0.0,0.0,0.0,0.0,0.0,0.0,0.0,0.0,0.0,0.0,0.0,0.0,0.0,0.0,0.0,0.0,0.0,0.0,0.0,0.0,0.0,0.0,0.0,0.0,0.0,0.0,0.0,0.0,0.0,0.0,0.0,0.0,0.0,0.0,0.0,0.0,0.0,0.0,0.0,0.0,0.0,0.0,0.0,0.0,0.0,0.0,0.0,0.0,0.0,0.0,0.0,0.0,0.0,0.0,0.0,0.0,0.0,0.0,0.0,0.0,0.0,0.0,0.0,0.0,0.0,0.0,0.0,0.0,0.0,0.0,0.0,0.0,0.0,0.0,0.0,0.0,0.0,0.0,0.0,0.0,0.0,0.0,0.0,0.0,0.0,0.0,-0.5004,-0.7337,-0.8614,-0.8853,-0.8841,-0.8631,-0.8239,0.0,0.0,0.0,0.0,0.0,0.0,0.0,0.0,0.0,0.0,0.0,0.0,0.0,0.0,0.0,0.0,0.0,0.0,0.0,0.0,0.0,0.0,0.0,0.0,0.0,0.0,0.0,0.0,0.0,0.0,0.0,0.0,0.0,0.0,0.0,0.0,0.0,0.0,0.0,0.0,0.0,0.0,0.0,0.0,0.0,0.0,0.0,0.0,0.0,0.0,0.0,0.0,0.0,0.0,0.0,0.0,0.0,0.0,0.0,0.0,0.0,0.0,0.0,0.0,0.0,0.0,0.0,0.0,0.0,0.0,0.0,0.0,0.0,0.0,0.0,0.0,0.0,0.0,0.0,0.0,0.0,0.0,0.0,0.0,0.0,0.0,0.0,0.0,0.0,0.0,0.0,0.0,0.0,0.0,0.0,0.0,0.0,0.0,0.0,0.0,0.0,0.0,0.0,0.0,0.0,0.0,0.0,0.0,-0.5759,-0.7772,-0.8564,-0.8025,-0.7991,-0.7634,0.0,0.0,0.0,0.0,0.0,0.0,0.0,0.0,0.0,0.0,0.0,0.0,0.0,0.0,0.0,0.0,0.0,0.0,0.0,0.0,0.0,0.0,0.0,0.0,0.0,0.0,0.0,0.0,0.0,0.0,0.0,0.0,0.0,0.0,0.0,0.0,0.0,0.0,0.0,0.0,0.0,0.0,0.0,0.0,0.0,0.0,0.0,0.0,0.0,0.0,0.0,0.0,0.0,0.0,0.0,0.0,0.0,0.0,0.0,0.0,0.0,0.0,0.0,0.0,0.0,0.0,0.0,0.0,0.0,0.0,0.0,0.0,0.0,0.0,0.0,0.0,0.0,0.0,0.0,0.0,0.0,0.0,0.0,0.0,0.0,0.0,0.0,0.0,0.0,0.0,0.0,0.0,0.0,0.0,0.0,0.0,0.0,0.0,0.0,0.0,0.0,0.0,0.0,0.0,0.0,0.0,0.0,0.0,-0.4408,-0.7202,-0.837,-0.8186,-0.6863,-0.6785,-0.5909,0.0,0.0,0.0,0.0,0.0,0.0,0.0,0.0,0.0,0.0,0.0,0.0,0.0,0.0,0.0,0.0,0.0,0.0,0.0,0.0,0.0,0.0,0.0,0.0,0.0,0.0,0.0,0.0,0.0,0.0,0.0,0.0,0.0,0.0,0.0,0.0,0.0,0.0,0.0,0.0,0.0,0.0,0.0,0.0,0.0,0.0,0.0,0.0,0.0,0.0,0.0,0.0,0.0,0.0,0.0,0.0,0.0,0.0,0.0,0.0,0.0,0.0,0.0,0.0,0.0,0.0,0.0,0.0,0.0,0.0,0.0,0.0,0.0,0.0,0.0,0.0,0.0,0.0,0.0,0.0,0.0,0.0,0.0,0.0,0.0,0.0,0.0,0.0,0.0,0.0,0.0,0.0,0.0,0.0,0.0,0.0,0.0,0.0,0.0,0.0,0.0,0.0,0.0,0.0,0.0,0.0,0.0,0.0,0.0,-0.4614,-0.658,-0.7234,-0.6266,-0.5248,-0.4298,0.0,0.0,0.0,0.0,0.0,0.0,0.0,0.0,0.0,0.0,0.0,0.0,0.0,0.0,0.0,0.0,0.0,0.0,0.0,0.0,0.0,0.0,0.0,0.0,0.0,0.0,0.0,0.0,0.0,0.0,0.0,0.0,0.0,0.0,0.0,0.0,0.0,0.0,0.0,0.0,0.0,0.0,0.0,0.0,0.0,0.0,0.0,0.0,0.0,0.0,0.0,0.0,0.0,0.0,0.0,0.0,0.0,0.0,0.0,0.0,0.0,0.0,0.0,0.0,0.0,0.0,0.0,0.0,0.0,0.0,0.0,0.0,0.0,0.0,0.0,0.0,0.0,0.0,0.0,0.0,0.0,0.0,0.0,0.0,0.0,0.0,0.0,0.0,0.0,0.0,0.0,0.0,0.0,0.0,0.0,0.0,0.0,0.0,0.0,0.0,0.0,0.0,0.0,0.0,0.0,0.0,0.0,0.0,0.0,-0.3815,-0.5721,-0.6329,-0.534,-0.4186,-0.3322,0.0,0.0,0.0,0.0,0.0,0.0,0.0,0.0,0.0,0.0,0.0,0.0,0.0,0.0,0.0,0.0,0.0,0.0,0.0,0.0,0.0,0.0,0.0,0.0,0.0,0.0,0.0,0.0,0.0,0.0,0.0,0.0,0.0,0.0,0.0,0.0,0.0,0.0,0.0,0.0,0.0,0.0,0.0,0.0,0.0,0.0,0.0,0.0,0.0,0.0,0.0,0.0,0.0,0.0,0.0,0.0,0.0,0.0,0.0,0.0,0.0,0.0,0.0,0.0,0.0,0.0,0.0,0.0,0.0,0.0,0.0,0.0,0.0,0.0,0.0,0.0,0.0,0.0,0.0,0.0,0.0,0.0,0.0,0.0,0.0,0.0,0.0,0.0,0.0,0.0,0.0,0.0,0.0,0.0,0.0,0.0,0.0,0.0,0.0,0.0,0.0,0.0,0.0,0.0,0.0,0.0,0.0,0.0,0.0,-0.4384,-0.5657,-0.5614,-0.4306,-0.3536,-0.2847,0.0,0.0,0.0,0.0,0.0,0.0,0.0,0.0,0.0,0.0,0.0,0.0,0.0,0.0,0.0,0.0,0.0,0.0,0.0,0.0,0.0,0.0,0.0,0.0,0.0,0.0,0.0,0.0,0.0,0.0,0.0,0.0,0.0,0.0,0.0,0.0,0.0,0.0,0.0,0.0,0.0,0.0,0.0,0.0,0.0,0.0,0.0,0.0,0.0,0.0,0.0,0.0,0.0,0.0,0.0,0.0,0.0,0.0,0.0,0.0,0.0,0.0,0.0,0.0,0.0,0.0,0.0,0.0,0.0,0.0,0.0,0.0,0.0,0.0,0.0,0.0,0.0,0.0,0.0,0.0,0.0,0.0,0.0,0.0,0.0,0.0,0.0,0.0,0.0,0.0,0.0,0.0,0.0,0.0,0.0,0.0,0.0,0.0,0.0,0.0,0.0,0.0,0.0,0.0,0.0,0.0,0.0,0.0,0.0,0.0,-0.4645,-0.513,-0.5275,-0.3627,-0.2615,-0.2314,0.0,0.0,0.0,0.0,0.0,0.0,0.0,0.0,0.0,0.0,0.0,0.0,0.0,0.0,0.0,0.0,0.0,0.0,0.0,0.0,0.0,0.0,0.0,0.0,0.0,0.0,0.0,0.0,0.0,0.0,0.0,0.0,0.0,0.0,0.0,0.0,0.0,0.0,0.0,0.0,0.0,0.0,0.0,0.0,0.0,0.0,0.0,0.0,0.0,0.0,0.0,0.0,0.0,0.0,0.0,0.0,0.0,0.0,0.0,0.0,0.0,0.0,0.0,0.0,0.0,0.0,0.0,0.0,0.0,0.0,0.0,0.0,0.0,0.0,0.0,0.0,0.0,0.0,0.0,0.0,0.0,0.0,0.0,0.0,0.0,0.0,0.0,0.0,0.0,0.0,0.0,0.0,0.0,0.0,0.0,0.0,0.0,0.0,0.0,0.0,0.0,0.0,0.0,0.0,0.0,0.0,0.0,0.0,0.0,0.0,-0.5202,-0.6341,-0.4391,-0.3137,0.0,0.0,0.0,0.0,0.0,0.0,0.0,0.0,0.0,0.0,0.0,0.0,0.0,0.0,0.0,0.0,0.0,0.0,0.0,0.0,0.0,0.0,0.0,0.0,0.0,0.0,0.0,0.0,0.0,0.0,0.0,0.0,0.0,0.0,0.0,0.0,0.0,0.0,0.0,0.0,0.0,0.0,0.0,0.0,0.0,0.0,0.0,0.0,0.0,0.0,0.0,0.0,0.0,0.0,0.0,0.0,0.0,0.0,0.0,0.0,0.0,0.0,0.0,0.0,0.0,0.0,0.0,0.0,0.0,0.0,0.0,0.0,0.0,0.0,0.0,0.0,0.0,0.0,0.0,0.0,0.0,0.0,0.0,0.0,0.0,0.0,0.0,0.0,0.0,0.0,0.0,0.0,0.0,0.0,0.0,0.0,0.0,0.0,0.0,0.0,0.0,0.0,0.0,0.0,0.0,0.0,0.0,0.0,0.0,0.0,0.0,-0.5723,-0.6843,-0.5547,0.0,-0.3126,0.0,0.0,0.0,0.0,0.0,0.0,0.0,0.0,0.0,0.0,0.0,0.0,0.0,0.0,0.0,0.0,0.0,0.0,0.0,0.0,0.0,0.0,0.0,0.0,0.0,0.0,0.0,0.0,0.0,0.0,0.0,0.0,0.0,0.0,0.0,0.0,0.0,0.0,0.0,0.0,0.0,0.0,0.0,0.0,0.0,0.0,0.0,0.0,0.0,0.0,0.0,0.0,0.0,0.0,0.0,0.0,0.0,0.0,0.0,0.0,0.0,0.0,0.0,0.0,0.0,0.0,0.0,0.0,0.0,0.0,0.0,0.0,0.0,0.0,0.0,0.0,0.0,0.0,0.0,0.0,0.0,0.0,0.0,0.0,0.0,0.0,0.0,0.0,0.0,0.0,0.0,0.0,0.0,0.0,0.0,0.0,0.0,0.0,0.0,0.0,0.0,0.0,0.0,0.0,0.0,0.0,0.0,0.0,0.0,0.0,0.0,0.0,-0.6128,-0.5553,-0.4891,0.0,0.0,0.0,0.0,0.0,0.0,0.0,0.0,0.0,0.0,0.0,0.0,0.0,0.0,0.0,0.0,0.0,0.0,0.0,0.0,0.0,0.0,0.0,0.0,0.0,0.0,0.0,0.0,0.0,0.0,0.0,0.0,0.0,0.0,0.0,0.0,0.0,0.0,0.0,0.0,0.0,0.0,0.0,0.0,0.0,0.0,0.0,0.0,0.0,0.0,0.0,0.0,0.0,0.0,0.0,0.0,0.0,0.0,0.0,0.0,0.0,0.0,0.0,0.0,0.0,0.0,0.0,0.0,0.0,0.0,0.0,0.0,0.0,0.0,0.0,0.0,0.0,0.0,0.0,0.0,0.0,0.0,0.0,0.0,0.0,0.0,0.0,0.0,0.0,0.0,0.0,0.0,0.0,0.0,0.0,0.0,0.0,0.0,0.0,0.0,0.0,0.0,0.0,0.0,0.0,0.0,0.0,0.0,0.0,0.0,-0.578,-0.6439,-0.6145,-0.5878,-0.5657,0.0,0.0,0.0,0.0,0.0,0.0,0.0,0.0,0.0,0.0,0.0,0.0,0.0,0.0,0.0,0.0,0.0,0.0,0.0,0.0,0.0,0.0,0.0,0.0,0.0,0.0,0.0,0.0,0.0,0.0,0.0,0.0,0.0,0.0,0.0,0.0,0.0,0.0,0.0,0.0,0.0,0.0,0.0,0.0,0.0,0.0,0.0,0.0,0.0,0.0,0.0,0.0,0.0,0.0,0.0,0.0,0.0,0.0,0.0,0.0,0.0,0.0,0.0,0.0,0.0,0.0,0.0,0.0,0.0,0.0,0.0,0.0,0.0,0.0,0.0,0.0,0.0,0.0,0.0,0.0,0.0,0.0,0.0,0.0,0.0,0.0,0.0,0.0,0.0,0.0,0.0,0.0,0.0,0.0,0.0,0.0,0.0,0.0,0.0,0.0,0.0,0.0,0.0,0.0,0.0,0.0,0.0,0.0,0.0,0.0,-0.5791,0.0,0.0,0.0,-0.5874,0.0,0.0,0.0,0.0,0.0,0.0,0.0,0.0,0.0,0.0,0.0,0.0,0.0,0.0,0.0,0.0,0.0,0.0,0.0,0.0,0.0,0.0,0.0,0.0,0.0,0.0,0.0,0.0,0.0,0.0,0.0,0.0,0.0,0.0,0.0,0.0,0.0,0.0,0.0,0.0,0.0,0.0,0.0,0.0,0.0,0.0,0.0,0.0,0.0,0.0,0.0,0.0,0.0,0.0,0.0,0.0,0.0,0.0,0.0,0.0,0.0,0.0,0.0,0.0,0.0,0.0,0.0,0.0,0.0,0.0,0.0,0.0,0.0,0.0,0.0,0.0,0.0,0.0,0.0,0.0,0.0,0.0,0.0,0.0,0.0,0.0,0.0,0.0,0.0,0.0,0.0,0.0,0.0,0.0,0.0,0.0,0.0,0.0,0.0,0.0,0.0,0.0,0.0,0.0,0.0,0.0,0.0,0.0,0.0,0.0,0.0,0.0,0.0,0.0,0.0,0.0,0.0,0.0,0.0,0.0,0.0,0.0,0.0,0.0,0.0,0.0,0.0,0.0,0.0,0.0,0.0,0.0,0.0,0.0,0.0,0.0,0.0,0.0,0.0,0.0,0.0,0.0,0.0,0.0,0.0,0.0,0.0,0.0,0.0,0.0,0.0,0.0,0.0,0.0,0.0,0.0,0.0,0.0,0.0,0.0,0.0,0.0,0.0,0.0,0.0,0.0,0.0,0.0,0.0,0.0,0.0,0.0,0.0,0.0,0.0,0.0,0.0,0.0,0.0,0.0,0.0,0.0,0.0,0.0,0.0,0.0,0.0,0.0,0.0,0.0,0.0,0.0,0.0,0.0,0.0,0.0,0.0,0.0,0.0,0.0,0.0,0.0,0.0,0.0,0.0,0.0,0.0,0.0,0.0,0.0,0.0,0.0,0.0,0.0,0.0,0.0,0.0,0.0,0.0,0.0,0.0,0.0,0.0,0.0,0.0,0.0,0.0,0.0,0.0,0.0,0.0,0.0,0.0,0.0,0.0,0.0,0.0,0.0,0.0,0.0,0.0,0.0,0.0,0.0,0.0,0.0,0.0,0.0,0.0,0.0,0.0,0.0,0.0,0.0,0.0,0.0,0.0,0.0,0.0,0.0,0.0,0.0,0.0,0.0,0.0,0.0,0.0,0.0,0.0,0.0,0.0,0.0,0.0,0.0,0.0,0.0,0.0,0.0,0.0,0.0,0.0,0.0,0.0,0.0,0.0,0.0,0.0,0.0,0.0,0.0,0.0,0.0,0.0,0.0,0.0,0.0,0.0,0.0,0.0,0.0,0.0,0.0,0.0,0.0,0.0,0.0,0.0,0.0,0.0,0.0,0.0,0.0,0.0,0.0,0.0,0.0,0.0,0.0,0.0,0.0,0.0,0.0,0.0,0.0,0.0,0.0,0.0,0.0,0.0,0.0,0.0,0.0,0.0,0.0,0.0,0.0,0.0,0.0,0.0,0.0,0.0,0.0,0.0,0.0,0.0,0.0,0.0,0.0,0.0,0.0,0.0,0.0,0.0,0.0,0.0,0.0,0.0,0.0,0.0,0.0,0.0,0.0,0.0,0.0,0.0,0.0,0.0,0.0,0.0,0.0,0.0,0.0,0.0,0.0,0.0,0.0,0.0,0.0,0.0,0.0,0.0,0.0,0.0,0.0,0.0,0.0,0.0,0.0,0.0,0.0,0.0,0.0,0.0,0.0,0.0,0.0,0.0,0.0,0.0,0.0,0.0,0.0,0.0,0.0,0.0,0.0,0.0,0.0,0.0,0.0,0.0,0.0,0.0,0.0,0.0,0.0,0.0,0.0,0.0,0.0,0.0,0.0,0.0,0.0,0.0,0.0,0.0,0.0,0.0,0.0,0.0,0.0,0.0,0.0,0.0,0.0,0.0,0.0,0.0,0.0,0.0,0.0,0.0,0.0,0.0,0.0,0.0,0.0,0.0,0.0,0.0,0.0,0.0,0.0,0.0,0.0,0.0,0.0,0.0,0.0,0.0,0.0,0.0,0.0,0.0,0.0,0.0,0.0,0.0,0.0,0.0,0.0,0.0,0.0,0.0,0.0,0.0,0.0,0.0,0.0,0.0,0.0,0.0,0.0,0.0,0.0,0.0,0.0,0.0,0.0,0.0,0.0,0.0,0.0,0.0,0.0,0.0,0.0,0.0,0.0,0.0,0.0,0.0,0.0,0.0,0.0,0.0,0.0,0.0,0.0,0.0,0.0,0.0,0.0,0.0,0.0,0.0,0.0,0.0,0.0,0.0,0.0,0.0,0.0,0.0,0.0,0.0,0.0,0.0,0.0,0.0,0.0,0.0,0.0,0.0,0.0,0.0,0.0,0.0,0.0,0.0,0.0,0.0,0.0,0.0,0.0,0.0,0.0,0.0,0.0,0.0,0.0,0.0,0.0,0.0,0.0,0.0,0.0,0.0,0.0,0.0,0.0,0.0,0.0,0.0,0.0,0.0,0.0,0.0,0.0,0.0,0.0,0.0,0.0,0.0,0.0,0.0,0.0,0.0,0.0,0.0,0.0,0.0,0.0,0.0,0.0,0.0,0.0,0.0,0.0,0.0,0.0,0.0,0.0,0.0,0.0,0.0,0.0,0.0,0.0,0.0,0.0,0.0,0.0,0.0,0.0,0.0,0.0,0.0,0.0,0.0,0.0,0.0,0.0,0.0,0.0,0.0,0.0,0.0,0.0,0.0,0.0,0.0,0.0,0.0,0.0,0.0,0.0,0.0,0.0,0.0,0.0,0.0,0.0,0.0,0.0,0.0,0.0,0.0,0.0,0.0,0.0,0.0,0.0,0.0,0.0,0.0,0.0,0.0,0.0,0.0,0.0,0.0,0.0,0.0,0.0,0.0,0.0,0.0,0.0,0.0,0.0,0.0,0.0,0.0,0.0,0.0,0.0,0.0,0.0,0.0,0.0,0.0,0.0,0.0,0.0,0.0,0.0,0.0,0.0,0.0,0.0,0.0,0.0,0.0,0.0,0.0,0.0,0.0,0.0,0.0,0.0,0.0,0.0,0.0,0.0,0.0,0.0,0.0,0.0,0.0,0.0,0.0,0.0,0.0,0.0,0.0,0.0,0.0,0.0,0.0,0.0,0.0,0.0,0.0,0.0,0.0,0.0,0.0,0.0,0.0,0.0,0.0,0.0,0.0,0.0,0.0,0.0,0.0,0.0,0.0,0.0,0.0,0.0,0.0,0.0,0.0,0.0,0.0,0.0,0.0,0.0,0.0,0.0,0.0,0.0,0.0,0.0,0.0,0.0,0.0,0.0,0.0,0.0,0.0,0.0,0.0,0.0,0.0,0.0,0.0,0.0,0.0,0.0,0.0,0.0,0.0,0.0,0.0,0.0,0.0,0.0,0.0,0.0,0.0,0.0,0.0,0.0,0.0,0.0,0.0,0.0,0.0,0.0,0.0,0.0,0.0,0.0,0.0,0.0,0.0,0.0,0.0,0.0,0.0,0.0,0.0,0.0,0.0,0.0,0.0,0.0,0.0,0.0,0.0,0.0,0.0,0.0,0.0,0.0,0.0,0.0,0.0,0.0,0.0,0.0,0.0,0.0,0.0,0.0,0.0,0.0,0.0,0.0,0.0,0.0,0.0,0.0,0.0,0.0,0.0,0.0,0.0,0.0,0.0,0.0,0.0,0.0,0.0,0.0,0.0,0.0,0.0,0.0,0.0,0.0,0.0,0.0,0.0,0.0,0.0,0.0,0.0,0.0,0.0,0.0,0.0,0.0,0.0,0.0,0.0,0.0,0.0,0.0,0.0,0.0,0.0,0.0,0.0,0.0,0.0,0.0,0.0,0.0,0.0,0.0,0.0,0.0,0.0,0.0,0.0,0.0,0.0,0.0,0.0,0.0,0.0,0.0,0.0,0.0,0.0,0.0,0.0,0.0,0.0,0.0,0.0,0.0,0.0,0.0,0.0,0.0,0.0,0.0,0.0,0.0,0.0,0.0,0.0,0.0,0.0,0.0,0.0,0.0,0.0,0.0,0.0,0.0,0.0,0.0,0.0,0.0,0.0,0.0,0.0,0.0,0.0,0.0,0.0,0.0,0.0,0.0,0.0,0.0,0.0,0.0,0.0,0.0,0.0,0.0,0.0,0.0,0.0,0.0,0.0,0.0,0.0,0.0,0.0,0.0,0.0,0.0,0.0,0.0,0.0,0.0,0.0,0.0,0.0,0.0,0.0,0.0,0.0,0.0,0.0,0.0,0.0,0.0,0.0,0.0,0.0,0.0,0.0,0.0,0.0,0.0,0.0,0.0,0.0,0.0,0.0,0.0,0.0,0.0,0.0,0.0,0.0,0.0]}]]]